[[{"header":{"parameterUnit":"m.s-1","parameterCategory":1,"la1":31.0,"la2":29.5877,"lo1":-88.7671,"lo2":-86.6584,"dy":0.0162,"dx":0.0185,"nx":115,"ny":88,"refTime":"2024-08-06T12:00:00:Z","depth":0,"parameterNumber":2,"parameterNumberName":"U-component_of_WINDS"},"data":[0.0,0.0,0.0,0.0,0.0,0.0,0.0,0.0,0.0,0.0,0.0,0.0,0.0,0.0,0.0,0.0,0.0,0.0,0.0,0.0,0.0,0.0,0.0,0.0,0.0,0.0,0.0,0.0,0.0,0.0,0.0,0.0,0.0,0.0,0.0,0.0,0.0,0.0,0.0,0.0,0.0,0.0,0.0,0.0,0.0,0.0,0.0,0.0,0.0,0.0,0.0,0.0,0.0,0.0,0.0,0.0,0.0,0.0,0.0,0.0,0.0,0.0,0.0,0.0,0.0,0.0,0.0,0.0,0.0,0.0,0.0,0.0,0.0,0.0,0.0,0.0,0.0,0.0,0.0,0.0,0.0,0.0,0.0,0.0,0.0,0.0,0.0,0.0,0.0,0.0,0.0,0.0,0.0,0.0,0.0,0.0,0.0,0.0,0.0,0.0,0.0,0.0,0.0,0.0,0.0,0.0,0.0,0.0,0.0,0.0,0.0,0.0,0.0,0.0,0.0,0.0,0.0,0.0,0.0,0.0,0.0,0.0,0.0,0.0,0.0,0.0,0.0,0.0,0.0,0.0,0.0,0.0,0.0,0.0,0.0,0.0,0.0,0.0,0.0,0.0,0.0,0.0,0.0,0.0,0.0,0.0,0.0,0.0,0.0,0.0,0.0,0.0,0.0,0.0,0.0,0.0,0.0,0.0,0.0,0.0,0.0,0.0,0.0,0.0,0.0,0.0,0.0,0.0,0.0,0.0,0.0,0.0,0.0,0.0,0.0,0.0,0.0,0.0,0.0,0.0,0.0,0.0,0.0,0.0,0.0,0.0,0.0,0.0,0.0,0.0,0.0,0.0,0.0,0.0,0.0,0.0,0.0,0.0,0.0,0.0,0.0,0.0,0.0,0.0,0.0,0.0,0.0,0.0,0.0,0.0,0.0,0.0,0.0,0.0,0.0,0.0,0.0,0.0,0.0,0.0,0.0,0.0,0.0,0.0,0.0,0.0,0.0,0.0,0.0,0.0,0.0,0.0,0.0,0.0,0.0,0.0,0.0,0.0,0.0,0.0,0.0,0.0,0.0,0.0,0.0,0.0,0.0,0.0,0.0,0.0,0.0,0.0,0.0,0.0,0.0,0.0,0.0,0.0,0.0,0.0,0.0,0.0,0.0,0.0,0.0,0.0,0.0,0.0,0.0,0.0,0.0,0.0,0.0,0.0,0.0,0.0,0.0,0.0,0.0,0.0,0.0,0.0,0.0,0.0,0.0,0.0,0.0,0.0,0.0,0.0,0.0,0.0,0.0,0.0,0.0,0.0,0.0,0.0,0.0,0.0,0.0,0.0,0.0,0.0,0.0,0.0,0.0,0.0,0.0,0.0,0.0,0.0,0.0,0.0,0.0,0.0,0.0,0.0,0.0,0.0,0.0,0.0,0.0,0.0,0.0,0.0,0.0,0.0,0.0,0.0,0.0,0.0,0.0,0.0,0.0,0.0,0.0,0.0,0.0,0.0,0.0,0.0,0.0,0.0,0.0,0.0,0.0,0.0,0.0,0.0,0.0,0.0,0.0,0.0,0.0,0.0,0.0,0.0,0.0,0.0,0.0,0.0,0.0,0.0,0.0,0.0,0.0,0.0,0.0,0.0,0.0,0.0,0.0,0.0,0.0,0.0,0.0,0.0,0.0,0.0,0.0,0.0,0.0,0.0,0.0,0.0,0.0,0.0,0.0,0.0,0.0,0.0,0.0,0.0,0.0,0.0,0.0,0.0,0.0,0.0,0.0,0.0,0.0,0.0,0.0,0.0,0.0,0.0,0.0,0.0,0.0,0.0,0.0,0.0,0.0,0.0,0.0,0.0,0.0,0.0,0.0,0.0,0.0,0.0,0.0,0.0,0.0,0.0,0.0,0.0,0.0,0.0,0.0,0.0,0.0,0.0,0.0,0.0,0.0,0.0,0.0,0.0,0.0,0.0,0.0,0.0,0.0,0.0,0.0,0.0,0.0,0.0,0.0,0.0,0.0,0.0,0.0,0.0,0.0,0.0,0.0,0.0,0.0,0.0,0.0,0.0,0.0,0.0,0.0,0.0,0.0,0.0,0.0,0.0,0.0,0.0,0.0,0.0,0.0,0.0,0.0,0.0,0.0,0.0,0.0,0.0,0.0,0.0,0.0,0.0,0.0,0.0,0.0,0.0,0.0,0.0,0.0,0.0,0.0,0.0,0.0,0.0,0.0,0.0,0.0,0.0,0.0,0.0,0.0,0.0,0.0,0.0,0.0,0.0,0.0,0.0,0.0,0.0,0.0,0.0,0.0,0.0,0.0,0.0,0.0,0.0,0.0,0.0,0.0,0.0,0.0,0.0,0.0,0.0,0.0,0.0,0.0,0.0,0.0,0.0,0.0,0.0,0.0,0.0,0.0,0.0,0.0,0.0,0.0,0.0,0.0,0.0,0.0,0.0,0.0,0.0,0.0,0.0,0.0,0.0,0.0,0.0,0.0,0.0,0.0,0.0,0.0,0.0,0.0,0.0,0.0,0.0,0.0,0.0,0.0,0.0,0.0,0.0,0.0,0.0,0.0,0.0,0.0,0.0,0.0,0.0,0.0,0.0,0.0,0.0,0.0,0.0,0.0,0.0,0.0,0.0,0.0,0.0,0.0,0.0,0.0,0.0,0.0,0.0,0.0,0.0,0.0,0.0,0.0,0.0,0.0,0.0,0.0,0.0,0.0,0.0,0.0,0.0,0.0,0.0,0.0,0.0,0.0,0.0,0.0,0.0,0.0,0.0,0.0,0.0,0.0,0.0,0.0,0.0,0.0,0.0,0.0,0.0,0.0,0.0,0.0,0.0,0.0,0.0,0.0,0.0,0.0,0.0,0.0,0.0,0.0,0.0,0.0,0.0,0.0,0.0,0.0,0.0,0.0,0.0,0.0,0.0,0.0,0.0,0.0,0.0,0.0,0.0,0.0,0.0,0.0,0.0,0.0,0.0,0.0,0.0,0.0,0.0,0.0,0.0,0.0,0.0,0.0,0.0,0.0,0.0,0.0,0.0,0.0,0.0,0.0,0.0,0.0,0.0,0.0,0.0,0.0,0.0,0.0,0.0,0.0,0.0,0.0,0.0,0.0,0.0,0.0,0.0,0.0,0.0,0.0,0.0,0.0,0.0,0.0,0.0,0.0,0.0,0.0,0.0,0.0,0.0,0.0,0.0,0.0,0.0,0.0,0.0,0.0,0.0,0.0,0.0,0.0,0.0,0.0,0.0,0.0,0.0,0.0,0.0,0.0,0.0,0.0,0.0,0.0,0.0,0.0,0.0,0.0,0.0,0.0,0.0,0.0,0.0,0.0,0.0,0.0,0.0,0.0,0.0,0.0,0.0,0.0,0.0,0.0,0.0,0.0,0.0,0.0,0.0,0.0,0.0,0.0,0.0,0.0,0.0,0.0,0.0,0.0,0.0,0.0,0.0,0.0,0.0,0.0,0.0,0.0,0.0,0.0,0.0,0.0,0.0,0.0,0.0,0.0,0.0,0.0,0.0,0.0,0.0,0.0,0.0,0.0,0.0,0.0,0.0,0.0,0.0,0.0,0.0,0.0,0.0,0.0,0.0,0.0,0.0,0.0,0.0,0.0,0.0,0.0,0.0,0.0,0.0,0.0,0.0,0.0,0.0,0.0,0.0,0.0,0.0,0.0,0.0,0.0,0.0,0.0,0.0,0.0,0.0,0.0,0.0,0.0,0.0,0.0,0.0,0.0,0.0,0.0,0.0,0.0,0.0,0.0,0.0,0.0,0.0,0.0,0.0,0.0,0.0,0.0,0.0,0.0,0.0,0.0,0.0,0.0,0.0,0.0,0.0,0.0,0.0,0.0,0.0,0.0,0.0,0.0,0.0,0.0,0.0,0.0,0.0,0.0,0.0,0.0,0.0,0.0,0.0,0.0,0.0,0.0,0.0,0.0,0.0,0.0,0.0,0.0,0.0,0.0,0.0,0.0,0.0,0.0,0.0,0.0,0.0,0.0,0.0,0.0,0.0,0.0,0.0,0.0,0.0,0.0,0.0,0.0,0.0,0.0,0.0,0.0,0.0,0.0,0.0,0.0,0.0,0.0,0.0,0.0,0.0,0.0,0.0,0.0,0.0,0.0,0.0,0.0,0.0,0.0,0.0,0.0,0.0,0.0,0.0,0.0,0.0,0.0,0.0,0.0,0.0,0.0,0.0,0.0,0.0,0.0,0.0,0.0,0.0,0.0,0.0,0.0,0.0,0.0,0.0,0.0,0.0,1.5164,0.0,0.0,0.0,0.0,0.0,0.0,0.0,0.0,0.0,0.0,0.0,0.0,0.0,0.0,0.0,0.0,0.0,0.0,0.0,0.0,0.0,0.0,0.0,0.0,0.0,0.0,0.0,0.0,0.0,0.0,0.0,0.0,0.0,0.0,0.0,0.0,0.0,0.0,0.0,0.0,0.0,0.0,0.0,0.0,0.0,0.0,0.0,0.0,0.0,0.0,0.0,0.0,0.0,0.0,0.0,0.0,0.0,0.0,0.0,0.0,0.0,0.0,0.0,0.0,0.0,0.0,0.0,0.0,0.0,0.0,0.0,0.0,0.0,0.0,0.0,0.0,0.0,0.0,0.0,0.0,0.0,0.0,0.0,0.0,0.0,0.0,0.0,0.0,0.0,0.0,0.0,0.0,0.0,0.0,0.0,0.0,0.0,0.0,0.0,0.0,0.0,0.0,0.0,0.0,0.0,0.0,0.0,0.0,0.0,0.0,1.7434,1.6736,1.5844,1.5195,1.4774,0.0,0.0,0.0,0.0,0.0,0.0,0.0,0.0,0.0,0.0,0.0,0.0,0.0,0.0,0.0,0.0,0.0,0.0,0.0,0.0,0.0,0.0,0.0,0.0,0.0,0.0,0.0,0.0,0.0,0.0,0.0,0.0,0.0,0.0,0.0,0.0,0.0,0.0,0.0,0.0,0.0,0.0,0.0,0.0,0.0,0.0,0.0,0.0,0.0,0.0,0.0,0.0,0.0,0.0,0.0,0.0,0.0,0.0,0.0,0.0,0.0,0.0,0.0,0.0,0.0,0.0,0.0,0.0,0.0,0.0,0.0,0.0,0.0,0.0,0.0,0.0,0.0,0.0,0.0,0.0,0.0,0.0,0.0,0.0,0.0,0.0,0.0,0.0,0.0,0.0,0.0,0.0,0.0,0.0,0.0,0.0,0.0,0.0,0.0,0.0,0.0,0.0,0.0,0.0,0.0,0.0,0.0,0.0,0.0,0.0,0.0,0.0,1.5989,1.5533,1.5194,0.0,0.0,0.0,0.0,0.0,0.0,0.0,0.0,0.0,0.0,0.0,0.0,0.0,0.0,0.0,0.0,0.0,0.0,0.0,0.0,0.0,0.0,0.0,0.0,0.0,0.0,0.0,0.0,0.0,0.0,0.0,0.0,0.0,0.0,0.0,0.0,0.0,0.0,0.0,0.0,0.0,0.0,0.0,0.0,0.0,0.0,0.0,0.0,0.0,0.0,0.0,0.0,0.0,0.0,0.0,0.0,0.0,0.0,0.0,0.0,0.0,0.0,0.0,0.0,0.0,0.0,0.0,0.0,0.0,0.0,0.0,0.0,0.0,0.0,0.0,0.0,0.0,0.0,0.0,0.0,0.0,0.0,0.0,0.0,0.0,0.0,0.0,0.0,0.0,0.0,0.0,0.0,0.0,0.0,0.0,0.0,0.0,0.0,0.0,0.0,0.0,0.0,0.0,0.0,0.0,0.0,0.0,0.0,0.0,0.0,1.5839,1.7432,1.7256,0.0,1.714,0.0,0.0,0.0,0.0,0.0,0.0,0.0,0.0,0.0,0.0,0.0,0.0,0.0,0.0,0.0,0.0,0.0,0.0,0.0,0.0,0.0,0.0,0.0,0.0,0.0,0.0,0.0,0.0,0.0,0.0,0.0,0.0,0.0,0.0,0.0,0.0,0.0,0.0,0.0,0.0,0.0,0.0,0.0,0.0,0.0,0.0,0.0,0.0,0.0,0.0,0.0,0.0,0.0,0.0,0.0,0.0,0.0,0.0,0.0,0.0,0.0,0.0,0.0,0.0,0.0,0.0,0.0,0.0,0.0,0.0,0.0,0.0,0.0,0.0,0.0,0.0,0.0,0.0,0.0,0.0,0.0,0.0,0.0,0.0,0.0,0.0,0.0,0.0,0.0,0.0,0.0,0.0,0.0,0.0,0.0,0.0,0.0,0.0,0.0,0.0,0.0,0.0,0.0,0.0,0.0,0.0,0.0,0.0,0.0,0.0,0.0,1.6728,1.6467,1.6378,0.0,0.0,0.0,0.0,0.0,0.0,0.0,0.0,0.0,0.0,0.0,0.0,0.0,0.0,0.0,0.0,0.0,0.0,0.0,0.0,0.0,0.0,0.0,0.0,0.0,0.0,0.0,0.0,0.0,0.0,0.0,0.0,0.0,0.0,0.0,0.0,0.0,0.0,0.0,0.0,0.0,0.0,0.0,0.0,0.0,0.0,0.0,0.0,0.0,0.0,0.0,0.0,0.0,0.0,0.0,0.0,0.0,0.0,0.0,0.0,0.0,0.0,0.0,0.0,0.0,0.0,0.0,0.0,0.0,0.0,0.0,0.0,0.0,0.0,0.0,0.0,0.0,0.0,0.0,0.0,0.0,0.0,0.0,0.0,0.0,0.0,0.0,0.0,0.0,0.0,0.0,0.0,0.0,0.0,0.0,0.0,0.0,0.0,0.0,0.0,0.0,0.0,0.0,0.0,0.0,0.0,0.0,0.0,0.0,0.0,1.6366,0.0,1.6769,1.6391,1.6085,1.5783,0.0,0.0,0.0,0.0,0.0,0.0,0.0,0.0,0.0,0.0,0.0,0.0,0.0,0.0,0.0,0.0,0.0,0.0,0.0,0.0,0.0,0.0,0.0,0.0,0.0,0.0,0.0,0.0,0.0,0.0,0.0,0.0,0.0,0.0,0.0,0.0,0.0,0.0,0.0,0.0,0.0,0.0,0.0,0.0,0.0,0.0,0.0,0.0,0.0,0.0,0.0,0.0,0.0,0.0,0.0,0.0,0.0,0.0,0.0,0.0,0.0,0.0,0.0,0.0,0.0,0.0,0.0,0.0,0.0,0.0,0.0,0.0,0.0,0.0,0.0,0.0,0.0,0.0,0.0,0.0,0.0,0.0,0.0,0.0,0.0,0.0,0.0,0.0,0.0,0.0,0.0,0.0,0.0,0.0,0.0,0.0,0.0,0.0,0.0,0.0,0.0,0.0,0.0,0.0,0.0,0.0,0.0,0.0,0.0,1.6128,1.6024,1.828,1.7915,1.7014,0.0,0.0,0.0,0.0,0.0,0.0,0.0,0.0,0.0,0.0,0.0,0.0,0.0,0.0,0.0,0.0,0.0,0.0,0.0,0.0,0.0,0.0,0.0,0.0,0.0,0.0,0.0,0.0,0.0,0.0,0.0,0.0,0.0,0.0,0.0,0.0,0.0,0.0,0.0,0.0,0.0,0.0,0.0,0.0,0.0,0.0,0.0,0.0,0.0,0.0,0.0,0.0,0.0,0.0,0.0,0.0,0.0,0.0,0.0,0.0,0.0,0.0,0.0,0.0,0.0,0.0,0.0,0.0,0.0,0.0,0.0,0.0,0.0,0.0,0.0,0.0,0.0,0.0,0.0,0.0,0.0,0.0,0.0,0.0,0.0,0.0,0.0,0.0,0.0,0.0,0.0,0.0,0.0,0.0,0.0,0.0,0.0,0.0,0.0,0.0,0.0,0.0,0.0,0.0,0.0,0.0,0.0,0.0,0.0,1.4214,1.4603,1.642,1.9529,1.7264,1.6044,0.0,0.0,0.0,0.0,0.0,0.0,0.0,0.0,0.0,0.0,0.0,0.0,0.0,0.0,0.0,0.0,0.0,0.0,0.0,0.0,0.0,0.0,0.0,0.0,0.0,0.0,0.0,0.0,0.0,0.0,0.0,0.0,0.0,0.0,0.0,0.0,0.0,0.0,0.0,0.0,0.0,0.0,0.0,0.0,0.0,0.0,0.0,0.0,0.0,0.0,0.0,0.0,0.0,0.0,0.0,0.0,0.0,0.0,0.0,0.0,0.0,0.0,0.0,0.0,0.0,0.0,0.0,0.0,0.0,0.0,0.0,0.0,0.0,0.0,0.0,0.0,0.0,0.0,0.0,0.0,0.0,0.0,0.0,0.0,0.0,0.0,0.0,0.0,0.0,0.0,0.0,0.0,0.0,0.0,0.0,0.0,0.0,0.0,0.0,0.0,0.0,0.0,0.0,0.0,0.0,0.0,0.0,0.0,0.0,1.3406,0.0,1.7302,0.0,1.6892,1.5454,0.0,0.0,0.0,0.0,0.0,0.0,0.0,0.0,0.0,0.0,0.0,0.0,0.0,0.0,0.0,0.0,0.0,0.0,0.0,0.0,0.0,0.0,0.0,0.0,0.0,0.0,0.0,0.0,0.0,0.0,0.0,0.0,0.0,0.0,0.0,0.0,0.0,0.0,0.0,0.0,0.0,0.0,0.0,0.0,0.0,0.0,0.0,0.0,0.0,0.0,0.0,0.0,0.0,0.0,0.0,0.0,0.0,0.0,0.0,0.0,0.0,0.0,0.0,0.0,0.0,0.0,0.0,0.0,0.0,0.0,0.0,0.0,0.0,0.0,0.0,0.0,0.0,0.0,0.0,0.0,0.0,0.0,0.0,0.0,0.0,0.0,0.0,0.0,0.0,0.0,0.0,0.0,0.0,0.0,0.0,0.0,0.0,0.0,0.0,0.0,0.0,0.0,0.0,0.0,0.0,0.0,0.0,0.0,1.3436,1.6548,1.8314,1.8563,1.7239,1.6987,1.5479,0.0,0.0,0.0,0.0,0.0,0.0,0.0,0.0,0.0,0.0,0.0,0.0,0.0,0.0,0.0,0.0,0.0,0.0,0.0,0.0,0.0,0.0,0.0,0.0,0.0,0.0,0.0,0.0,0.0,0.0,0.0,0.0,0.0,0.0,0.0,0.0,0.0,0.0,0.0,0.0,0.0,0.0,0.0,0.0,0.0,0.0,0.0,0.0,0.0,0.0,0.0,0.0,0.0,0.0,0.0,0.0,0.0,0.0,0.0,0.0,0.0,0.0,0.0,0.0,0.0,0.0,0.0,0.0,0.0,0.0,0.0,0.0,0.0,0.0,0.0,0.0,0.0,0.0,0.0,0.0,0.0,0.0,0.0,0.0,0.0,0.0,0.0,0.0,0.0,0.0,0.0,0.0,0.0,0.0,0.0,0.0,0.0,0.0,0.0,0.0,0.0,0.0,0.0,0.0,0.0,0.0,0.0,0.0,0.0,1.5818,1.7259,1.8621,1.9778,1.6855,1.5495,0.0,0.0,0.0,0.0,0.0,0.0,0.0,0.0,0.0,0.0,0.0,0.0,0.0,0.0,0.0,0.0,0.0,0.0,0.0,0.0,0.0,0.0,0.0,0.0,0.0,0.0,0.0,0.0,0.0,0.0,0.0,0.0,0.0,0.0,0.0,0.0,0.0,0.0,0.0,0.0,0.0,0.0,0.0,0.0,0.0,0.0,0.0,0.0,0.0,0.0,0.0,0.0,0.0,0.0,0.0,0.0,0.0,0.0,0.0,0.0,0.0,0.0,0.0,0.0,0.0,0.0,0.0,0.0,0.0,0.0,0.0,0.0,0.0,0.0,0.0,0.0,0.0,0.0,0.0,0.0,0.0,0.0,0.0,0.0,0.0,0.0,0.0,0.0,0.0,0.0,0.0,0.0,0.0,0.0,0.0,0.0,0.0,0.0,0.0,0.0,0.0,0.0,0.0,0.0,0.0,0.0,0.0,0.0,0.0,1.763,1.884,2.0097,2.1303,1.7969,1.6333,1.6651,0.0,0.0,0.0,0.0,0.0,0.0,0.0,0.0,0.0,0.0,0.0,0.0,0.0,0.0,0.0,0.0,0.0,0.0,0.0,0.0,0.0,0.0,0.0,0.0,0.0,0.0,0.0,0.0,0.0,0.0,0.0,0.0,0.0,0.0,0.0,0.0,0.0,0.0,0.0,0.0,0.0,0.0,0.0,0.0,0.0,0.0,0.0,0.0,0.0,0.0,0.0,0.0,0.0,0.0,0.0,0.0,0.0,0.0,0.0,0.0,0.0,0.0,0.0,0.0,0.0,0.0,0.0,0.0,0.0,0.0,0.0,0.0,0.0,0.0,0.0,0.0,0.0,0.0,0.0,0.0,0.0,0.0,0.0,0.0,0.0,0.0,0.0,0.0,0.0,0.0,0.0,0.0,0.0,0.0,0.0,0.0,0.0,0.0,0.0,0.0,0.0,0.0,0.0,0.0,0.0,0.0,0.0,0.0,2.1512,2.2695,2.2824,2.1915,2.0163,1.7973,0.0,0.0,0.0,0.0,0.0,0.0,0.0,0.0,0.0,0.0,0.0,0.0,0.0,0.0,0.0,0.0,0.0,0.0,0.0,0.0,0.0,0.0,0.0,0.0,0.0,0.0,0.0,0.0,0.0,0.0,0.0,0.0,0.0,0.0,0.0,0.0,0.0,0.0,0.0,0.0,0.0,0.0,0.0,0.0,0.0,0.0,0.0,0.0,0.0,0.0,0.0,0.0,0.0,0.0,0.0,0.0,0.0,0.0,0.0,0.0,0.0,0.0,0.0,0.0,0.0,0.0,0.0,0.0,0.0,0.0,0.0,0.0,0.0,0.0,0.0,0.0,0.0,0.0,0.0,0.0,0.0,0.0,0.0,0.0,0.0,0.0,0.0,0.0,0.0,0.0,0.0,0.0,0.0,0.0,0.0,0.0,0.0,0.0,0.0,0.0,0.0,0.0,0.0,0.0,0.0,0.0,0.0,0.0,0.0,2.418,2.513,2.535,2.4938,2.2507,2.0515,0.0,0.0,0.0,0.0,0.0,0.0,0.0,0.0,0.0,0.0,0.0,0.0,0.0,0.0,0.0,0.0,0.0,0.0,0.0,0.0,0.0,0.0,0.0,0.0,0.0,0.0,0.0,0.0,0.0,0.0,0.0,0.0,0.0,0.0,0.0,0.0,0.0,0.0,0.0,0.0,0.0,0.0,0.0,0.0,0.0,0.0,0.0,0.0,0.0,0.0,0.0,0.0,0.0,0.0,0.0,0.0,0.0,0.0,0.0,0.0,0.0,0.0,0.0,0.0,0.0,0.0,0.0,0.0,0.0,0.0,0.0,0.0,0.0,0.0,0.0,0.0,0.0,0.0,0.0,0.0,0.0,0.0,0.0,0.0,0.0,0.0,0.0,0.0,0.0,0.0,0.0,0.0,0.0,0.0,0.0,0.0,0.0,0.0,0.0,0.0,0.0,0.0,0.0,0.0,0.0,0.0,0.0,0.0,2.1987,2.4967,2.6502,2.7079,2.6756,2.4287,2.1987,0.0,0.0,0.0,0.0,0.0,0.0,0.0,0.0,0.0,0.0,0.0,0.0,0.0,0.0,0.0,0.0,0.0,0.0,0.0,0.0,0.0,0.0,0.0,0.0,0.0,0.0,0.0,0.0,0.0,0.0,0.0,0.0,0.0,0.0,0.0,0.0,0.0,0.0,0.0,0.0,0.0,0.0,0.0,0.0,0.0,0.0,0.0,0.0,0.0,0.0,0.0,0.0,0.0,0.0,0.0,0.0,0.0,0.0,0.0,0.0,0.0,0.0,0.0,0.0,0.0,0.0,0.0,0.0,0.0,0.0,0.0,0.0,0.0,0.0,0.0,0.0,0.0,0.0,0.0,0.0,0.0,0.0,0.0,0.0,0.0,0.0,0.0,0.0,0.0,0.0,0.0,0.0,0.0,0.0,0.0,0.0,0.0,0.0,0.0,0.0,0.0,0.0,0.0,0.0,0.0,0.0,0.0,0.0,2.2783,2.4747,2.7149,2.812,2.7578,2.5706,2.3059,0.0,0.0,0.0,0.0,0.0,0.0,0.0,0.0,0.0,0.0,0.0,0.0,0.0,0.0,0.0,0.0,0.0,0.0,0.0,0.0,0.0,0.0,0.0,0.0,0.0,0.0,0.0,0.0,0.0,0.0,0.0,0.0,0.0,0.0,0.0,0.0,0.0,0.0,0.0,0.0,0.0,0.0,0.0,0.0,0.0,0.0,0.0,0.0,0.0,0.0,0.0,0.0,0.0,0.0,0.0,0.0,0.0,0.0,0.0,0.0,0.0,0.0,0.0,0.0,0.0,0.0,0.0,0.0,0.0,0.0,0.0,0.0,0.0,0.0,0.0,0.0,0.0,0.0,0.0,0.0,0.0,0.0,0.0,0.0,0.0,0.0,0.0,0.0,0.0,0.0,0.0,0.0,0.0,0.0,0.0,0.0,0.0,0.0,0.0,0.0,0.0,0.0,0.0,0.0,0.0,0.0,0.0,0.0,2.3655,2.601,2.7673,2.8386,2.8132,2.709,2.5056,0.0,0.0,0.0,0.0,0.0,0.0,0.0,0.0,0.0,0.0,0.0,0.0,0.0,0.0,0.0,0.0,0.0,0.0,0.0,0.0,0.0,0.0,0.0,0.0,0.0,0.0,0.0,0.0,0.0,0.0,0.0,0.0,0.0,0.0,0.0,0.0,0.0,0.0,0.0,0.0,0.0,0.0,0.0,0.0,0.0,0.0,0.0,0.0,1.4486,0.0,0.0,0.0,0.0,0.0,0.0,0.0,0.0,0.0,0.0,0.0,0.0,0.0,0.0,0.0,0.0,0.0,0.0,0.0,0.0,0.0,0.0,0.0,0.0,0.0,0.0,0.0,0.0,0.0,0.0,0.0,0.0,0.0,0.0,0.0,0.0,0.0,0.0,0.0,0.0,0.0,0.0,0.0,0.0,0.0,0.0,0.0,0.0,0.0,0.0,0.0,0.0,0.0,0.0,0.0,0.0,0.0,0.0,0.0,2.4234,2.6489,2.7843,2.8467,2.8383,2.736,2.5321,0.0,0.0,0.0,0.0,0.0,0.0,0.0,0.0,0.0,0.0,0.0,0.0,0.0,0.0,0.0,0.0,0.0,0.0,0.0,0.0,0.0,0.0,0.0,0.0,0.0,0.0,0.0,0.0,0.0,0.0,0.0,0.0,0.0,0.0,0.0,0.0,0.0,0.0,0.0,0.0,0.0,0.0,0.0,0.0,0.0,0.0,0.0,0.0,0.0,0.0,0.0,0.0,0.0,0.0,0.0,0.0,0.0,0.0,0.0,0.0,0.0,0.0,0.0,0.0,0.0,0.0,0.0,0.0,0.0,0.0,0.0,0.0,0.0,0.0,0.0,0.0,0.0,0.0,0.0,0.0,0.0,0.0,0.0,0.0,0.0,0.0,0.0,0.0,0.0,0.0,0.0,0.0,0.0,0.0,0.0,0.0,0.0,0.0,0.0,0.0,0.0,0.0,0.0,0.0,0.0,0.0,0.0,2.2383,2.4537,2.6681,2.7898,2.8463,2.8336,2.7178,2.4958,2.1657,0.0,0.0,0.0,0.0,0.0,0.0,0.0,0.0,0.0,0.0,0.0,0.0,0.0,0.0,0.0,0.0,0.0,0.0,0.0,0.0,0.0,0.0,0.0,0.0,0.0,0.0,0.0,0.0,0.0,0.0,0.0,0.0,0.0,0.0,0.0,0.0,0.0,0.0,1.3374,1.5008,0.0,0.0,0.0,0.0,0.0,0.0,0.0,0.0,1.5109,0.0,0.0,0.0,0.0,0.0,0.0,0.0,0.0,0.0,0.0,0.0,0.0,0.0,0.0,0.0,0.0,0.0,0.0,0.0,0.0,0.0,0.0,0.0,0.0,0.0,0.0,0.0,0.0,0.0,0.0,0.0,0.0,0.0,0.0,0.0,0.0,0.0,0.0,0.0,0.0,0.0,0.0,0.0,0.0,0.0,0.0,0.0,0.0,0.0,0.0,0.0,0.0,0.0,0.0,0.0,0.0,2.2862,2.2892,2.4328,2.737,2.8143,2.8271,2.778,2.6949,2.4964,2.1801,0.0,0.0,0.0,0.0,0.0,0.0,0.0,0.0,0.0,0.0,0.0,0.0,0.0,0.0,0.0,0.0,0.0,0.0,0.0,0.0,0.0,0.0,0.0,0.0,0.0,0.0,0.0,0.0,0.0,0.0,0.0,0.0,0.0,0.0,0.0,0.0,0.0,0.0,0.0,1.6063,1.6537,0.0,0.0,0.0,0.0,0.0,0.0,0.0,0.0,1.4246,0.0,0.0,0.0,0.0,0.0,0.0,0.0,0.0,0.0,0.0,0.0,0.0,0.0,0.0,0.0,0.0,0.0,0.0,0.0,0.0,0.0,0.0,0.0,0.0,0.0,0.0,0.0,0.0,0.0,0.0,0.0,0.0,0.0,0.0,0.0,0.0,0.0,0.0,0.0,0.0,0.0,0.0,0.0,0.0,0.0,0.0,0.0,0.0,0.0,0.0,0.0,0.0,0.0,0.0,0.0,2.2383,2.331,2.4956,2.752,2.791,2.7728,2.71,2.5728,2.38,0.0,0.0,0.0,0.0,0.0,0.0,0.0,0.0,0.0,0.0,0.0,0.0,0.0,0.0,0.0,0.0,0.0,0.0,0.0,0.0,0.0,0.0,0.0,0.0,0.0,0.0,0.0,0.0,0.0,0.0,0.0,0.0,0.0,0.0,0.0,0.0,0.0,0.0,0.0,0.0,1.649,1.693,1.7248,0.0,0.0,0.0,0.0,0.0,0.0,1.5454,1.4787,0.0,0.0,0.0,0.0,0.0,0.0,0.0,0.0,0.0,0.0,0.0,0.0,0.0,0.0,0.0,0.0,0.0,0.0,0.0,0.0,0.0,0.0,0.0,0.0,0.0,0.0,0.0,0.0,0.0,0.0,0.0,0.0,0.0,0.0,0.0,0.0,0.0,0.0,0.0,0.0,0.0,0.0,0.0,0.0,0.0,0.0,0.0,0.0,0.0,0.0,0.0,0.0,0.0,0.0,0.0,2.1605,2.349,2.5435,2.744,2.756,2.726,2.6572,2.4777,2.2832,0.0,0.0,0.0,0.0,0.0,0.0,0.0,0.0,0.0,0.0,0.0,0.0,0.0,0.0,0.0,0.0,0.0,0.0,0.0,0.0,0.0,0.0,0.0,0.0,0.0,0.0,0.0,0.0,0.0,0.0,0.0,0.0,0.0,0.0,0.0,0.0,0.0,0.0,0.0,0.0,0.0,1.7502,1.7621,1.735,0.0,0.0,0.0,0.0,1.6728,1.6323,0.0,0.0,0.0,0.0,0.0,0.0,0.0,0.0,0.0,0.0,0.0,0.0,0.0,0.0,0.0,0.0,0.0,0.0,0.0,0.0,0.0,0.0,0.0,0.0,0.0,0.0,0.0,0.0,0.0,0.0,0.0,0.0,0.0,0.0,0.0,0.0,0.0,0.0,0.0,0.0,0.0,0.0,0.0,0.0,0.0,0.0,0.0,0.0,0.0,0.0,0.0,0.0,0.0,0.0,0.0,0.0,2.1575,2.3011,2.4956,2.741,2.756,2.726,2.6602,2.5226,2.3268,0.0,0.0,0.0,0.0,0.0,0.0,0.0,0.0,0.0,0.0,0.0,0.0,0.0,0.0,0.0,0.0,0.0,0.0,0.0,0.0,0.0,0.0,0.0,0.0,0.0,0.0,0.0,0.0,0.0,0.0,0.0,0.0,0.0,0.0,0.0,0.0,0.0,0.0,0.0,0.0,0.0,1.8261,1.8642,1.7529,1.7084,0.0,0.0,1.6784,1.7844,1.7541,0.0,0.0,0.0,0.0,0.0,0.0,0.0,0.0,0.0,0.0,0.0,0.0,0.0,0.0,0.0,0.0,0.0,0.0,0.0,0.0,0.0,0.0,0.0,0.0,0.0,0.0,0.0,0.0,0.0,0.0,0.0,0.0,0.0,0.0,0.0,0.0,0.0,0.0,0.0,0.0,0.0,0.0,0.0,0.0,0.0,0.0,0.0,0.0,0.0,0.0,0.0,0.0,0.0,0.0,0.0,1.8463,2.1635,2.3699,2.5674,2.752,2.756,2.7081,2.6033,2.4418,2.2293,0.0,0.0,0.0,0.0,0.0,0.0,0.0,0.0,0.0,0.0,0.0,0.0,0.0,0.0,0.0,0.0,0.0,0.0,0.0,0.0,0.0,0.0,0.0,0.0,0.0,0.0,0.0,0.0,0.0,0.0,0.0,0.0,0.0,0.0,0.0,0.0,0.0,0.0,0.0,0.0,0.0,0.0,1.9003,1.8662,0.0,0.0,0.0,1.8338,1.9476,0.0,0.0,0.0,0.0,0.0,0.0,0.0,0.0,0.0,0.0,0.0,0.0,0.0,0.0,0.0,0.0,0.0,0.0,0.0,0.0,0.0,0.0,0.0,0.0,0.0,0.0,0.0,0.0,0.0,0.0,0.0,0.0,0.0,0.0,0.0,0.0,0.0,0.0,0.0,0.0,0.0,0.0,0.0,0.0,0.0,0.0,0.0,0.0,0.0,0.0,0.0,0.0,0.0,0.0,0.0,0.0,0.0,2.1665,2.4268,2.6243,2.758,2.756,2.6961,2.5644,2.3849,0.0,0.0,0.0,0.0,0.0,0.0,0.0,0.0,0.0,0.0,0.0,0.0,0.0,0.0,0.0,0.0,0.0,0.0,0.0,0.0,0.0,0.0,0.0,0.0,0.0,0.0,0.0,0.8665,0.0,0.0,0.0,0.0,0.0,0.0,0.0,0.0,0.0,0.0,0.0,0.0,0.0,0.0,1.9255,1.9436,1.9784,1.9936,0.0,0.0,1.976,2.0636,1.9694,1.8661,0.0,0.0,0.0,0.0,0.0,0.0,0.0,0.0,0.0,0.0,0.0,0.0,0.0,0.0,0.0,0.0,0.0,0.0,0.0,0.0,0.0,0.0,0.0,0.0,0.0,0.0,0.0,0.0,0.0,0.0,0.0,0.0,0.0,0.0,0.0,0.0,0.0,0.0,0.0,0.0,0.0,0.0,0.0,0.0,0.0,0.0,0.0,0.0,0.0,0.0,0.0,0.0,0.0,0.0,0.0,2.1665,2.4268,2.6243,2.75,2.756,2.6931,2.5644,2.4268,2.2323,0.0,0.0,0.0,0.0,0.0,0.0,0.0,0.0,0.0,0.0,0.0,0.0,0.0,0.0,0.0,0.0,0.0,0.0,0.0,0.0,0.0,0.0,0.0,0.0,0.0,0.0,0.0,0.0,0.0,0.0,0.0,0.0,0.0,0.0,0.0,0.0,0.0,0.0,0.0,0.0,0.0,1.994,2.0393,2.0578,2.0819,0.0,0.0,2.0592,2.0699,2.062,1.9837,1.7789,0.0,0.0,0.0,0.0,0.0,0.0,0.0,0.0,0.0,0.0,0.0,0.0,0.0,0.0,0.0,0.0,0.0,0.0,0.0,0.0,0.0,0.0,0.0,0.0,0.0,0.0,0.0,0.0,0.0,0.0,0.0,0.0,0.0,0.0,0.0,0.0,0.0,0.0,0.0,0.0,0.0,0.0,0.0,0.0,0.0,0.0,0.0,0.0,0.0,0.0,0.0,0.0,0.0,1.8714,2.1245,2.4104,2.6243,2.75,2.756,2.7141,2.6243,2.4926,2.3011,0.0,0.0,0.0,0.0,0.0,0.0,0.0,0.0,0.0,0.0,0.0,0.0,0.0,0.0,0.0,0.0,0.0,0.0,0.0,0.0,0.0,0.0,0.0,0.0,0.0,0.0,0.0,0.0,1.1324,1.162,1.2196,0.0,0.0,0.0,0.0,0.0,0.0,0.0,0.0,0.0,0.0,2.1056,2.1616,2.1984,0.0,0.0,2.182,2.1837,2.2257,2.1059,1.9889,1.9128,1.8078,0.0,0.0,0.0,0.0,0.0,0.0,0.0,0.0,0.0,0.0,0.0,0.0,0.0,0.0,0.0,0.0,0.0,0.0,0.0,0.0,0.0,0.0,0.0,0.0,0.0,0.0,0.0,0.0,0.0,0.0,0.0,0.0,0.0,0.0,0.0,0.0,0.0,0.0,0.0,0.0,0.0,0.0,0.0,0.0,0.0,0.0,0.0,0.0,0.0,0.0,0.0,0.0,1.8943,2.1498,2.4402,2.6452,2.761,2.756,2.726,2.6602,2.5495,2.3789,0.0,0.0,0.0,0.0,0.0,0.0,0.0,0.0,0.0,0.0,0.0,0.0,0.0,0.0,0.0,0.0,0.0,0.0,0.0,0.0,0.0,0.0,0.0,0.0,0.0,0.0,0.0,0.0,1.2522,1.2772,1.3148,0.0,0.0,0.0,0.0,0.0,0.0,0.0,0.0,0.0,0.0,2.2141,2.251,2.3068,2.3251,2.2874,2.2673,2.2723,2.316,2.1878,2.0648,2.0265,0.0,0.0,0.0,0.0,0.0,0.0,0.0,0.0,0.0,0.0,0.0,0.0,0.0,0.0,0.0,0.0,0.0,0.0,0.0,0.0,0.0,0.0,0.0,0.0,0.0,0.0,0.0,0.0,0.0,0.0,1.3301,0.0,0.0,0.0,0.0,0.0,0.0,0.0,0.0,0.0,0.0,0.0,0.0,0.0,0.0,0.0,0.0,0.0,0.0,0.0,0.0,0.0,0.0,1.9952,2.2622,2.5255,2.6901,2.761,2.759,2.734,2.6632,2.5944,2.4657,2.2694,0.0,0.0,0.0,0.0,0.0,0.0,0.0,0.0,0.0,0.0,0.0,0.0,0.0,0.0,0.0,0.0,0.0,0.0,0.0,0.0,0.0,0.0,0.0,0.0,0.0,0.0,1.2379,1.2872,1.3173,0.0,0.0,0.0,0.0,0.0,0.0,0.0,0.0,0.0,0.0,2.2397,2.304,2.31,2.3627,2.4004,2.3954,2.3502,2.3125,2.3125,2.3075,2.2523,0.0,0.0,0.0,0.0,0.0,0.0,0.0,0.0,0.0,0.0,0.0,0.0,0.0,0.0,0.0,0.0,0.0,0.0,0.0,0.0,0.0,0.0,0.0,0.0,0.0,0.0,0.0,1.8765,1.8025,0.0,0.0,0.0,0.0,0.0,0.0,0.0,0.0,0.0,0.0,0.0,2.4433,2.5901,0.0,0.0,0.0,0.0,0.0,0.0,0.0,0.0,0.0,0.0,0.0,0.0,2.004,2.2892,2.5789,2.756,2.8218,2.8248,2.7949,2.726,2.6602,2.4926,2.2113,0.0,0.0,0.0,0.0,0.0,0.0,0.0,0.0,0.0,0.0,0.0,0.0,0.0,0.0,0.0,0.0,0.0,0.0,0.0,0.0,0.0,0.0,0.0,0.0,0.0,1.2722,0.0,0.0,0.0,0.0,0.0,0.0,0.0,0.0,0.0,0.0,0.0,2.0941,2.2397,2.3552,2.4255,2.4255,2.5034,2.5385,0.0,0.0,0.0,0.0,0.0,0.0,0.0,0.0,0.0,0.0,0.0,0.0,0.0,0.0,2.2465,2.0305,1.9405,1.8858,1.8407,0.0,0.0,0.0,0.0,0.0,0.0,0.0,0.0,0.0,0.0,0.0,0.0,0.0,0.0,2.181,0.0,2.0184,0.0,0.0,0.0,0.0,0.0,0.0,0.0,0.0,2.602,2.7031,2.6834,2.8268,2.8183,0.0,2.6889,2.5207,0.0,0.0,0.0,0.0,0.0,0.0,0.0,0.0,2.1097,2.3862,2.6772,2.8539,2.8906,2.8727,2.8397,2.7919,2.7051,2.5465,2.3131,2.1335,1.9779,0.0,0.0,0.0,0.0,0.0,0.0,0.0,0.0,0.0,0.0,0.0,0.0,0.0,0.0,0.0,0.0,0.0,0.0,0.0,0.0,0.0,0.0,0.0,1.381,0.0,0.0,0.0,0.0,0.0,0.0,0.0,0.0,0.0,1.9962,2.1518,2.3125,2.4406,2.5209,2.5686,2.5686,0.0,0.0,0.0,0.0,0.0,0.0,0.0,2.423,2.4757,2.4556,2.424,2.3976,2.4402,2.4351,2.2957,0.0,0.0,2.1981,2.1091,2.0546,2.0138,2.008,2.0039,1.992,2.0074,2.0245,0.0,0.0,0.0,0.0,0.0,0.0,0.0,0.0,2.4691,2.4547,0.0,2.3763,0.0,0.0,0.0,0.0,0.0,2.2583,0.0,0.0,2.8532,2.9548,2.9706,3.0281,3.0254,2.9827,3.1189,3.0573,2.7826,2.2609,0.0,0.0,0.0,0.0,0.0,0.0,2.3161,2.5517,2.8231,2.9594,2.9594,2.8996,2.8637,2.8547,2.735,2.6333,2.5615,2.4298,2.2473,1.9959,1.8459,0.0,0.0,0.0,0.0,0.0,0.0,0.0,0.0,0.0,0.0,0.0,0.0,0.0,0.0,0.0,0.0,0.0,0.0,0.0,0.0,1.4262,0.0,0.0,0.0,0.0,0.0,0.0,0.0,0.0,0.0,0.0,2.3401,2.4205,2.5485,2.7067,0.0,0.0,0.0,0.0,2.681,2.7218,2.6866,2.6716,2.7218,2.7243,2.7067,2.659,0.0,0.0,2.4237,2.4323,2.4193,2.2366,2.3522,2.4478,2.3461,2.2789,2.2223,2.1816,2.1031,2.0823,2.1905,2.1808,2.1954,2.8964,0.0,0.0,0.0,0.0,2.6961,2.7575,2.8718,2.9002,2.8287,2.6778,2.6411,0.0,0.0,0.0,0.0,0.0,0.0,2.6312,2.7482,2.9376,3.0185,3.013,3.069,3.0663,3.0104,3.0546,3.0228,2.9149,2.6647,2.3578,2.0118,0.0,0.0,0.0,0.0,2.4469,2.6759,2.9064,3.0223,3.0253,3.0073,2.9535,2.8637,2.8218,2.75,2.6363,2.5495,2.4477,2.3221,2.0215,0.0,0.0,0.0,0.0,0.0,0.0,0.0,0.0,0.0,0.0,0.0,0.0,0.0,0.0,0.0,0.0,0.0,0.0,0.0,1.4312,1.504,1.5944,0.0,0.0,0.0,0.0,0.0,0.0,0.0,0.0,0.0,2.6565,2.6615,2.6892,0.0,0.0,2.7871,2.7871,2.8072,2.8147,2.7896,2.8072,0.0,2.7896,2.7544,2.7254,2.7087,2.6995,2.6428,2.4767,2.4634,2.4388,2.2972,2.3237,2.3503,2.3293,2.371,2.3677,2.304,2.2559,2.2278,2.2068,2.197,2.197,3.2485,3.1287,2.9693,2.9471,3.024,2.9751,3.0241,3.121,3.1108,3.042,2.9423,2.905,2.7809,2.5818,2.5088,0.0,0.0,0.0,2.8004,2.8866,2.9881,3.0204,3.0054,3.0465,3.0439,3.0054,3.0446,3.0512,3.0281,2.9262,2.713,2.3876,0.0,0.0,2.1694,2.3905,2.5931,2.7742,2.9723,3.0749,3.0749,3.0592,2.9894,2.8667,2.8607,2.8068,2.7021,2.6363,2.5704,2.5016,2.2271,1.9992,0.0,0.0,0.0,0.0,0.0,0.0,0.0,0.0,0.0,0.0,0.0,1.263,1.0897,0.0,0.0,0.0,1.4375,1.5894,1.6748,1.7928,0.0,0.0,0.0,0.0,0.0,0.0,0.0,2.5285,2.6515,2.7544,2.8323,2.8348,2.8398,2.8725,2.8574,2.8499,2.875,0.0,2.8875,2.8775,2.9051,2.9151,2.8825,2.8102,2.7475,2.7041,2.6341,2.563,2.4957,2.4467,2.3887,2.3299,2.3144,2.3144,2.3144,2.3676,2.3969,2.3391,2.3225,2.2996,2.2467,2.2383,2.2383,3.4951,3.4751,3.2692,3.2064,3.2365,3.1863,3.1938,3.2365,3.1888,3.1587,3.1537,3.1512,3.0633,2.9076,2.8072,0.0,2.9126,2.9126,2.9654,3.0658,3.0105,2.9854,2.9854,2.9804,2.9779,2.9804,3.0696,3.1119,3.1066,3.0592,2.9539,2.8,2.564,2.4836,2.5625,2.6553,2.7525,2.8607,3.0202,3.106,3.1065,3.0748,2.9983,2.8727,2.8667,2.8308,2.758,2.6901,2.6303,2.5615,2.4283,2.2182,1.9296,0.0,0.0,0.0,0.0,0.0,0.0,0.0,0.0,0.0,0.0,0.0,0.0,0.0,0.0,0.0,1.8003,0.0,2.0012,2.192,0.0,0.0,0.0,2.3627,2.4431,2.5812,2.6836,2.6841,0.0,0.0,2.9202,2.9578,2.9905,2.9905,2.9402,2.9202,2.9729,2.9327,2.9176,2.9654,2.9677,2.9624,2.9422,2.8409,2.7301,2.6393,2.5378,2.4702,2.4532,2.3887,2.3125,2.3144,2.3144,2.3144,2.3144,2.3193,2.3144,2.3086,2.3105,2.3105,2.3086,2.3066,2.3066,3.6985,3.6558,3.6031,3.5152,3.4123,3.3997,3.3997,3.4123,3.3997,3.3445,3.2667,3.2667,3.1989,3.0809,3.0532,3.0557,3.0809,3.0809,3.0934,3.116,3.0658,3.0432,3.0407,3.0005,2.9779,2.9779,2.9985,3.0139,3.0139,3.0012,2.9757,2.9351,2.8747,2.7465,2.5709,2.7259,2.8433,2.9171,3.0174,3.0844,3.1065,3.1191,3.0672,2.9385,2.9355,2.8547,2.6901,2.6662,2.6273,2.5615,2.3968,2.2496,2.1198,1.8444,0.0,0.0,0.0,0.0,0.0,0.0,0.0,0.0,0.0,1.7275,1.4148,0.0,1.8807,0.0,2.0238,2.1744,2.2297,2.2765,0.0,0.0,2.5285,2.6088,2.8725,2.9026,2.9302,3.0131,3.0683,3.0959,3.0834,3.0934,3.1009,3.0984,3.0181,2.9628,2.9779,2.9679,2.9628,2.9677,2.9028,2.8505,2.8347,2.6849,2.5525,2.521,2.4296,2.356,2.356,2.3299,2.3144,2.3144,2.3144,2.3144,2.3144,2.3144,2.3144,2.3144,2.3144,2.3144,2.3144,2.3144,2.3144,3.7839,3.7563,3.7538,3.701,3.6132,3.5403,3.5077,3.5077,3.4826,3.4374,3.3796,3.3545,3.3093,3.2491,3.224,3.2139,3.2139,3.1888,3.1763,3.1738,3.121,3.0959,3.0934,3.0407,3.0156,3.0156,2.9905,2.9779,2.9779,2.9779,2.9779,2.9779,2.9779,2.9001,2.7544,2.8554,2.9207,2.9615,3.0122,3.0569,3.0853,3.0802,3.0276,2.94,2.9454,2.8734,2.7111,2.732,2.7051,2.6063,2.4815,2.3508,2.2269,2.0025,1.8296,0.0,0.0,0.0,0.0,0.0,0.0,0.0,0.0,0.0,0.0,0.0,2.1267,2.1242,2.3226,2.4757,2.5285,2.6214,2.7318,2.8524,2.8373,2.8925,3.0783,3.0683,3.0733,3.1311,3.1386,3.1386,3.1386,3.1386,3.1198,3.0704,3.0106,2.9665,2.9395,2.9199,2.887,2.8371,2.7787,2.7197,2.6685,2.5608,2.4617,2.4125,2.3541,2.3144,2.3144,2.3144,2.3144,2.3144,2.3144,2.3144,2.3144,2.3144,2.3144,2.3144,2.3144,2.3144,2.3144,2.3144,2.3144,3.8191,3.8115,3.8115,3.8065,3.7889,3.6458,3.583,3.5705,3.5177,3.4901,3.4801,3.4248,3.3997,3.3972,3.3495,3.3244,3.3144,3.2667,3.239,3.229,3.1738,3.1486,3.1486,3.0959,3.0708,3.0683,3.0156,2.9905,2.9905,2.9829,2.9779,2.9779,2.9779,2.9779,2.9779,2.9779,2.9779,2.9779,3.0051,3.0272,3.0528,3.0129,2.9636,2.9075,2.9111,2.8539,2.7343,2.7869,2.7602,2.6337,2.5804,2.4684,2.2898,2.178,2.0609,0.0,1.8781,0.0,0.0,0.0,0.0,0.0,0.0,0.0,0.0,2.329,2.4054,2.4481,2.6515,2.7996,2.8473,3.0256,3.1386,3.1386,3.1461,3.1486,3.1486,3.1562,3.1612,3.1587,3.1612,3.1612,3.1637,3.1612,3.1174,3.0169,2.9904,2.9474,2.8714,2.8351,2.7801,2.6745,2.6496,2.6165,2.5126,2.4784,2.4415,2.3418,2.332,2.3213,2.334,2.334,2.332,2.334,2.3359,2.334,2.3301,2.332,2.332,2.3359,2.3379,2.332,2.3184,2.3144,2.3144,3.912,3.8718,3.8693,3.8442,3.799,3.7663,3.7287,3.6835,3.6282,3.5805,3.5353,3.4801,3.4575,3.455,3.4449,3.4148,3.3746,3.3621,3.3345,3.2893,3.2315,3.2064,3.2014,3.1486,3.1235,3.121,3.0708,3.0457,3.0457,3.0005,2.9779,2.9779,2.9779,2.9779,2.9779,0.0,0.0,0.0,3.0077,3.0197,3.0281,3.0418,2.9986,2.8899,2.8463,0.0,2.5743,2.5798,2.5464,2.4713,2.4966,0.0,0.0,0.0,0.0,0.0,0.0,0.0,0.0,0.0,0.0,0.0,2.4054,2.3602,2.3728,2.6239,2.7695,2.7419,2.9327,3.0658,3.0758,3.1135,3.1386,3.1386,3.1788,3.2064,3.2089,3.2466,3.2742,3.2767,3.2742,3.2742,3.2692,3.2767,3.229,3.093,3.047,2.9468,2.7518,2.7568,2.7626,2.7453,2.6628,2.5597,2.4226,2.4267,2.4326,2.3809,2.3965,2.4121,2.4141,2.4141,2.416,2.4141,2.418,2.416,2.416,2.418,2.4121,2.416,2.416,2.3965,2.3301,2.3144,2.3144,3.9521,0.0,3.927,3.9094,0.0,3.8542,3.8266,3.7965,3.7136,3.6458,3.5906,3.5378,3.5127,3.5127,3.4851,3.4575,3.4299,3.4324,3.3997,3.347,3.3194,3.2893,3.2616,3.2064,3.1813,3.1763,3.126,3.1009,3.0984,3.0457,3.0206,3.0181,2.993,2.9779,2.9779,2.9779,2.9779,2.9779,2.9935,2.9982,2.9956,2.9855,2.9521,2.8986,2.8502,0.0,0.0,0.0,0.0,0.0,0.0,0.0,0.0,0.0,0.0,2.3991,2.3929,2.418,2.4707,2.4757,2.5485,2.7092,2.7519,2.7318,2.649,2.8473,2.9754,2.9754,3.1009,3.1788,3.1813,3.2064,3.2215,3.224,3.2466,3.2641,3.2667,3.2893,3.3068,3.3093,3.3093,3.2896,3.2239,3.2152,3.14,2.9761,2.9194,2.8401,2.6806,2.6613,2.6797,2.6172,2.5653,2.4957,2.4342,2.4258,2.4375,2.418,2.4277,2.4394,2.4414,2.4414,2.4414,2.4414,2.4414,2.4414,2.4414,2.4414,2.4414,2.4414,2.4414,2.4021,2.3104,2.33,2.3769,3.9697,3.9697,3.9697,3.9697,3.9647,3.922,3.8969,3.8793,0.0,0.0,0.0,3.6031,3.578,3.568,3.5203,3.4951,3.4876,3.4876,3.4575,3.4048,3.4048,3.3746,3.3219,3.2742,3.2466,3.234,3.1788,3.1537,3.1512,3.1009,3.0708,3.0583,3.0156,2.9905,2.9804,2.9779,2.9779,2.9779,2.9779,2.9779,2.9779,2.9327,2.9098,2.9165,2.8708,2.8211,2.7732,2.7832,2.7336,2.6331,2.6297,2.6294,2.6063,2.6129,2.6514,2.7213,2.7369,2.767,2.8197,2.8247,2.8524,2.9176,3.008,3.0231,2.9277,3.0256,3.106,3.1486,3.2039,3.2416,3.2516,3.2943,3.3269,3.3345,3.337,3.337,3.337,3.337,3.342,3.337,3.342,3.2909,3.1735,3.1556,3.0582,2.8473,2.8063,2.7311,2.615,2.6027,2.5819,2.5099,2.4952,2.4668,2.4551,2.4648,2.4609,2.457,2.4609,2.4648,2.4648,2.4648,2.4648,2.4727,2.4648,2.4687,2.4668,2.4707,2.4555,2.4349,2.4462,2.4162,2.2804,2.3296,2.4011,3.9697,3.9697,3.9697,3.9697,3.9697,3.9622,3.932,3.8818,3.8165,3.7588,3.7061,3.6985,3.6684,3.6257,3.6157,3.5881,3.5429,3.5429,3.5127,3.4625,3.46,3.4324,3.3796,3.3696,3.342,3.2943,3.2365,3.2114,3.2039,3.1537,3.106,3.0658,3.0532,3.0256,2.9829,2.9779,2.9779,2.9779,2.9779,2.9779,2.9779,2.9704,2.9479,2.8975,2.8419,2.7885,2.7392,2.7436,2.7316,2.7163,2.7525,2.7627,2.7107,2.7485,2.7662,2.7318,2.772,2.8222,2.8775,2.88,2.9277,3.0256,3.0532,3.0557,3.0432,3.1386,3.2014,3.2114,3.2616,3.3144,3.3596,3.3721,3.3947,3.4374,3.4474,3.45,3.4449,3.4424,3.4424,3.4399,3.45,3.3884,3.2575,3.2298,3.1247,2.918,2.8312,2.8017,2.6685,2.5957,2.5779,2.5547,2.5547,2.5391,2.5098,2.5312,2.5312,2.5039,2.5273,2.5449,2.543,2.543,2.543,2.5508,2.5353,2.5372,2.5392,2.5547,2.487,2.4133,2.4541,2.4365,2.2227,2.2624,2.3073,3.9697,3.9697,3.9697,3.9697,3.9697,3.9697,3.9546,3.9295,3.9044,3.8442,3.7663,3.7638,3.7337,3.6835,3.681,3.6508,3.5981,3.6006,3.5705,3.5177,3.5152,3.4876,3.4349,3.4048,3.3771,3.3495,3.2943,3.2667,3.2616,3.2114,3.1712,3.1486,3.1185,3.0758,3.0281,3.0231,3.0105,2.9804,2.9779,2.9779,2.9779,2.9779,2.9654,2.9402,2.885,2.8448,2.8172,2.7896,2.772,2.772,2.7971,2.8122,2.8197,2.8423,2.8574,2.8649,2.8875,2.9126,2.9377,2.9679,3.0181,3.0959,3.1311,3.1486,3.1486,3.1938,3.2466,3.3068,3.337,3.3746,3.4274,3.4349,3.4449,3.47,3.4726,3.4726,3.4726,3.4726,3.4726,3.4635,3.404,3.3095,3.1829,3.1067,3.0003,2.8166,2.7885,2.7502,2.6859,2.6562,2.625,2.584,2.5723,2.5664,2.5488,2.5586,2.5625,2.5449,2.5605,2.5723,2.5723,2.5742,2.5645,2.5625,2.5137,2.502,2.545,2.4393,2.3683,2.3899,2.3384,2.2667,2.1135,2.0538,2.0515,3.9697,3.9697,3.9697,3.9697,3.9697,3.9697,3.9697,3.9697,3.9697,3.9195,3.8442,3.8266,3.7889,3.7387,3.7236,3.696,3.6584,3.6408,3.6132,3.5755,3.573,3.5429,3.4926,3.4474,3.4223,3.4048,3.352,3.3269,3.3194,3.2692,3.234,3.2164,3.1662,3.1185,3.0809,3.0783,3.0532,3.0005,2.998,2.993,2.9804,2.9779,2.9779,2.9754,2.9352,2.9126,2.9101,2.8699,2.8499,2.8473,2.8473,2.8674,2.9101,2.9126,2.9327,2.9754,2.9905,3.003,3.0181,3.0532,3.1009,3.1537,3.1964,3.2315,3.2566,3.2591,3.2943,3.3746,3.3872,3.4148,3.4776,3.4901,3.4951,3.5052,3.5102,3.5152,3.5102,3.4803,3.4619,3.4527,3.3431,3.2199,3.0918,2.9835,2.8796,2.7736,2.7305,2.7285,2.7207,2.7168,2.6836,2.6289,2.6035,2.6055,2.6016,2.5937,2.5957,2.5996,2.5957,2.5996,2.5937,2.5857,2.5522,2.5362,2.4309,2.3925,2.4509,2.3467,2.2469,2.269,2.2502,2.1631,2.0315,1.8978,1.8443,3.9697,3.9697,3.9697,3.9697,3.9697,3.9697,3.9697,3.9697,3.9697,3.9672,3.9446,3.9019,3.8467,3.7914,3.7412,3.7186,3.7061,3.6584,3.6332,3.6282,3.6282,3.6006,3.5479,3.5403,3.5127,3.4625,3.4098,3.3822,3.3796,3.3269,3.2717,3.2215,3.1662,3.1386,3.1311,3.1336,3.106,3.0557,3.0557,3.0306,2.9829,2.9779,2.9779,2.9779,2.9729,2.9704,2.9679,2.9654,2.9628,2.9628,2.9603,2.9654,2.9704,2.9704,2.9729,2.9829,3.0281,3.0733,3.1185,3.1286,3.1562,3.2064,3.2215,3.2667,3.3483,3.3721,3.3746,3.3859,3.3859,3.4399,3.5303,3.5386,3.5444,3.5605,3.5893,3.6207,3.5824,3.5112,3.4437,3.4437,3.3099,3.1895,3.0589,3.0076,2.9517,2.8239,2.8008,2.791,2.7676,2.7598,2.748,2.7031,2.6894,2.6875,2.6797,2.6562,2.6384,2.6618,2.6462,2.6184,2.6015,2.5396,2.485,2.4427,2.3513,2.2745,2.2883,2.2421,2.1964,2.1427,2.1565,2.1857,2.0617,1.9301,1.8591,4.0174,4.0149,3.9823,3.9697,3.9697,3.9697,3.9697,3.9697,3.9697,3.9697,3.9672,3.9446,3.9044,3.8517,3.8266,3.799,3.7638,3.7111,3.6835,3.681,3.6508,3.6257,3.6006,3.568,3.5403,3.5177,3.465,3.4399,3.4299,3.3822,3.3269,3.2767,3.2491,3.2215,3.1913,3.1888,3.1612,3.1085,3.106,3.0959,3.0683,3.0105,2.9779,2.9779,2.9779,2.9779,2.9779,2.9779,2.9779,2.9779,2.9779,2.993,3.0256,3.0281,3.0407,3.0708,3.0934,3.1311,3.1838,3.1888,3.2114,3.2692,3.3018,3.3158,3.2706,3.2956,3.2971,3.277,3.3888,3.4927,3.482,3.4846,3.4631,3.4119,3.3946,3.4044,3.3946,3.3552,3.3155,3.3055,3.1927,3.0927,3.0328,2.9618,2.89,2.8388,2.8301,2.8203,2.8047,2.8047,2.7969,2.7832,2.7773,2.7519,2.7168,2.6894,2.655,2.5872,2.5591,2.5488,2.4524,2.4018,2.3368,2.3508,2.2264,2.1834,2.2503,2.1048,1.9975,2.0004,1.988,1.999,1.9456,1.8919,1.8453,3.9393,3.9404,3.9234,3.9173,3.9129,3.9569,3.9697,3.9697,3.9697,3.9697,3.9697,3.9258,3.9137,3.9094,3.8944,3.8642,3.8191,3.7663,3.7312,3.7161,3.6759,3.6508,3.6332,3.5981,3.578,3.568,3.5203,3.4876,3.47,3.4349,3.3847,3.337,3.3294,3.3018,3.2516,3.2441,3.2164,3.1662,3.1612,3.1537,3.1311,3.0633,3.0231,3.0231,3.0231,3.0231,3.0231,3.0231,3.0231,3.0231,3.0231,3.0407,3.0783,3.0834,3.0898,3.11,3.1091,3.1255,3.143,3.149,3.1758,3.2259,3.2772,3.2683,3.2089,3.2112,3.2149,3.1999,3.3478,3.427,3.3974,3.3871,3.3353,3.2431,3.2331,3.2331,3.2331,3.2028,3.1724,3.1622,3.0618,2.9702,2.9618,2.89,2.8301,2.8301,2.8301,2.8301,2.8301,2.8281,2.8281,2.8301,2.7941,2.7603,2.7357,2.671,2.6154,2.5459,2.495,2.4015,2.2889,2.2722,2.2288,2.237,2.1038,2.0472,2.1018,1.9766,1.8928,1.9584,1.9473,1.8955,1.9023,1.8744,1.8744,3.6722,3.6974,3.7746,3.7905,3.769,3.9025,3.9594,3.9362,3.9594,3.9569,3.9258,3.8137,3.8348,3.9365,3.8789,3.8868,3.8743,3.8241,3.7713,3.7312,3.7186,3.686,3.6383,3.6332,3.6307,3.6207,3.5755,3.5253,3.4776,3.461,3.4399,3.3897,3.367,3.3508,3.2971,3.2785,3.2657,3.2037,3.1938,3.1772,3.1405,3.1279,3.1148,3.1148,3.1311,3.1235,3.126,3.1286,3.1286,3.1311,3.1235,3.1311,3.1361,3.1279,3.1033,3.0515,3.0414,3.0214,2.9806,3.0054,3.0326,3.0323,3.0941,3.1105,3.1345,3.1502,3.1649,3.2141,3.2163,3.2331,3.2376,3.2443,3.2297,3.2095,3.2174,3.2095,3.2196,3.1077,3.0432,3.0287,2.9424,2.8866,2.8573,2.8388,2.8379,2.8398,2.834,2.8379,2.8418,2.8379,2.8125,2.7891,2.7187,2.6571,2.7611,2.6542,2.572,2.5002,2.3829,2.3234,2.3054,2.2783,2.2061,2.1368,2.0302,1.9759,1.9625,1.9523,1.9354,1.9543,1.9516,1.9199,1.9105,1.9265,1.9239,3.692,3.6608,3.6657,3.6561,3.6489,3.6758,3.6942,3.6834,3.6834,3.6834,3.6834,3.6271,3.6379,3.6918,3.6647,3.7637,3.9218,3.8818,3.8442,3.8216,3.7889,3.7412,3.6935,3.6885,3.6684,3.6358,3.6157,3.578,3.5119,3.4372,3.3708,3.3063,3.2229,3.174,3.153,3.1227,3.0971,3.0784,3.0571,3.0313,3.0238,3.0127,3.0127,3.0168,3.0964,3.1386,3.1386,3.1386,3.1386,3.1386,3.1386,3.1208,3.0749,3.0399,3.002,2.9759,2.9966,3.0033,2.9889,3.022,3.0415,3.0437,3.0957,3.0822,3.0421,3.0499,3.0448,3.0016,2.999,3.0113,3.0346,3.0874,3.1063,3.0367,3.0381,3.0632,3.0458,3.0154,2.9848,2.9739,2.9321,2.9101,2.9062,2.9101,2.9101,2.9121,2.9101,2.9082,2.8823,2.821,2.7233,2.6958,2.5767,2.482,2.5261,2.4954,2.4226,2.3389,2.2367,2.1662,2.1244,2.1045,2.0444,2.043,1.9577,1.9475,1.9461,1.9461,1.9372,1.9372,1.9372,1.9372,1.9359,1.9372,1.9372,3.5789,3.5478,3.5598,3.5386,3.5194,3.5447,3.5445,3.5311,3.5288,3.5288,3.5178,3.4847,3.4847,3.5178,3.4847,3.5836,3.8113,3.7879,3.7612,3.7418,3.7054,3.6517,3.6057,3.5985,3.5818,3.5332,3.5114,3.4847,3.4461,3.3526,3.2858,3.2297,3.1389,3.0815,3.0637,3.0326,3.0264,3.0197,2.9952,2.9889,2.9795,2.9795,2.9795,2.9984,3.0767,3.1027,3.0822,3.0773,3.0773,3.0773,3.0773,3.0587,3.0271,2.9806,2.9431,2.9233,2.9423,2.9406,2.9203,2.9492,2.9749,2.9771,3.0177,3.0049,2.9167,2.9434,2.9237,2.8711,2.873,2.8945,2.9341,3.0097,3.0227,2.942,2.9394,2.957,2.957,2.9682,2.9662,2.9643,2.9623,2.9551,2.957,2.957,2.9551,2.957,2.9215,2.8747,2.8596,2.7264,2.6049,2.59,2.4497,2.3584,2.3486,2.3126,2.2941,2.2116,2.1288,2.0399,1.9924,1.9591,1.9372,1.9372,1.9372,1.9372,1.9372,1.9372,1.9372,1.9372,1.9372,1.9372,1.9372,1.9372,1.9372,3.3289,3.3287,3.4308,3.447,3.4033,3.4989,3.5491,3.5046,3.498,3.4847,3.4515,3.3642,3.3754,3.4515,3.3642,3.3979,3.5068,3.5244,3.5106,3.4939,3.4764,3.4493,3.402,3.4102,3.3853,3.3379,3.2701,3.2454,3.2632,3.2387,3.1917,3.1582,3.1295,3.0723,3.063,3.0361,3.0489,3.037,3.0185,3.0281,3.066,3.0259,3.0163,3.0281,3.0385,3.0058,2.9441,2.951,2.967,2.9601,2.9601,2.9642,2.9907,2.9736,2.9458,2.8852,2.8802,2.8266,2.7337,2.7712,2.8053,2.8113,2.8239,2.8628,2.8522,2.8514,2.8604,2.8769,2.8984,2.916,2.957,3.0015,3.0207,2.9668,2.9668,2.9746,2.9687,2.9629,2.9609,2.9687,2.9726,2.9609,2.9609,2.9482,2.9408,2.8937,2.8103,2.7283,2.7186,2.5809,2.4928,2.4444,2.3395,2.2348,2.1875,2.1364,2.1334,2.1148,2.0396,1.9672,1.9604,1.9372,1.9372,1.9372,1.9372,1.9372,1.9372,1.9372,1.9372,1.9372,1.9372,1.9372,1.9372,1.9372,1.9372,3.334,3.3184,3.3386,3.3354,3.3014,3.291,3.2779,3.2636,3.235,3.2207,3.2227,3.1767,3.1883,3.2113,3.1767,3.1883,3.2207,3.2322,3.324,3.4736,3.4933,3.4556,3.4155,3.4088,3.3927,3.3458,3.2967,3.2744,3.2472,3.1511,3.0841,3.053,2.9808,2.9227,2.9147,2.8819,2.8656,2.8615,2.8329,2.8186,2.8166,2.8186,2.8186,2.8166,2.8166,2.8023,2.7877,2.9375,3.0214,3.0214,3.0309,2.9995,2.9257,2.8437,2.7843,2.7602,2.7901,2.7958,2.7604,2.7832,2.8086,2.8125,2.8242,2.8281,2.834,2.8574,2.8789,2.9004,2.9414,2.9883,3.0039,3.041,3.0449,3.0059,3.0293,3.043,3.041,3.043,3.0488,3.0488,3.0488,2.9988,2.9119,2.875,2.8327,2.7505,2.6678,2.6321,2.6083,2.4691,2.3638,2.3503,2.2074,2.1264,2.1091,2.0997,2.0911,2.0844,2.0128,1.9653,1.9546,1.9492,1.9466,1.9466,1.9452,1.9439,1.9426,1.9439,1.9479,1.9439,1.9452,1.9426,1.9386,1.9426,1.9506,3.3418,3.3398,3.3144,3.293,3.2754,3.2187,3.1894,3.1719,3.1309,3.1133,3.1113,3.0957,3.0898,3.0898,3.0898,3.0898,3.0898,3.0898,3.1883,3.3417,3.3642,3.3471,3.3061,3.287,3.2678,3.2338,3.1891,3.1785,3.1657,3.068,2.9921,2.9586,2.8945,2.8525,2.8301,2.8047,2.7891,2.7851,2.7637,2.75,2.75,2.748,2.75,2.75,2.75,2.748,2.7584,2.9063,2.9679,2.9402,2.9338,2.9027,2.839,2.7657,2.7324,2.7519,2.7715,2.791,2.793,2.8125,2.8379,2.8476,2.8516,2.8613,2.8769,2.9062,2.9199,2.9473,2.9844,3.0273,3.0469,3.0684,3.0742,3.0508,3.0684,3.0879,3.0898,3.0898,3.0879,3.0723,3.0353,2.953,2.8664,2.7692,2.7194,2.6106,2.5497,2.513,2.4731,2.3488,2.2798,2.2262,2.1589,2.1026,2.0725,2.0561,2.0521,2.0443,2.0241,1.9973,1.9853,1.9826,1.9813,1.9826,1.9826,1.984,1.984,1.98,1.98,1.9693,1.9639,1.9746,1.9813,1.9786,1.9826,3.3437,3.3418,3.3418,3.3184,3.2871,3.2754,3.25,3.2168,3.1738,3.1523,3.1426,3.1133,3.0937,3.0898,3.0898,3.0898,3.0898,3.0898,3.0995,3.1228,3.1344,3.1285,3.1321,3.1023,3.0844,3.0631,3.0122,2.9833,3.0127,2.9806,2.9375,2.9094,2.9055,2.8789,2.8535,2.8379,2.8418,2.8418,2.8379,2.834,2.8301,2.8301,2.8301,2.8281,2.8281,2.8281,2.8368,2.8542,2.8121,2.7329,2.7495,2.7673,2.7721,2.7695,2.7871,2.8164,2.8281,2.832,2.832,2.8457,2.8613,2.8906,2.8965,2.9101,2.9394,2.9531,2.9707,3.0019,3.0215,3.043,3.0762,3.0879,3.0859,3.0879,3.0879,3.0898,3.0898,3.0898,3.0762,3.0392,2.9394,2.817,2.7811,2.6591,2.5863,2.513,2.4163,2.3559,2.3186,2.2284,2.1461,2.1042,2.1088,2.1047,2.0828,2.0828,2.0788,2.0695,2.0494,2.0321,2.0134,2.008,2.0067,2.0094,2.016,2.0187,2.016,2.008,2.0054,2.0027,2.0067,2.0214,2.0187,2.008,2.0067,3.3711,3.3437,3.3418,3.3359,3.3223,3.2949,3.2754,3.2578,3.2187,3.1836,3.1562,3.1406,3.1191,3.0918,3.0898,3.0898,3.0898,3.0898,3.0898,3.0898,3.0898,3.0898,3.0898,3.0781,3.0703,3.0625,3.0254,3.0039,3.0,2.9785,2.9551,2.9414,2.9394,2.9336,2.9238,2.918,2.9238,2.9238,2.9219,2.9043,2.8789,2.875,2.875,2.875,2.875,2.875,2.875,2.875,2.8535,2.8027,2.7949,2.7988,2.8125,2.8164,2.8242,2.8359,2.8613,2.875,2.8809,2.9023,2.9277,2.9375,2.9394,2.9453,2.9551,2.9863,3.0059,3.0254,3.0469,3.0742,3.0879,3.0879,3.0898,3.0898,3.0645,3.0645,3.0762,3.0898,3.0509,2.9275,2.8545,2.7211,2.5635,2.4655,2.3807,2.2812,2.2327,2.1978,2.1839,2.1727,2.1109,2.1109,2.1056,2.1082,2.1069,2.1069,2.1056,2.1015,2.0855,2.0668,2.0441,2.0241,2.0214,2.0214,2.0334,2.0388,2.0294,2.0201,2.0241,2.0361,2.0334,2.0374,2.0294,2.0201,2.0241,3.4082,3.3711,3.3691,3.3594,3.3418,3.3164,3.3047,3.2969,3.2617,3.2305,3.2051,3.1855,3.1562,3.1172,3.1152,3.1055,3.0918,3.0898,3.0898,3.0898,3.0898,3.0898,3.0898,3.0898,3.0898,3.0859,3.0625,3.0508,3.0449,3.0234,3.0039,2.9863,2.9824,2.9746,2.9531,2.957,2.959,2.957,2.957,2.9434,2.9219,2.9199,2.9199,2.9199,2.9199,2.9199,2.9199,2.9199,2.9004,2.8691,2.8711,2.8828,2.8828,2.8828,2.8828,2.8848,2.9082,2.9199,2.9238,2.9453,2.9648,2.9785,2.9844,2.9941,3.0117,3.0371,3.0488,3.0547,3.0762,3.0859,3.0762,3.0274,2.9903,2.9648,2.9294,2.9176,2.9785,2.9785,2.9039,2.7811,2.6712,2.5879,2.3698,2.3091,2.223,2.1475,2.1348,2.1222,2.1222,2.1109,2.1109,2.1109,2.1109,2.1109,2.1109,2.1109,2.1109,2.1082,2.1056,2.0895,2.0762,2.0508,2.0561,2.0575,2.0588,2.0575,2.0535,2.0535,2.0655,2.0708,2.0615,2.0575,2.0561,2.0468,2.0494,3.4512,3.4121,3.4082,3.3848,3.3535,3.3437,3.3379,3.334,3.3008,3.2812,3.2656,3.2383,3.1992,3.1601,3.1465,3.1309,3.0976,3.0918,3.0898,3.0898,3.0898,3.0898,3.0898,3.0898,3.0898,3.0879,3.0898,3.0859,3.0801,3.0801,3.0644,3.0371,3.0273,3.0098,2.9922,2.9805,2.9726,2.9805,2.9863,2.9785,2.9668,2.9629,2.9629,2.9629,2.9629,2.9629,2.9629,2.9629,2.9453,2.9082,2.9394,2.9473,2.9512,2.9531,2.9531,2.9512,2.9551,2.9629,2.9668,2.9746,2.9902,3.0215,3.0273,3.043,3.0703,3.0801,3.0684,3.0296,3.0626,3.0274,2.9785,2.892,2.8289,2.8051,2.6953,2.6832,2.7572,2.8051,2.7554,2.5984,2.4409,2.3822,2.2952,2.2215,2.1109,2.1222,2.1109,2.1109,2.1109,2.1109,2.1109,2.1109,2.1109,2.1109,2.1109,2.1109,2.1109,2.1096,2.1096,2.1029,2.1029,2.0922,2.1002,2.1015,2.0882,2.0869,2.0935,2.0989,2.1029,2.1002,2.0869,2.0962,2.1042,2.0895,2.0855,3.498,3.4531,3.4199,3.4023,3.3887,3.3574,3.3418,3.3418,3.332,3.3086,3.2832,3.2695,3.2422,3.2012,3.1738,3.1465,3.1328,3.0957,3.0898,3.0898,3.0898,3.0898,3.0879,3.0762,3.0879,3.0898,3.0898,3.0898,3.0898,3.0879,3.084,3.0742,3.0664,3.0684,3.0586,3.0488,3.0605,3.0605,3.0586,3.0351,3.0098,3.0059,3.0078,3.0059,3.0059,3.0059,3.0059,3.0059,3.0019,2.9902,2.9726,2.9687,2.9668,2.9648,2.9668,2.9746,2.9922,3.0059,3.0117,3.0351,3.0625,3.0664,3.0684,3.0781,3.084,3.0762,3.0138,2.9394,2.892,2.8426,2.7572,2.6832,2.6591,2.6349,2.5984,2.5375,2.5024,2.5741,2.5741,2.4532,2.3683,2.3076,2.1839,2.1601,2.1109,2.1109,2.1109,2.1109,2.1109,2.1109,2.1109,2.1109,2.1109,2.0969,2.0322,2.0068,1.9801,1.9801,1.9928,2.0055,2.0068,2.0449,2.0195,2.0576,2.1082,2.1109,2.1109,2.1096,2.1069,2.1096,2.1109,2.1109,2.1109,2.1109,2.1109,3.543,3.5,3.4785,3.4551,3.4316,3.3926,3.373,3.3691,3.3496,3.3301,3.3125,3.3086,3.2851,3.2461,3.2226,3.2031,3.1498,3.0496,2.9461,2.8838,2.8545,2.9039,2.9648,2.9903,3.002,3.0645,3.0898,3.0898,3.0898,3.0898,3.0898,3.0898,3.0898,3.0859,3.0898,3.0782,3.0859,3.0859,3.0898,3.0762,3.0566,3.0527,3.0527,3.0527,3.0527,3.0527,3.0527,3.0527,3.0527,3.0469,3.0293,3.0176,3.0176,3.0176,3.0176,3.0234,3.0371,3.0508,3.0605,3.0723,3.0879,3.0898,3.0898,3.0392,3.002,2.9766,2.8902,2.7811,2.7194,2.6832,2.6089,2.513,2.5024,2.4655,2.4163,2.3311,2.2952,2.3931,2.4286,2.2952,2.2341,2.1978,2.1348,2.1109,2.0982,2.0982,2.0969,2.0969,2.1109,2.1109,2.1109,2.1109,2.1109,2.0716,1.9674,1.8896,1.8116,1.7859,1.7859,1.7859,1.7859,1.85,1.9024,1.9674,2.0449,2.1096,2.1109,2.1109,2.0843,2.0982,2.0982,2.1109,2.0969,2.0716,2.0843,3.582,3.5488,3.541,3.5156,3.4766,3.4355,3.4121,3.4004,3.3417,3.2842,3.2892,3.2765,3.1865,3.2017,3.174,3.1637,3.087,2.9678,2.7974,2.6929,2.6638,2.7228,2.7935,2.8241,2.8545,3.0157,3.0274,3.0274,2.9903,3.0138,2.953,3.002,3.002,2.9648,2.9903,3.0157,2.9785,2.9648,2.9648,2.9648,2.9728,2.9728,2.9846,3.0217,3.0704,3.082,3.082,3.082,3.0743,3.0528,3.0762,3.0762,3.0645,3.0879,3.0898,3.0859,3.082,3.0568,3.0179,3.0236,3.0274,3.0274,3.0039,2.9412,2.8426,2.7931,2.7194,2.6106,2.5375,2.5008,2.513,2.4039,2.3325,2.3076,2.1839,2.1222,2.1348,2.2341,2.2341,2.1727,2.1475,2.1348,2.1222,2.1109,2.0982,2.0716,2.0716,2.0589,2.0589,2.0335,1.9928,1.9546,1.9152,1.9024,1.8116,1.7731,1.6818,1.6431,1.6172,1.6172,1.6172,1.6947,1.7859,1.8896,1.9674,1.9928,1.9801,1.9291,1.9419,2.0335,2.0068,1.9152,1.9419,2.0195,2.0195,3.5976,3.5879,3.5547,3.5332,3.5215,3.4785,3.4264,3.3824,3.2264,3.1486,3.1083,2.9735,2.9309,2.9059,2.851,2.8205,2.8077,2.7403,2.6942,2.6275,2.608,2.6306,2.6504,2.66,2.6675,2.7073,2.7984,2.8157,2.7331,2.6832,2.7452,2.6953,2.7073,2.7073,2.7194,2.6832,2.7331,2.7434,2.7452,2.7331,2.7331,2.7314,2.7811,2.8801,2.9766,3.0392,3.0645,3.0645,3.0274,2.9157,3.0157,2.9903,2.9412,2.9903,3.0528,3.0645,3.0411,2.9903,2.9039,2.8783,2.8051,2.7211,2.7091,2.697,2.647,2.6382,2.5594,2.4255,2.3024,2.2118,2.1964,2.2062,2.1754,2.1502,2.1416,2.1176,2.1289,2.1303,2.1429,2.0834,2.0922,2.0843,2.0576,2.0195,1.9546,1.9152,1.8896,1.85,1.7988,1.7602,1.7205,1.6947,1.656,1.656,1.6302,1.6172,1.5654,1.5394,1.5135,1.5135,1.5265,1.5784,1.656,1.6689,1.7076,1.7334,1.7205,1.7345,1.7474,1.7988,1.7474,1.6947,1.7602,1.8244,1.7602,3.6035,3.586,3.4812,3.4308,3.3942,3.272,3.2043,3.1675,3.0484,2.9808,2.9487,2.8659,2.8163,2.813,2.8015,2.7198,2.6163,2.5955,2.5344,2.466,2.4238,2.4659,2.528,2.5235,2.5203,2.5313,2.5923,2.6298,2.6017,2.6106,2.5879,2.6106,2.5984,2.5984,2.5984,2.6106,2.5984,2.5984,2.5863,2.5863,2.5984,2.5984,2.6591,2.7194,2.7811,2.8307,2.8426,2.8426,2.8051,2.7452,2.7949,2.7811,2.7692,2.7949,2.8801,2.9294,2.892,2.8188,2.7314,2.7194,2.6832,2.6227,2.5984,2.5497,2.5071,2.4688,2.4234,2.3006,2.2323,2.1563,2.1719,2.1537,2.1563,2.1563,2.155,2.1537,2.1278,2.0618,2.0333,2.0011,1.9591,1.9365,1.9407,1.8768,1.7988,1.7602,1.7227,1.6462,1.5704,1.5424,1.5183,1.5135,1.5005,1.4614,1.4493,1.4101,1.4101,1.397,1.384,1.384,1.3709,1.384,1.3456,1.3193,1.3709,1.5135,1.5913,1.6431,1.6043,1.5784,1.5913,1.5913,1.6043,1.5913,1.5524,3.5451,3.5314,3.3448,3.2595,3.2263,3.0713,2.9831,2.9527,2.8777,2.8212,2.8083,2.7407,2.7115,2.7067,2.6855,2.6152,2.4731,2.4613,2.3833,2.2882,2.2495,2.2967,2.3608,2.3927,2.3839,2.391,2.3925,2.4389,2.4671,2.4813,2.5091,2.4796,2.4996,2.5056,2.4778,2.4517,2.5008,2.5008,2.5008,2.5008,2.5008,2.5375,2.5497,2.5619,2.5863,2.6227,2.647,2.647,2.6106,2.5863,2.5863,2.5984,2.5619,2.5562,2.6222,2.7056,2.6503,2.5984,2.5513,2.561,2.5413,2.4688,2.5075,2.4377,2.3828,2.3432,2.3107,2.2187,2.1964,2.1924,2.1897,2.1951,2.1951,2.1937,2.1937,2.1701,2.0976,2.0145,1.917,1.8645,1.8165,1.7848,1.7729,1.7729,1.6986,1.5932,1.5555,1.4883,1.4086,1.398,1.3813,1.3875,1.3578,1.2931,1.2545,1.2025,1.2025,1.2025,1.2025,1.2025,1.163,1.124,1.1108,1.1505,1.2413,1.3709,1.4623,1.4884,1.4101,1.384,1.4493,1.4623,1.397,1.384,1.3709,3.3586,3.3309,3.1456,3.0593,3.0593,3.0102,2.9921,2.9379,2.7709,2.6964,2.6553,2.4901,2.4219,2.4122,2.3899,2.3515,2.3338,2.3297,2.312,2.2619,2.2458,2.2499,2.2712,2.2349,2.2613,2.2759,2.2572,2.2345,2.2874,2.299,2.2591,2.2538,2.2596,2.2143,2.2482,2.2609,2.1727,2.174,2.1866,2.1853,2.2215,2.3201,2.3807,2.4178,2.4901,2.5513,2.5423,2.5317,2.5087,2.4131,2.5178,2.5162,2.4224,2.4109,2.4215,2.4766,2.5107,2.5391,2.4285,2.4109,2.3739,2.3035,2.2678,2.247,2.2497,2.2511,2.2345,2.2082,2.2017,2.2071,2.2098,2.1899,2.2004,2.178,2.1434,2.073,1.9893,1.8676,1.7695,1.6712,1.5885,1.5991,1.5991,1.6116,1.5971,1.4891,1.3806,1.3246,1.2663,1.2696,1.2633,1.2578,1.2539,1.2014,1.1836,1.1038,1.0877,1.0738,1.0724,1.0724,1.0717,1.0717,1.0717,1.1108,1.1894,1.2025,1.2413,1.2413,1.1637,1.1894,1.2676,1.2157,1.124,1.1372,1.2025,3.0965,3.1606,2.9568,2.8772,2.8629,2.7635,2.6982,2.6691,2.5798,2.5383,2.5072,2.4113,2.3487,2.3313,2.3006,2.2859,2.2859,2.2873,2.2859,2.2859,2.2726,2.2659,2.2645,2.2552,2.2485,2.2445,2.2472,2.2647,2.2405,2.2138,2.1897,2.183,2.1804,2.1881,2.155,2.159,2.1617,2.1706,2.1585,2.1283,2.1276,2.1727,2.223,2.223,2.2966,2.3414,2.3673,2.3466,2.3315,2.2808,2.3476,2.349,2.2879,2.2734,2.2933,2.2919,2.3321,2.3377,2.2907,2.2877,2.2544,2.2195,2.1937,2.2149,2.2164,2.2231,2.2325,2.2485,2.2485,2.2472,2.2176,2.1513,2.1107,2.0811,2.0183,1.9243,1.815,1.6945,1.5746,1.4754,1.3899,1.4136,1.4077,1.3855,1.3813,1.3247,1.2681,1.2253,1.1819,1.1769,1.1589,1.1424,1.1396,1.124,1.1184,1.0873,1.0806,1.0785,1.0731,1.0731,1.0724,1.0717,1.0717,1.0717,1.1108,1.1108,1.0717,1.085,1.1115,1.0982,1.0717,1.0717,1.0717,1.085,1.124,2.8447,2.9345,2.7643,2.691,2.675,2.5239,2.4623,2.4596,2.4409,2.4315,2.4235,2.4008,2.3714,2.346,2.3233,2.3113,2.2993,2.2979,2.2913,2.2886,2.2859,2.2846,2.2819,2.2819,2.2819,2.2859,2.2779,2.2779,2.2686,2.2472,2.2218,2.2098,2.2098,2.2017,2.1977,2.1924,2.1911,2.1884,2.1737,2.1563,2.1416,2.1363,2.1491,2.1477,2.1349,2.143,2.1617,2.1787,2.1921,2.2015,2.2173,2.2277,2.2173,2.2268,2.2335,2.2376,2.264,2.259,2.243,2.243,2.2111,2.2111,2.2205,2.2365,2.2485,2.2539,2.2579,2.2779,2.2792,2.2669,2.2009,2.0731,2.013,1.9277,1.8315,1.7368,1.6545,1.553,1.4514,1.335,1.2641,1.2258,1.2186,1.1797,1.1601,1.1434,1.1267,1.1253,1.1233,1.1226,1.1179,1.1145,1.1111,1.1084,1.1043,1.0982,1.0907,1.0853,1.0806,1.0785,1.0806,1.0758,1.0717,1.0717,1.0744,1.0717,1.0717,1.0717,1.0717,1.0717,1.0717,1.0717,1.0717,1.0717,1.0717,2.6216,2.6303,2.558,2.5337,2.531,2.4756,2.4636,2.4636,2.4609,2.4583,2.4529,2.4289,2.3981,2.3768,2.3647,2.3487,2.3287,2.3287,2.3166,2.2993,2.2873,2.2939,2.2939,2.2926,2.2886,2.2859,2.2859,2.2859,2.2846,2.2766,2.2565,2.2432,2.2392,2.2218,2.2138,2.2138,2.2084,2.2071,2.1977,2.1937,2.1857,2.1844,2.1844,2.1857,2.1897,2.1937,2.1964,2.1951,2.2017,2.2084,2.2124,2.2111,2.2178,2.2298,2.2378,2.2418,2.2619,2.2712,2.2712,2.2525,2.2405,2.2458,2.2565,2.2699,2.2739,2.2806,2.2859,2.2873,2.2625,2.1936,2.1069,1.9924,1.8628,1.7662,1.6567,1.5712,1.4997,1.4677,1.3507,1.2194,1.177,1.1653,1.1613,1.1497,1.1463,1.1443,1.145,1.143,1.1396,1.1369,1.1301,1.1253,1.1206,1.1179,1.1165,1.1118,1.1084,1.1029,1.0968,1.0941,1.0941,1.0867,1.0819,1.0812,1.0839,1.0778,1.0738,1.0778,1.0785,1.0738,1.0717,1.0717,1.0717,1.0717,1.0717,2.6226,2.6186,2.5785,2.5411,2.5064,2.477,2.4636,2.4636,2.4636,2.4636,2.4623,2.4342,2.4142,2.4022,2.3821,2.3714,2.3607,2.3594,2.35,2.346,2.342,2.3313,2.3233,2.3113,2.3073,2.2926,2.2886,2.2859,2.2859,2.2926,2.2832,2.2712,2.2726,2.2645,2.2552,2.2458,2.2392,2.2271,2.2231,2.2191,2.1991,2.1991,2.1991,2.1991,2.1991,2.2098,2.2205,2.2245,2.2352,2.2458,2.2498,2.2485,2.2472,2.2619,2.2686,2.2726,2.2979,2.3126,2.31,2.2886,2.2699,2.2699,2.2792,2.2886,2.2789,2.2886,2.2873,2.2625,2.1773,2.0718,2.045,1.8286,1.6383,1.5641,1.4899,1.4019,1.3574,1.3405,1.3084,1.206,1.1735,1.1721,1.1674,1.1606,1.1599,1.1599,1.1606,1.1599,1.1545,1.1504,1.1436,1.1402,1.1369,1.1335,1.1314,1.1294,1.1274,1.1206,1.1138,1.1104,1.1084,1.107,1.1029,1.0995,1.0968,1.0962,1.0941,1.09,1.0853,1.0785,1.0744,1.0717,1.0717,1.0738,1.0772,2.64,2.636,2.6079,2.5665,2.5197,2.489,2.4716,2.4636,2.4636,2.4636,2.4623,2.4409,2.4329,2.4262,2.4155,2.3968,2.3928,2.3888,2.3834,2.3768,2.3688,2.3634,2.3527,2.3434,2.3367,2.3153,2.314,2.3166,2.3193,2.314,2.3166,2.318,2.3126,2.3073,2.2832,2.2846,2.2752,2.2605,2.2525,2.2472,2.2271,2.2271,2.2285,2.2298,2.2311,2.2378,2.2512,2.2565,2.2632,2.2752,2.2819,2.2832,2.2886,2.2939,2.2993,2.31,2.326,2.3447,2.3394,2.33,2.314,2.318,2.318,2.2889,2.2406,2.2267,2.1785,2.0919,2.0048,1.9404,1.8986,1.6477,1.4776,1.4163,1.3443,1.2712,1.2719,1.2557,1.2381,1.1918,1.1884,1.187,1.185,1.1796,1.1708,1.1681,1.1619,1.1619,1.1599,1.1572,1.1572,1.1558,1.1552,1.1518,1.1484,1.145,1.1423,1.1396,1.1328,1.1253,1.1233,1.1219,1.1179,1.1104,1.1097,1.1145,1.1118,1.1043,1.0934,1.0826,1.0812,1.0812,1.0846,1.0873,1.0907,2.64,2.636,2.6079,2.5798,2.5478,2.5197,2.4917,2.469,2.4649,2.4636,2.4636,2.4583,2.4583,2.4569,2.4489,2.4369,2.4222,2.4182,2.4102,2.3941,2.3941,2.3834,2.3768,2.3741,2.3701,2.3741,2.3647,2.3594,2.3661,2.3594,2.3634,2.3647,2.3554,2.342,2.2926,2.2873,2.2873,2.2873,2.2886,2.2873,2.2806,2.2779,2.2779,2.2699,2.2686,2.2726,2.2832,2.2859,2.2926,2.302,2.3033,2.3033,2.3033,2.322,2.33,2.334,2.3594,2.3754,2.3768,2.3754,2.3728,2.3492,2.3258,2.2563,2.1186,2.0624,2.0123,1.9184,1.801,1.7019,1.5865,1.4859,1.3721,1.3013,1.2435,1.2149,1.2155,1.2162,1.2142,1.2081,1.206,1.2054,1.2047,1.1999,1.1864,1.1769,1.166,1.1626,1.1633,1.1619,1.1619,1.1619,1.1619,1.1599,1.1558,1.1586,1.1579,1.1552,1.1504,1.1423,1.1362,1.1328,1.1274,1.1206,1.124,1.1307,1.1246,1.1165,1.1063,1.0982,1.0955,1.0955,1.0982,1.1002,1.1023,2.64,2.6386,2.6279,2.6066,2.5785,2.5491,2.5197,2.493,2.473,2.4636,2.4636,2.4636,2.4636,2.4636,2.4623,2.4569,2.4502,2.4489,2.4382,2.4342,2.4302,2.4209,2.4115,2.4035,2.3968,2.3821,2.3781,2.3821,2.3754,2.3834,2.3794,2.3768,2.3848,2.3674,2.3527,2.346,2.3474,2.3474,2.3447,2.338,2.3193,2.3166,2.3086,2.2913,2.2913,2.2993,2.3153,2.3166,2.3233,2.3367,2.338,2.3394,2.3407,2.3581,2.3607,2.3674,2.3901,2.4155,2.4275,2.4315,2.4128,2.351,2.265,2.1618,2.0694,1.9369,1.8487,1.7526,1.6453,1.5598,1.5176,1.3809,1.2963,1.2824,1.2386,1.2379,1.2386,1.2379,1.2359,1.2264,1.221,1.2149,1.2121,1.2149,1.2047,1.1952,1.1857,1.1721,1.1687,1.1647,1.1626,1.1619,1.1619,1.1619,1.1619,1.1619,1.1619,1.1586,1.1579,1.1565,1.1504,1.1443,1.145,1.1423,1.1443,1.1463,1.1402,1.1335,1.1233,1.1158,1.1145,1.1111,1.1111,1.1118,1.1111,2.64,2.64,2.64,2.6279,2.6079,2.5785,2.5504,2.5224,2.5024,2.489,2.481,2.4796,2.473,2.4663,2.4636,2.4636,2.4636,2.4636,2.4636,2.4636,2.4623,2.4489,2.4396,2.4342,2.4275,2.4088,2.4062,2.4102,2.4128,2.4088,2.4115,2.4128,2.4062,2.4102,2.4022,2.3915,2.3728,2.3701,2.3674,2.3634,2.3514,2.346,2.3394,2.3273,2.3233,2.3287,2.342,2.3514,2.3567,2.3728,2.3794,2.3794,2.3794,2.3861,2.3901,2.3995,2.3443,2.3516,2.3349,2.2323,2.1822,2.1642,2.1096,2.0354,1.9316,1.7595,1.6545,1.5693,1.4851,1.4438,1.4037,1.2649,1.267,1.2528,1.2522,1.2515,1.2494,1.2481,1.2467,1.2379,1.2338,1.2271,1.2223,1.223,1.2223,1.2142,1.206,1.1918,1.1789,1.1755,1.1714,1.1694,1.1674,1.1674,1.1653,1.1619,1.1619,1.1619,1.1619,1.1619,1.1606,1.1545,1.1592,1.1619,1.1572,1.1545,1.1565,1.1511,1.1409,1.1362,1.1362,1.1321,1.126,1.126,1.1274,2.64,2.64,2.64,2.6386,2.6333,2.6079,2.5798,2.5531,2.5491,2.5331,2.5104,2.509,2.4983,2.4743,2.4703,2.473,2.473,2.4716,2.469,2.4663,2.4663,2.4609,2.4596,2.4569,2.4516,2.4569,2.4543,2.4436,2.4596,2.4489,2.4502,2.4556,2.4476,2.4476,2.4356,2.4168,2.3968,2.3968,2.3968,2.3901,2.3808,2.3781,2.3714,2.3634,2.3621,2.3674,2.3754,2.3794,2.3821,2.3875,2.3861,2.3848,2.3915,2.4075,2.4155,2.3679,2.2374,2.2001,2.1291,2.0091,1.9229,1.9285,2.0091,1.8734,1.7152,1.5733,1.4814,1.3938,1.3231,1.2944,1.2528,1.2556,1.2583,1.2583,1.2576,1.2562,1.2542,1.2528,1.2515,1.2481,1.2467,1.2433,1.2413,1.2413,1.2345,1.2318,1.2244,1.2203,1.2074,1.1965,1.1918,1.1837,1.1803,1.1748,1.1714,1.1667,1.1619,1.1619,1.1619,1.1619,1.1619,1.1626,1.1619,1.1619,1.1619,1.1613,1.1606,1.1606,1.1586,1.1558,1.1504,1.1484,1.1409,1.147,1.1504,2.64,2.64,2.64,2.64,2.6373,2.6293,2.6092,2.5825,2.5625,2.5451,2.5384,2.5384,2.5304,2.5264,2.5264,2.5237,2.517,2.5077,2.4983,2.4903,2.481,2.469,2.4663,2.469,2.4649,2.4649,2.4663,2.4676,2.4636,2.4636,2.4636,2.4623,2.4636,2.4636,2.4569,2.4462,2.4382,2.4329,2.4302,2.4209,2.4115,2.4075,2.3995,2.3888,2.3861,2.3928,2.4035,2.4075,2.4142,2.4315,2.4356,2.4382,2.4396,2.4316,2.4209,2.2399,2.1715,2.1153,1.9811,1.9029,1.8048,1.6852,1.7381,1.6961,1.5487,1.4361,1.3303,1.2887,1.263,1.2657,1.2684,1.2712,1.2732,1.2745,1.2739,1.2718,1.2691,1.2664,1.2637,1.2549,1.2535,1.2501,1.2501,1.2488,1.2427,1.2433,1.242,1.2386,1.2332,1.221,1.2101,1.2013,1.1945,1.1891,1.1789,1.1728,1.166,1.1619,1.1653,1.1681,1.1674,1.1674,1.1633,1.164,1.1674,1.1653,1.1613,1.1619,1.1619,1.1619,1.1579,1.1572,1.1579,1.1599,1.1619,2.64,2.64,2.64,2.64,2.64,2.6386,2.6279,2.6106,2.5932,2.5812,2.5692,2.5692,2.5625,2.5491,2.5478,2.5478,2.5464,2.5331,2.5251,2.5197,2.505,2.505,2.4997,2.497,2.5024,2.4957,2.4863,2.485,2.4783,2.4676,2.4636,2.4636,2.4636,2.4636,2.4609,2.4596,2.4609,2.4596,2.4583,2.4516,2.4436,2.4356,2.4249,2.4128,2.4088,2.4222,2.4196,2.4223,2.4342,2.4609,2.4636,2.4031,2.3413,2.2645,2.1995,2.0329,1.9323,1.8632,1.7634,1.6649,1.5772,1.5192,1.4789,1.4719,1.4335,1.3504,1.3033,1.2739,1.2786,1.2827,1.2861,1.2895,1.2922,1.2949,1.2929,1.2908,1.2868,1.2827,1.2732,1.2617,1.2562,1.2515,1.2501,1.2501,1.2501,1.2481,1.2474,1.2461,1.2433,1.2372,1.2264,1.2169,1.2094,1.2033,1.1925,1.1843,1.1816,1.1809,1.1843,1.185,1.1796,1.1796,1.183,1.1796,1.1755,1.1735,1.1721,1.164,1.1619,1.1633,1.1653,1.1633,1.1619,1.1606,1.1619,2.64,2.64,2.64,2.64,2.64,2.64,2.6386,2.64,2.6346,2.6239,2.6026,2.5985,2.5852,2.5745,2.5718,2.5692,2.5678,2.5611,2.5545,2.5531,2.5411,2.5371,2.5398,2.5491,2.5344,2.5358,2.5291,2.5104,2.5037,2.4957,2.485,2.4703,2.477,2.4823,2.4863,2.485,2.4863,2.489,2.4836,2.477,2.4636,2.4609,2.4636,2.4596,2.4462,2.4515,2.4367,2.4232,2.4393,2.4258,2.3812,2.2781,2.1569,2.0211,1.9406,1.8394,1.7381,1.652,1.5681,1.4669,1.3909,1.3457,1.299,1.3332,1.3318,1.3207,1.3013,1.2874,1.2915,1.2963,1.2996,1.3064,1.3105,1.3112,1.3105,1.3057,1.3003,1.2942,1.2847,1.2739,1.2644,1.2596,1.2562,1.2569,1.2501,1.2501,1.2501,1.2501,1.2488,1.2461,1.24,1.2298,1.2223,1.2149,1.2094,1.2026,1.202,1.202,1.2026,1.2006,1.1938,1.1979,1.2047,1.1972,1.1884,1.187,1.1837,1.1782,1.1748,1.1748,1.1748,1.1694,1.1674,1.1694,1.1681,2.64,2.64,2.64,2.64,2.64,2.64,2.64,2.64,2.64,2.6346,2.6293,2.6266,2.6239,2.6119,2.6106,2.6106,2.6092,2.5905,2.5865,2.5772,2.5678,2.5651,2.5558,2.5625,2.5571,2.5504,2.5438,2.5398,2.5331,2.5291,2.5277,2.5277,2.5251,2.5211,2.5211,2.5211,2.5211,2.5197,2.5184,2.4847,2.4459,2.4515,2.4636,2.4568,2.4648,2.3718,2.3329,2.2693,2.167,2.0781,2.0472,2.0008,1.9543,1.9058,1.7998,1.6957,1.603,1.5138,1.4266,1.3556,1.3281,1.3166,1.32,1.3261,1.3227,1.3064,1.299,1.3017,1.3044,1.3091,1.3139,1.3214,1.3268,1.3268,1.3268,1.32,1.3132,1.3044,1.2963,1.2868,1.2759,1.2698,1.2657,1.2603,1.2528,1.2501,1.2501,1.2501,1.2501,1.2488,1.2481,1.24,1.2318,1.225,1.2216,1.2196,1.2176,1.2135,1.2121,1.2094,1.2081,1.2121,1.2162,1.2088,1.202,1.2006,1.2006,1.1993,1.1959,1.1904,1.1884,1.185,1.1891,1.1925,1.1864,2.64,2.64,2.64,2.64,2.64,2.64,2.64,2.64,2.64,2.64,2.64,2.64,2.64,2.64,2.64,2.64,2.636,2.6226,2.6159,2.6079,2.5985,2.5972,2.5905,2.571,2.5945,2.5892,2.5745,2.5665,2.5431,2.5504,2.5478,2.5531,2.5531,2.5391,2.5378,2.5518,2.5378,2.5504,2.5378,2.4723,2.3945,2.4246,2.4096,2.4173,2.3454,2.2472,2.1408,2.0736,2.0135,1.8906,1.8416,1.7789,1.7308,1.6529,1.5814,1.5081,1.4479,1.4348,1.3464,1.3207,1.3261,1.3302,1.3322,1.3356,1.3356,1.3214,1.3207,1.3227,1.3234,1.3275,1.3275,1.3329,1.3342,1.3342,1.3342,1.3308,1.3241,1.3166,1.3105,1.3044,1.2942,1.2847,1.282,1.2813,1.2732,1.2623,1.261,1.2542,1.2535,1.2522,1.2515,1.2488,1.24,1.2379,1.2379,1.2352,1.2318,1.2277,1.2223,1.2264,1.2291,1.2277,1.2264,1.223,1.2196,1.2162,1.2162,1.2142,1.2081,1.1999,1.2013,1.2026,1.2081,1.2128,1.2094,2.64,2.64,2.64,2.64,2.64,2.64,2.64,2.64,2.64,2.64,2.64,2.64,2.64,2.64,2.64,2.64,2.6373,2.6333,2.636,2.636,2.6346,2.6253,2.6095,2.6004,2.5306,2.4768,2.4485,2.4777,2.4946,2.4946,2.4946,2.5317,2.5304,2.5163,2.515,2.4842,2.4288,2.4003,2.3692,2.332,2.3556,2.3816,2.3267,2.2496,2.1779,2.0689,1.9427,1.8671,1.8671,1.7603,1.6544,1.6073,1.5449,1.4677,1.4246,1.3661,1.3683,1.3582,1.3329,1.3349,1.3376,1.339,1.3397,1.3397,1.3397,1.339,1.3376,1.3376,1.339,1.339,1.339,1.339,1.3397,1.3397,1.3397,1.3397,1.3329,1.3275,1.3234,1.3193,1.3105,1.3003,1.299,1.2983,1.2901,1.28,1.2725,1.2651,1.2596,1.2583,1.2576,1.2535,1.2467,1.2467,1.2488,1.2461,1.2413,1.2413,1.2379,1.2454,1.2488,1.242,1.24,1.2427,1.2393,1.2325,1.2284,1.2257,1.2182,1.2135,1.2182,1.223,1.223,1.2277,1.2298,2.64,2.64,2.64,2.64,2.64,2.64,2.64,2.64,2.64,2.64,2.64,2.64,2.64,2.64,2.64,2.64,2.64,2.64,2.64,2.6386,2.607,2.6228,2.574,2.4283,2.282,2.2133,2.1939,2.2225,2.3162,2.355,2.4427,2.5518,2.3915,2.344,2.3293,2.2634,2.1634,2.1623,2.1623,2.0985,2.1217,2.1243,2.1301,2.0711,1.9875,1.851,1.7467,1.6947,1.5878,1.4929,1.4423,1.4244,1.391,1.3746,1.3453,1.3295,1.3322,1.3342,1.339,1.3397,1.3397,1.3397,1.3397,1.3397,1.3397,1.3397,1.339,1.339,1.3397,1.3397,1.3397,1.3397,1.3397,1.3397,1.3397,1.3397,1.337,1.3356,1.3342,1.3288,1.3227,1.3166,1.3132,1.3091,1.3003,1.2929,1.2915,1.2834,1.2718,1.2678,1.2651,1.2603,1.2556,1.2501,1.2501,1.2494,1.2467,1.2494,1.2501,1.2501,1.2501,1.2501,1.2494,1.2488,1.2494,1.2447,1.2413,1.2359,1.2379,1.2352,1.2406,1.2433,1.2413,1.2393,1.24]},{"header":{"parameterUnit":"m.s-1","parameterCategory":1,"la1":31.0,"la2":29.5877,"lo1":-88.7671,"lo2":-86.6584,"dy":0.0162,"dx":0.0185,"nx":115,"ny":88,"refTime":"2024-08-06T12:00:00:Z","depth":0,"parameterNumber":3,"parameterNumberName":"V-component_of_WINDS"},"data":[0.0,0.0,0.0,0.0,0.0,0.0,0.0,0.0,0.0,0.0,0.0,0.0,0.0,0.0,0.0,0.0,0.0,0.0,0.0,0.0,0.0,0.0,0.0,0.0,0.0,0.0,0.0,0.0,0.0,0.0,0.0,0.0,0.0,0.0,0.0,0.0,0.0,0.0,0.0,0.0,0.0,0.0,0.0,0.0,0.0,0.0,0.0,0.0,0.0,0.0,0.0,0.0,0.0,0.0,0.0,0.0,0.0,0.0,0.0,0.0,0.0,0.0,0.0,0.0,0.0,0.0,0.0,0.0,0.0,0.0,0.0,0.0,0.0,0.0,0.0,0.0,0.0,0.0,0.0,0.0,0.0,0.0,0.0,0.0,0.0,0.0,0.0,0.0,0.0,0.0,0.0,0.0,0.0,0.0,0.0,0.0,0.0,0.0,0.0,0.0,0.0,0.0,0.0,0.0,0.0,0.0,0.0,0.0,0.0,0.0,0.0,0.0,0.0,0.0,0.0,0.0,0.0,0.0,0.0,0.0,0.0,0.0,0.0,0.0,0.0,0.0,0.0,0.0,0.0,0.0,0.0,0.0,0.0,0.0,0.0,0.0,0.0,0.0,0.0,0.0,0.0,0.0,0.0,0.0,0.0,0.0,0.0,0.0,0.0,0.0,0.0,0.0,0.0,0.0,0.0,0.0,0.0,0.0,0.0,0.0,0.0,0.0,0.0,0.0,0.0,0.0,0.0,0.0,0.0,0.0,0.0,0.0,0.0,0.0,0.0,0.0,0.0,0.0,0.0,0.0,0.0,0.0,0.0,0.0,0.0,0.0,0.0,0.0,0.0,0.0,0.0,0.0,0.0,0.0,0.0,0.0,0.0,0.0,0.0,0.0,0.0,0.0,0.0,0.0,0.0,0.0,0.0,0.0,0.0,0.0,0.0,0.0,0.0,0.0,0.0,0.0,0.0,0.0,0.0,0.0,0.0,0.0,0.0,0.0,0.0,0.0,0.0,0.0,0.0,0.0,0.0,0.0,0.0,0.0,0.0,0.0,0.0,0.0,0.0,0.0,0.0,0.0,0.0,0.0,0.0,0.0,0.0,0.0,0.0,0.0,0.0,0.0,0.0,0.0,0.0,0.0,0.0,0.0,0.0,0.0,0.0,0.0,0.0,0.0,0.0,0.0,0.0,0.0,0.0,0.0,0.0,0.0,0.0,0.0,0.0,0.0,0.0,0.0,0.0,0.0,0.0,0.0,0.0,0.0,0.0,0.0,0.0,0.0,0.0,0.0,0.0,0.0,0.0,0.0,0.0,0.0,0.0,0.0,0.0,0.0,0.0,0.0,0.0,0.0,0.0,0.0,0.0,0.0,0.0,0.0,0.0,0.0,0.0,0.0,0.0,0.0,0.0,0.0,0.0,0.0,0.0,0.0,0.0,0.0,0.0,0.0,0.0,0.0,0.0,0.0,0.0,0.0,0.0,0.0,0.0,0.0,0.0,0.0,0.0,0.0,0.0,0.0,0.0,0.0,0.0,0.0,0.0,0.0,0.0,0.0,0.0,0.0,0.0,0.0,0.0,0.0,0.0,0.0,0.0,0.0,0.0,0.0,0.0,0.0,0.0,0.0,0.0,0.0,0.0,0.0,0.0,0.0,0.0,0.0,0.0,0.0,0.0,0.0,0.0,0.0,0.0,0.0,0.0,0.0,0.0,0.0,0.0,0.0,0.0,0.0,0.0,0.0,0.0,0.0,0.0,0.0,0.0,0.0,0.0,0.0,0.0,0.0,0.0,0.0,0.0,0.0,0.0,0.0,0.0,0.0,0.0,0.0,0.0,0.0,0.0,0.0,0.0,0.0,0.0,0.0,0.0,0.0,0.0,0.0,0.0,0.0,0.0,0.0,0.0,0.0,0.0,0.0,0.0,0.0,0.0,0.0,0.0,0.0,0.0,0.0,0.0,0.0,0.0,0.0,0.0,0.0,0.0,0.0,0.0,0.0,0.0,0.0,0.0,0.0,0.0,0.0,0.0,0.0,0.0,0.0,0.0,0.0,0.0,0.0,0.0,0.0,0.0,0.0,0.0,0.0,0.0,0.0,0.0,0.0,0.0,0.0,0.0,0.0,0.0,0.0,0.0,0.0,0.0,0.0,0.0,0.0,0.0,0.0,0.0,0.0,0.0,0.0,0.0,0.0,0.0,0.0,0.0,0.0,0.0,0.0,0.0,0.0,0.0,0.0,0.0,0.0,0.0,0.0,0.0,0.0,0.0,0.0,0.0,0.0,0.0,0.0,0.0,0.0,0.0,0.0,0.0,0.0,0.0,0.0,0.0,0.0,0.0,0.0,0.0,0.0,0.0,0.0,0.0,0.0,0.0,0.0,0.0,0.0,0.0,0.0,0.0,0.0,0.0,0.0,0.0,0.0,0.0,0.0,0.0,0.0,0.0,0.0,0.0,0.0,0.0,0.0,0.0,0.0,0.0,0.0,0.0,0.0,0.0,0.0,0.0,0.0,0.0,0.0,0.0,0.0,0.0,0.0,0.0,0.0,0.0,0.0,0.0,0.0,0.0,0.0,0.0,0.0,0.0,0.0,0.0,0.0,0.0,0.0,0.0,0.0,0.0,0.0,0.0,0.0,0.0,0.0,0.0,0.0,0.0,0.0,0.0,0.0,0.0,0.0,0.0,0.0,0.0,0.0,0.0,0.0,0.0,0.0,0.0,0.0,0.0,0.0,0.0,0.0,0.0,0.0,0.0,0.0,0.0,0.0,0.0,0.0,0.0,0.0,0.0,0.0,0.0,0.0,0.0,0.0,0.0,0.0,0.0,0.0,0.0,0.0,0.0,0.0,0.0,0.0,0.0,0.0,0.0,0.0,0.0,0.0,0.0,0.0,0.0,0.0,0.0,0.0,0.0,0.0,0.0,0.0,0.0,0.0,0.0,0.0,0.0,0.0,0.0,0.0,0.0,0.0,0.0,0.0,0.0,0.0,0.0,0.0,0.0,0.0,0.0,0.0,0.0,0.0,0.0,0.0,0.0,0.0,0.0,0.0,0.0,0.0,0.0,0.0,0.0,0.0,0.0,0.0,0.0,0.0,0.0,0.0,0.0,0.0,0.0,0.0,0.0,0.0,0.0,0.0,0.0,0.0,0.0,0.0,0.0,0.0,0.0,0.0,0.0,0.0,0.0,0.0,0.0,0.0,0.0,0.0,0.0,0.0,0.0,0.0,0.0,0.0,0.0,0.0,0.0,0.0,0.0,0.0,0.0,0.0,0.0,0.0,0.0,0.0,0.0,0.0,0.0,0.0,0.0,0.0,0.0,0.0,0.0,0.0,0.0,0.0,0.0,0.0,0.0,0.0,0.0,0.0,0.0,0.0,0.0,0.0,0.0,0.0,0.0,0.0,0.0,0.0,0.0,0.0,0.0,0.0,0.0,0.0,0.0,0.0,0.0,0.0,0.0,0.0,0.0,0.0,0.0,0.0,0.0,0.0,0.0,0.0,0.0,0.0,0.0,0.0,0.0,0.0,0.0,0.0,0.0,0.0,0.0,0.0,0.0,0.0,0.0,0.0,0.0,0.0,0.0,0.0,0.0,0.0,0.0,0.0,0.0,0.0,0.0,0.0,0.0,0.0,0.0,0.0,0.0,0.0,0.0,0.0,0.0,0.0,0.0,0.0,0.0,0.0,0.0,0.0,0.0,0.0,0.0,0.0,0.0,0.0,0.0,0.0,0.0,0.0,0.0,0.0,0.0,0.0,0.0,0.0,0.0,0.0,0.0,0.0,0.0,0.0,0.0,0.0,0.0,0.0,0.0,0.0,0.0,0.0,0.0,0.0,0.0,0.0,0.0,0.0,0.0,0.0,0.0,0.0,0.0,0.0,0.0,0.0,0.0,0.0,0.0,0.0,0.0,0.0,0.0,0.0,0.0,0.0,0.0,0.0,0.0,0.0,0.0,0.0,0.0,0.0,0.0,0.0,0.0,0.0,0.0,0.0,0.0,0.0,0.0,0.0,0.0,0.0,0.0,0.0,0.0,0.0,0.0,0.0,0.0,0.0,0.0,0.0,0.0,0.0,0.0,0.0,0.0,0.0,0.0,0.0,0.0,0.0,0.0,0.0,0.0,0.0,0.0,0.0,0.0,0.0,0.0,0.0,0.0,0.0,0.0,0.0,0.0,0.0,0.0,0.0,0.0,0.0,0.0,0.0,0.0,0.0,0.0,0.0,0.0,0.0,0.0,0.0,0.0,0.0,0.0,0.0,0.0,0.0,0.0,0.0,-0.9568,0.0,0.0,0.0,0.0,0.0,0.0,0.0,0.0,0.0,0.0,0.0,0.0,0.0,0.0,0.0,0.0,0.0,0.0,0.0,0.0,0.0,0.0,0.0,0.0,0.0,0.0,0.0,0.0,0.0,0.0,0.0,0.0,0.0,0.0,0.0,0.0,0.0,0.0,0.0,0.0,0.0,0.0,0.0,0.0,0.0,0.0,0.0,0.0,0.0,0.0,0.0,0.0,0.0,0.0,0.0,0.0,0.0,0.0,0.0,0.0,0.0,0.0,0.0,0.0,0.0,0.0,0.0,0.0,0.0,0.0,0.0,0.0,0.0,0.0,0.0,0.0,0.0,0.0,0.0,0.0,0.0,0.0,0.0,0.0,0.0,0.0,0.0,0.0,0.0,0.0,0.0,0.0,0.0,0.0,0.0,0.0,0.0,0.0,0.0,0.0,0.0,0.0,0.0,0.0,0.0,0.0,0.0,0.0,0.0,0.0,-1.0424,-1.0662,-0.9805,-0.922,-0.9009,0.0,0.0,0.0,0.0,0.0,0.0,0.0,0.0,0.0,0.0,0.0,0.0,0.0,0.0,0.0,0.0,0.0,0.0,0.0,0.0,0.0,0.0,0.0,0.0,0.0,0.0,0.0,0.0,0.0,0.0,0.0,0.0,0.0,0.0,0.0,0.0,0.0,0.0,0.0,0.0,0.0,0.0,0.0,0.0,0.0,0.0,0.0,0.0,0.0,0.0,0.0,0.0,0.0,0.0,0.0,0.0,0.0,0.0,0.0,0.0,0.0,0.0,0.0,0.0,0.0,0.0,0.0,0.0,0.0,0.0,0.0,0.0,0.0,0.0,0.0,0.0,0.0,0.0,0.0,0.0,0.0,0.0,0.0,0.0,0.0,0.0,0.0,0.0,0.0,0.0,0.0,0.0,0.0,0.0,0.0,0.0,0.0,0.0,0.0,0.0,0.0,0.0,0.0,0.0,0.0,0.0,0.0,0.0,0.0,0.0,0.0,0.0,-1.0235,-0.9565,-0.8994,0.0,0.0,0.0,0.0,0.0,0.0,0.0,0.0,0.0,0.0,0.0,0.0,0.0,0.0,0.0,0.0,0.0,0.0,0.0,0.0,0.0,0.0,0.0,0.0,0.0,0.0,0.0,0.0,0.0,0.0,0.0,0.0,0.0,0.0,0.0,0.0,0.0,0.0,0.0,0.0,0.0,0.0,0.0,0.0,0.0,0.0,0.0,0.0,0.0,0.0,0.0,0.0,0.0,0.0,0.0,0.0,0.0,0.0,0.0,0.0,0.0,0.0,0.0,0.0,0.0,0.0,0.0,0.0,0.0,0.0,0.0,0.0,0.0,0.0,0.0,0.0,0.0,0.0,0.0,0.0,0.0,0.0,0.0,0.0,0.0,0.0,0.0,0.0,0.0,0.0,0.0,0.0,0.0,0.0,0.0,0.0,0.0,0.0,0.0,0.0,0.0,0.0,0.0,0.0,0.0,0.0,0.0,0.0,0.0,0.0,-1.0886,-1.2491,-1.1368,0.0,-1.0606,0.0,0.0,0.0,0.0,0.0,0.0,0.0,0.0,0.0,0.0,0.0,0.0,0.0,0.0,0.0,0.0,0.0,0.0,0.0,0.0,0.0,0.0,0.0,0.0,0.0,0.0,0.0,0.0,0.0,0.0,0.0,0.0,0.0,0.0,0.0,0.0,0.0,0.0,0.0,0.0,0.0,0.0,0.0,0.0,0.0,0.0,0.0,0.0,0.0,0.0,0.0,0.0,0.0,0.0,0.0,0.0,0.0,0.0,0.0,0.0,0.0,0.0,0.0,0.0,0.0,0.0,0.0,0.0,0.0,0.0,0.0,0.0,0.0,0.0,0.0,0.0,0.0,0.0,0.0,0.0,0.0,0.0,0.0,0.0,0.0,0.0,0.0,0.0,0.0,0.0,0.0,0.0,0.0,0.0,0.0,0.0,0.0,0.0,0.0,0.0,0.0,0.0,0.0,0.0,0.0,0.0,0.0,0.0,0.0,0.0,0.0,-1.2721,-1.1692,-1.0995,0.0,0.0,0.0,0.0,0.0,0.0,0.0,0.0,0.0,0.0,0.0,0.0,0.0,0.0,0.0,0.0,0.0,0.0,0.0,0.0,0.0,0.0,0.0,0.0,0.0,0.0,0.0,0.0,0.0,0.0,0.0,0.0,0.0,0.0,0.0,0.0,0.0,0.0,0.0,0.0,0.0,0.0,0.0,0.0,0.0,0.0,0.0,0.0,0.0,0.0,0.0,0.0,0.0,0.0,0.0,0.0,0.0,0.0,0.0,0.0,0.0,0.0,0.0,0.0,0.0,0.0,0.0,0.0,0.0,0.0,0.0,0.0,0.0,0.0,0.0,0.0,0.0,0.0,0.0,0.0,0.0,0.0,0.0,0.0,0.0,0.0,0.0,0.0,0.0,0.0,0.0,0.0,0.0,0.0,0.0,0.0,0.0,0.0,0.0,0.0,0.0,0.0,0.0,0.0,0.0,0.0,0.0,0.0,0.0,0.0,-1.2615,0.0,-1.2925,-1.2129,-1.142,-1.0898,0.0,0.0,0.0,0.0,0.0,0.0,0.0,0.0,0.0,0.0,0.0,0.0,0.0,0.0,0.0,0.0,0.0,0.0,0.0,0.0,0.0,0.0,0.0,0.0,0.0,0.0,0.0,0.0,0.0,0.0,0.0,0.0,0.0,0.0,0.0,0.0,0.0,0.0,0.0,0.0,0.0,0.0,0.0,0.0,0.0,0.0,0.0,0.0,0.0,0.0,0.0,0.0,0.0,0.0,0.0,0.0,0.0,0.0,0.0,0.0,0.0,0.0,0.0,0.0,0.0,0.0,0.0,0.0,0.0,0.0,0.0,0.0,0.0,0.0,0.0,0.0,0.0,0.0,0.0,0.0,0.0,0.0,0.0,0.0,0.0,0.0,0.0,0.0,0.0,0.0,0.0,0.0,0.0,0.0,0.0,0.0,0.0,0.0,0.0,0.0,0.0,0.0,0.0,0.0,0.0,0.0,0.0,0.0,0.0,-1.3473,-1.2861,-1.3713,-1.2956,-1.2136,0.0,0.0,0.0,0.0,0.0,0.0,0.0,0.0,0.0,0.0,0.0,0.0,0.0,0.0,0.0,0.0,0.0,0.0,0.0,0.0,0.0,0.0,0.0,0.0,0.0,0.0,0.0,0.0,0.0,0.0,0.0,0.0,0.0,0.0,0.0,0.0,0.0,0.0,0.0,0.0,0.0,0.0,0.0,0.0,0.0,0.0,0.0,0.0,0.0,0.0,0.0,0.0,0.0,0.0,0.0,0.0,0.0,0.0,0.0,0.0,0.0,0.0,0.0,0.0,0.0,0.0,0.0,0.0,0.0,0.0,0.0,0.0,0.0,0.0,0.0,0.0,0.0,0.0,0.0,0.0,0.0,0.0,0.0,0.0,0.0,0.0,0.0,0.0,0.0,0.0,0.0,0.0,0.0,0.0,0.0,0.0,0.0,0.0,0.0,0.0,0.0,0.0,0.0,0.0,0.0,0.0,0.0,0.0,0.0,-1.1927,-1.2253,-1.3179,-1.4716,-1.3307,-1.22,0.0,0.0,0.0,0.0,0.0,0.0,0.0,0.0,0.0,0.0,0.0,0.0,0.0,0.0,0.0,0.0,0.0,0.0,0.0,0.0,0.0,0.0,0.0,0.0,0.0,0.0,0.0,0.0,0.0,0.0,0.0,0.0,0.0,0.0,0.0,0.0,0.0,0.0,0.0,0.0,0.0,0.0,0.0,0.0,0.0,0.0,0.0,0.0,0.0,0.0,0.0,0.0,0.0,0.0,0.0,0.0,0.0,0.0,0.0,0.0,0.0,0.0,0.0,0.0,0.0,0.0,0.0,0.0,0.0,0.0,0.0,0.0,0.0,0.0,0.0,0.0,0.0,0.0,0.0,0.0,0.0,0.0,0.0,0.0,0.0,0.0,0.0,0.0,0.0,0.0,0.0,0.0,0.0,0.0,0.0,0.0,0.0,0.0,0.0,0.0,0.0,0.0,0.0,0.0,0.0,0.0,0.0,0.0,0.0,-1.1249,0.0,-1.3701,0.0,-1.3021,-1.1751,0.0,0.0,0.0,0.0,0.0,0.0,0.0,0.0,0.0,0.0,0.0,0.0,0.0,0.0,0.0,0.0,0.0,0.0,0.0,0.0,0.0,0.0,0.0,0.0,0.0,0.0,0.0,0.0,0.0,0.0,0.0,0.0,0.0,0.0,0.0,0.0,0.0,0.0,0.0,0.0,0.0,0.0,0.0,0.0,0.0,0.0,0.0,0.0,0.0,0.0,0.0,0.0,0.0,0.0,0.0,0.0,0.0,0.0,0.0,0.0,0.0,0.0,0.0,0.0,0.0,0.0,0.0,0.0,0.0,0.0,0.0,0.0,0.0,0.0,0.0,0.0,0.0,0.0,0.0,0.0,0.0,0.0,0.0,0.0,0.0,0.0,0.0,0.0,0.0,0.0,0.0,0.0,0.0,0.0,0.0,0.0,0.0,0.0,0.0,0.0,0.0,0.0,0.0,0.0,0.0,0.0,0.0,0.0,-1.1274,-1.3885,-1.4437,-1.4308,-1.3529,-1.2173,-1.0788,0.0,0.0,0.0,0.0,0.0,0.0,0.0,0.0,0.0,0.0,0.0,0.0,0.0,0.0,0.0,0.0,0.0,0.0,0.0,0.0,0.0,0.0,0.0,0.0,0.0,0.0,0.0,0.0,0.0,0.0,0.0,0.0,0.0,0.0,0.0,0.0,0.0,0.0,0.0,0.0,0.0,0.0,0.0,0.0,0.0,0.0,0.0,0.0,0.0,0.0,0.0,0.0,0.0,0.0,0.0,0.0,0.0,0.0,0.0,0.0,0.0,0.0,0.0,0.0,0.0,0.0,0.0,0.0,0.0,0.0,0.0,0.0,0.0,0.0,0.0,0.0,0.0,0.0,0.0,0.0,0.0,0.0,0.0,0.0,0.0,0.0,0.0,0.0,0.0,0.0,0.0,0.0,0.0,0.0,0.0,0.0,0.0,0.0,0.0,0.0,0.0,0.0,0.0,0.0,0.0,0.0,0.0,0.0,0.0,-1.2303,-1.3184,-1.3778,-1.3978,-1.2022,-1.1103,0.0,0.0,0.0,0.0,0.0,0.0,0.0,0.0,0.0,0.0,0.0,0.0,0.0,0.0,0.0,0.0,0.0,0.0,0.0,0.0,0.0,0.0,0.0,0.0,0.0,0.0,0.0,0.0,0.0,0.0,0.0,0.0,0.0,0.0,0.0,0.0,0.0,0.0,0.0,0.0,0.0,0.0,0.0,0.0,0.0,0.0,0.0,0.0,0.0,0.0,0.0,0.0,0.0,0.0,0.0,0.0,0.0,0.0,0.0,0.0,0.0,0.0,0.0,0.0,0.0,0.0,0.0,0.0,0.0,0.0,0.0,0.0,0.0,0.0,0.0,0.0,0.0,0.0,0.0,0.0,0.0,0.0,0.0,0.0,0.0,0.0,0.0,0.0,0.0,0.0,0.0,0.0,0.0,0.0,0.0,0.0,0.0,0.0,0.0,0.0,0.0,0.0,0.0,0.0,0.0,0.0,0.0,0.0,0.0,-1.3406,-1.3941,-1.4203,-1.41,-1.2407,-1.1543,-1.1497,0.0,0.0,0.0,0.0,0.0,0.0,0.0,0.0,0.0,0.0,0.0,0.0,0.0,0.0,0.0,0.0,0.0,0.0,0.0,0.0,0.0,0.0,0.0,0.0,0.0,0.0,0.0,0.0,0.0,0.0,0.0,0.0,0.0,0.0,0.0,0.0,0.0,0.0,0.0,0.0,0.0,0.0,0.0,0.0,0.0,0.0,0.0,0.0,0.0,0.0,0.0,0.0,0.0,0.0,0.0,0.0,0.0,0.0,0.0,0.0,0.0,0.0,0.0,0.0,0.0,0.0,0.0,0.0,0.0,0.0,0.0,0.0,0.0,0.0,0.0,0.0,0.0,0.0,0.0,0.0,0.0,0.0,0.0,0.0,0.0,0.0,0.0,0.0,0.0,0.0,0.0,0.0,0.0,0.0,0.0,0.0,0.0,0.0,0.0,0.0,0.0,0.0,0.0,0.0,0.0,0.0,0.0,0.0,-1.6432,-1.6413,-1.5687,-1.4164,-1.3346,-1.2123,0.0,0.0,0.0,0.0,0.0,0.0,0.0,0.0,0.0,0.0,0.0,0.0,0.0,0.0,0.0,0.0,0.0,0.0,0.0,0.0,0.0,0.0,0.0,0.0,0.0,0.0,0.0,0.0,0.0,0.0,0.0,0.0,0.0,0.0,0.0,0.0,0.0,0.0,0.0,0.0,0.0,0.0,0.0,0.0,0.0,0.0,0.0,0.0,0.0,0.0,0.0,0.0,0.0,0.0,0.0,0.0,0.0,0.0,0.0,0.0,0.0,0.0,0.0,0.0,0.0,0.0,0.0,0.0,0.0,0.0,0.0,0.0,0.0,0.0,0.0,0.0,0.0,0.0,0.0,0.0,0.0,0.0,0.0,0.0,0.0,0.0,0.0,0.0,0.0,0.0,0.0,0.0,0.0,0.0,0.0,0.0,0.0,0.0,0.0,0.0,0.0,0.0,0.0,0.0,0.0,0.0,0.0,0.0,0.0,-1.7089,-1.851,-1.8672,-1.73,-1.4686,-1.345,0.0,0.0,0.0,0.0,0.0,0.0,0.0,0.0,0.0,0.0,0.0,0.0,0.0,0.0,0.0,0.0,0.0,0.0,0.0,0.0,0.0,0.0,0.0,0.0,0.0,0.0,0.0,0.0,0.0,0.0,0.0,0.0,0.0,0.0,0.0,0.0,0.0,0.0,0.0,0.0,0.0,0.0,0.0,0.0,0.0,0.0,0.0,0.0,0.0,0.0,0.0,0.0,0.0,0.0,0.0,0.0,0.0,0.0,0.0,0.0,0.0,0.0,0.0,0.0,0.0,0.0,0.0,0.0,0.0,0.0,0.0,0.0,0.0,0.0,0.0,0.0,0.0,0.0,0.0,0.0,0.0,0.0,0.0,0.0,0.0,0.0,0.0,0.0,0.0,0.0,0.0,0.0,0.0,0.0,0.0,0.0,0.0,0.0,0.0,0.0,0.0,0.0,0.0,0.0,0.0,0.0,0.0,0.0,-1.7725,-1.8729,-1.9611,-1.9946,-1.9529,-1.7006,-1.5182,0.0,0.0,0.0,0.0,0.0,0.0,0.0,0.0,0.0,0.0,0.0,0.0,0.0,0.0,0.0,0.0,0.0,0.0,0.0,0.0,0.0,0.0,0.0,0.0,0.0,0.0,0.0,0.0,0.0,0.0,0.0,0.0,0.0,0.0,0.0,0.0,0.0,0.0,0.0,0.0,0.0,0.0,0.0,0.0,0.0,0.0,0.0,0.0,0.0,0.0,0.0,0.0,0.0,0.0,0.0,0.0,0.0,0.0,0.0,0.0,0.0,0.0,0.0,0.0,0.0,0.0,0.0,0.0,0.0,0.0,0.0,0.0,0.0,0.0,0.0,0.0,0.0,0.0,0.0,0.0,0.0,0.0,0.0,0.0,0.0,0.0,0.0,0.0,0.0,0.0,0.0,0.0,0.0,0.0,0.0,0.0,0.0,0.0,0.0,0.0,0.0,0.0,0.0,0.0,0.0,0.0,0.0,0.0,-1.9033,-2.0582,-2.0181,-2.0243,-2.0781,-1.9371,-1.6908,0.0,0.0,0.0,0.0,0.0,0.0,0.0,0.0,0.0,0.0,0.0,0.0,0.0,0.0,0.0,0.0,0.0,0.0,0.0,0.0,0.0,0.0,0.0,0.0,0.0,0.0,0.0,0.0,0.0,0.0,0.0,0.0,0.0,0.0,0.0,0.0,0.0,0.0,0.0,0.0,0.0,0.0,0.0,0.0,0.0,0.0,0.0,0.0,0.0,0.0,0.0,0.0,0.0,0.0,0.0,0.0,0.0,0.0,0.0,0.0,0.0,0.0,0.0,0.0,0.0,0.0,0.0,0.0,0.0,0.0,0.0,0.0,0.0,0.0,0.0,0.0,0.0,0.0,0.0,0.0,0.0,0.0,0.0,0.0,0.0,0.0,0.0,0.0,0.0,0.0,0.0,0.0,0.0,0.0,0.0,0.0,0.0,0.0,0.0,0.0,0.0,0.0,0.0,0.0,0.0,0.0,0.0,0.0,-1.9327,-2.0322,-2.1043,-2.1005,-2.0159,-1.8445,-1.706,0.0,0.0,0.0,0.0,0.0,0.0,0.0,0.0,0.0,0.0,0.0,0.0,0.0,0.0,0.0,0.0,0.0,0.0,0.0,0.0,0.0,0.0,0.0,0.0,0.0,0.0,0.0,0.0,0.0,0.0,0.0,0.0,0.0,0.0,0.0,0.0,0.0,0.0,0.0,0.0,0.0,0.0,0.0,0.0,0.0,0.0,0.0,0.0,-1.3332,0.0,0.0,0.0,0.0,0.0,0.0,0.0,0.0,0.0,0.0,0.0,0.0,0.0,0.0,0.0,0.0,0.0,0.0,0.0,0.0,0.0,0.0,0.0,0.0,0.0,0.0,0.0,0.0,0.0,0.0,0.0,0.0,0.0,0.0,0.0,0.0,0.0,0.0,0.0,0.0,0.0,0.0,0.0,0.0,0.0,0.0,0.0,0.0,0.0,0.0,0.0,0.0,0.0,0.0,0.0,0.0,0.0,0.0,0.0,-1.9977,-2.1165,-2.1656,-2.1549,-2.0811,-1.9426,-1.7978,0.0,0.0,0.0,0.0,0.0,0.0,0.0,0.0,0.0,0.0,0.0,0.0,0.0,0.0,0.0,0.0,0.0,0.0,0.0,0.0,0.0,0.0,0.0,0.0,0.0,0.0,0.0,0.0,0.0,0.0,0.0,0.0,0.0,0.0,0.0,0.0,0.0,0.0,0.0,0.0,0.0,0.0,0.0,0.0,0.0,0.0,0.0,0.0,0.0,0.0,0.0,0.0,0.0,0.0,0.0,0.0,0.0,0.0,0.0,0.0,0.0,0.0,0.0,0.0,0.0,0.0,0.0,0.0,0.0,0.0,0.0,0.0,0.0,0.0,0.0,0.0,0.0,0.0,0.0,0.0,0.0,0.0,0.0,0.0,0.0,0.0,0.0,0.0,0.0,0.0,0.0,0.0,0.0,0.0,0.0,0.0,0.0,0.0,0.0,0.0,0.0,0.0,0.0,0.0,0.0,0.0,0.0,-1.8781,-2.0589,-2.2289,-2.2092,-2.1939,-2.2039,-2.0855,-1.9064,-1.6693,0.0,0.0,0.0,0.0,0.0,0.0,0.0,0.0,0.0,0.0,0.0,0.0,0.0,0.0,0.0,0.0,0.0,0.0,0.0,0.0,0.0,0.0,0.0,0.0,0.0,0.0,0.0,0.0,0.0,0.0,0.0,0.0,0.0,0.0,0.0,0.0,0.0,0.0,-1.4341,-1.4878,0.0,0.0,0.0,0.0,0.0,0.0,0.0,0.0,-1.5109,0.0,0.0,0.0,0.0,0.0,0.0,0.0,0.0,0.0,0.0,0.0,0.0,0.0,0.0,0.0,0.0,0.0,0.0,0.0,0.0,0.0,0.0,0.0,0.0,0.0,0.0,0.0,0.0,0.0,0.0,0.0,0.0,0.0,0.0,0.0,0.0,0.0,0.0,0.0,0.0,0.0,0.0,0.0,0.0,0.0,0.0,0.0,0.0,0.0,0.0,0.0,0.0,0.0,0.0,0.0,0.0,-1.9183,-1.9208,-2.0413,-2.2865,-2.2286,-2.2187,-2.2798,-2.115,-1.9504,-1.7892,0.0,0.0,0.0,0.0,0.0,0.0,0.0,0.0,0.0,0.0,0.0,0.0,0.0,0.0,0.0,0.0,0.0,0.0,0.0,0.0,0.0,0.0,0.0,0.0,0.0,0.0,0.0,0.0,0.0,0.0,0.0,0.0,0.0,0.0,0.0,0.0,0.0,0.0,0.0,-1.6853,-1.7426,0.0,0.0,0.0,0.0,0.0,0.0,0.0,0.0,-1.5344,0.0,0.0,0.0,0.0,0.0,0.0,0.0,0.0,0.0,0.0,0.0,0.0,0.0,0.0,0.0,0.0,0.0,0.0,0.0,0.0,0.0,0.0,0.0,0.0,0.0,0.0,0.0,0.0,0.0,0.0,0.0,0.0,0.0,0.0,0.0,0.0,0.0,0.0,0.0,0.0,0.0,0.0,0.0,0.0,0.0,0.0,0.0,0.0,0.0,0.0,0.0,0.0,0.0,0.0,0.0,-1.8781,-1.956,-2.0941,-2.299,-2.2702,-2.2554,-2.2639,-2.0927,-1.9273,0.0,0.0,0.0,0.0,0.0,0.0,0.0,0.0,0.0,0.0,0.0,0.0,0.0,0.0,0.0,0.0,0.0,0.0,0.0,0.0,0.0,0.0,0.0,0.0,0.0,0.0,0.0,0.0,0.0,0.0,0.0,0.0,0.0,0.0,0.0,0.0,0.0,0.0,0.0,0.0,-1.7684,-1.8395,-1.8097,0.0,0.0,0.0,0.0,0.0,0.0,-1.6939,-1.6279,0.0,0.0,0.0,0.0,0.0,0.0,0.0,0.0,0.0,0.0,0.0,0.0,0.0,0.0,0.0,0.0,0.0,0.0,0.0,0.0,0.0,0.0,0.0,0.0,0.0,0.0,0.0,0.0,0.0,0.0,0.0,0.0,0.0,0.0,0.0,0.0,0.0,0.0,0.0,0.0,0.0,0.0,0.0,0.0,0.0,0.0,0.0,0.0,0.0,0.0,0.0,0.0,0.0,0.0,0.0,-1.8129,-1.971,-2.1343,-2.3025,-2.3125,-2.2874,-2.2297,-2.079,-1.9158,0.0,0.0,0.0,0.0,0.0,0.0,0.0,0.0,0.0,0.0,0.0,0.0,0.0,0.0,0.0,0.0,0.0,0.0,0.0,0.0,0.0,0.0,0.0,0.0,0.0,0.0,0.0,0.0,0.0,0.0,0.0,0.0,0.0,0.0,0.0,0.0,0.0,0.0,0.0,0.0,0.0,-1.9353,-1.8979,-1.9017,0.0,0.0,0.0,0.0,-1.8579,-1.8208,0.0,0.0,0.0,0.0,0.0,0.0,0.0,0.0,0.0,0.0,0.0,0.0,0.0,0.0,0.0,0.0,0.0,0.0,0.0,0.0,0.0,0.0,0.0,0.0,0.0,0.0,0.0,0.0,0.0,0.0,0.0,0.0,0.0,0.0,0.0,0.0,0.0,0.0,0.0,0.0,0.0,0.0,0.0,0.0,0.0,0.0,0.0,0.0,0.0,0.0,0.0,0.0,0.0,0.0,0.0,0.0,-1.8103,-1.9309,-2.0941,-2.3,-2.3125,-2.2874,-2.2322,-2.1167,-1.9611,0.0,0.0,0.0,0.0,0.0,0.0,0.0,0.0,0.0,0.0,0.0,0.0,0.0,0.0,0.0,0.0,0.0,0.0,0.0,0.0,0.0,0.0,0.0,0.0,0.0,0.0,0.0,0.0,0.0,0.0,0.0,0.0,0.0,0.0,0.0,0.0,0.0,0.0,0.0,0.0,0.0,-2.0822,-1.9304,-1.9382,-1.9827,0.0,0.0,-1.9826,-2.1078,-2.0721,0.0,0.0,0.0,0.0,0.0,0.0,0.0,0.0,0.0,0.0,0.0,0.0,0.0,0.0,0.0,0.0,0.0,0.0,0.0,0.0,0.0,0.0,0.0,0.0,0.0,0.0,0.0,0.0,0.0,0.0,0.0,0.0,0.0,0.0,0.0,0.0,0.0,0.0,0.0,0.0,0.0,0.0,0.0,0.0,0.0,0.0,0.0,0.0,0.0,0.0,0.0,0.0,0.0,0.0,0.0,-1.5492,-1.8154,-1.9886,-2.1543,-2.299,-2.3125,-2.2723,-2.1845,-2.0489,-1.8706,0.0,0.0,0.0,0.0,0.0,0.0,0.0,0.0,0.0,0.0,0.0,0.0,0.0,0.0,0.0,0.0,0.0,0.0,0.0,0.0,0.0,0.0,0.0,0.0,0.0,0.0,0.0,0.0,0.0,0.0,0.0,0.0,0.0,0.0,0.0,0.0,0.0,0.0,0.0,0.0,0.0,0.0,-2.0201,-2.1094,0.0,0.0,0.0,-2.1376,-2.1254,0.0,0.0,0.0,0.0,0.0,0.0,0.0,0.0,0.0,0.0,0.0,0.0,0.0,0.0,0.0,0.0,0.0,0.0,0.0,0.0,0.0,0.0,0.0,0.0,0.0,0.0,0.0,0.0,0.0,0.0,0.0,0.0,0.0,0.0,0.0,0.0,0.0,0.0,0.0,0.0,0.0,0.0,0.0,0.0,0.0,0.0,0.0,0.0,0.0,0.0,0.0,0.0,0.0,0.0,0.0,0.0,0.0,-1.8179,-2.0363,-2.202,-2.304,-2.3125,-2.2623,-2.1518,-2.0012,0.0,0.0,0.0,0.0,0.0,0.0,0.0,0.0,0.0,0.0,0.0,0.0,0.0,0.0,0.0,0.0,0.0,0.0,0.0,0.0,0.0,0.0,0.0,0.0,0.0,0.0,0.0,-1.0372,0.0,0.0,0.0,0.0,0.0,0.0,0.0,0.0,0.0,0.0,0.0,0.0,0.0,0.0,-2.2545,-2.1397,-2.2759,-2.3759,0.0,0.0,-2.2832,-2.1936,-2.2162,-2.1562,0.0,0.0,0.0,0.0,0.0,0.0,0.0,0.0,0.0,0.0,0.0,0.0,0.0,0.0,0.0,0.0,0.0,0.0,0.0,0.0,0.0,0.0,0.0,0.0,0.0,0.0,0.0,0.0,0.0,0.0,0.0,0.0,0.0,0.0,0.0,0.0,0.0,0.0,0.0,0.0,0.0,0.0,0.0,0.0,0.0,0.0,0.0,0.0,0.0,0.0,0.0,0.0,0.0,0.0,0.0,-1.8179,-2.0363,-2.202,-2.3075,-2.3125,-2.2598,-2.1518,-2.0363,-1.8731,0.0,0.0,0.0,0.0,0.0,0.0,0.0,0.0,0.0,0.0,0.0,0.0,0.0,0.0,0.0,0.0,0.0,0.0,0.0,0.0,0.0,0.0,0.0,0.0,0.0,0.0,0.0,0.0,0.0,0.0,0.0,0.0,0.0,0.0,0.0,0.0,0.0,0.0,0.0,0.0,0.0,-2.3347,-2.2848,-2.3777,-2.4701,0.0,0.0,-2.4433,-2.4343,-2.4358,-2.3537,-2.092,0.0,0.0,0.0,0.0,0.0,0.0,0.0,0.0,0.0,0.0,0.0,0.0,0.0,0.0,0.0,0.0,0.0,0.0,0.0,0.0,0.0,0.0,0.0,0.0,0.0,0.0,0.0,0.0,0.0,0.0,0.0,0.0,0.0,0.0,0.0,0.0,0.0,0.0,0.0,0.0,0.0,0.0,0.0,0.0,0.0,0.0,0.0,0.0,0.0,0.0,0.0,0.0,0.0,-1.634,-1.8549,-2.0496,-2.202,-2.3075,-2.3125,-2.2774,-2.202,-2.0916,-1.9309,0.0,0.0,0.0,0.0,0.0,0.0,0.0,0.0,0.0,0.0,0.0,0.0,0.0,0.0,0.0,0.0,0.0,0.0,0.0,0.0,0.0,0.0,0.0,0.0,0.0,0.0,0.0,0.0,-1.3496,-1.391,-1.4599,0.0,0.0,0.0,0.0,0.0,0.0,0.0,0.0,0.0,0.0,-2.4654,-2.4112,-2.5401,0.0,0.0,-2.6004,-2.5682,-2.5267,-2.4548,-2.339,-2.162,-2.0981,0.0,0.0,0.0,0.0,0.0,0.0,0.0,0.0,0.0,0.0,0.0,0.0,0.0,0.0,0.0,0.0,0.0,0.0,0.0,0.0,0.0,0.0,0.0,0.0,0.0,0.0,0.0,0.0,0.0,0.0,0.0,0.0,0.0,0.0,0.0,0.0,0.0,0.0,0.0,0.0,0.0,0.0,0.0,0.0,0.0,0.0,0.0,0.0,0.0,0.0,0.0,0.0,-1.6612,-1.8853,-2.0749,-2.2196,-2.3065,-2.3125,-2.2874,-2.2322,-2.1393,-1.9962,0.0,0.0,0.0,0.0,0.0,0.0,0.0,0.0,0.0,0.0,0.0,0.0,0.0,0.0,0.0,0.0,0.0,0.0,0.0,0.0,0.0,0.0,0.0,0.0,0.0,0.0,0.0,0.0,-1.4989,-1.5289,-1.5739,0.0,0.0,0.0,0.0,0.0,0.0,0.0,0.0,0.0,0.0,-2.6039,-2.5668,-2.6891,-2.7709,-2.726,-2.7021,-2.6723,-2.6293,-2.539,-2.4283,-2.2805,0.0,0.0,0.0,0.0,0.0,0.0,0.0,0.0,0.0,0.0,0.0,0.0,0.0,0.0,0.0,0.0,0.0,0.0,0.0,0.0,0.0,0.0,0.0,0.0,0.0,0.0,0.0,0.0,0.0,0.0,-1.2082,0.0,0.0,0.0,0.0,0.0,0.0,0.0,0.0,0.0,0.0,0.0,0.0,0.0,0.0,0.0,0.0,0.0,0.0,0.0,0.0,0.0,0.0,-1.6816,-1.8982,-2.1192,-2.2573,-2.3065,-2.315,-2.284,-2.2347,-2.1769,-2.069,-1.8958,0.0,0.0,0.0,0.0,0.0,0.0,0.0,0.0,0.0,0.0,0.0,0.0,0.0,0.0,0.0,0.0,0.0,0.0,0.0,0.0,0.0,0.0,0.0,0.0,0.0,0.0,-1.4752,-1.5409,-1.5769,0.0,0.0,0.0,0.0,0.0,0.0,0.0,0.0,0.0,0.0,-2.6692,-2.758,-2.753,-2.8158,-2.8607,-2.8547,-2.8008,-2.756,-2.756,-2.75,-2.6841,0.0,0.0,0.0,0.0,0.0,0.0,0.0,0.0,0.0,0.0,0.0,0.0,0.0,0.0,0.0,0.0,0.0,0.0,0.0,0.0,0.0,0.0,0.0,0.0,0.0,0.0,0.0,-1.9348,-1.8104,0.0,0.0,0.0,0.0,0.0,0.0,0.0,0.0,0.0,0.0,0.0,-2.2193,-2.3424,0.0,0.0,0.0,0.0,0.0,0.0,0.0,0.0,0.0,0.0,0.0,0.0,-1.7965,-1.9988,-2.1832,-2.3125,-2.3678,-2.3703,-2.3452,-2.2874,-2.2322,-2.0916,-1.8555,0.0,0.0,0.0,0.0,0.0,0.0,0.0,0.0,0.0,0.0,0.0,0.0,0.0,0.0,0.0,0.0,0.0,0.0,0.0,0.0,0.0,0.0,0.0,0.0,0.0,-1.5229,0.0,0.0,0.0,0.0,0.0,0.0,0.0,0.0,0.0,0.0,0.0,-2.4956,-2.6692,-2.8068,-2.8906,-2.8906,-2.9834,-3.0253,0.0,0.0,0.0,0.0,0.0,0.0,0.0,0.0,0.0,0.0,0.0,0.0,0.0,0.0,-3.0221,-2.5526,-2.3541,-2.308,-2.4427,0.0,0.0,0.0,0.0,0.0,0.0,0.0,0.0,0.0,0.0,0.0,0.0,0.0,0.0,-2.3084,0.0,-2.193,0.0,0.0,0.0,0.0,0.0,0.0,0.0,0.0,-2.5127,-2.6104,-2.6027,-2.7298,-2.7216,0.0,-2.5405,-2.3199,0.0,0.0,0.0,0.0,0.0,0.0,0.0,0.0,-1.9416,-2.1485,-2.2967,-2.3841,-2.4255,-2.4104,-2.3828,-2.3427,-2.2698,-2.1368,-1.9409,-1.7903,-1.6597,0.0,0.0,0.0,0.0,0.0,0.0,0.0,0.0,0.0,0.0,0.0,0.0,0.0,0.0,0.0,0.0,0.0,0.0,0.0,0.0,0.0,0.0,0.0,-1.6458,0.0,0.0,0.0,0.0,0.0,0.0,0.0,0.0,0.0,-2.3789,-2.5644,-2.756,-2.9086,-3.0043,-3.0612,-3.0612,0.0,0.0,0.0,0.0,0.0,0.0,0.0,-2.8876,-2.9505,-2.9265,-2.9275,-3.0143,-3.2235,-3.3826,-3.4036,0.0,0.0,-2.9705,-2.7736,-2.7266,-2.8626,-2.881,-2.8886,-2.9394,-3.0185,-3.0587,0.0,0.0,0.0,0.0,0.0,0.0,0.0,0.0,-2.6594,-2.598,0.0,-2.5483,0.0,0.0,0.0,0.0,0.0,-2.5864,0.0,0.0,-3.0597,-3.1411,-3.0229,-3.0815,-3.0787,-3.022,-2.9726,-2.8385,-2.6062,-2.1175,0.0,0.0,0.0,0.0,0.0,0.0,-2.1038,-2.3382,-2.4325,-2.4833,-2.4833,-2.433,-2.4029,-2.3954,-2.2949,-2.2096,-2.1493,-2.0388,-1.8857,-1.6748,-1.5558,0.0,0.0,0.0,0.0,0.0,0.0,0.0,0.0,0.0,0.0,0.0,0.0,0.0,0.0,0.0,0.0,0.0,0.0,0.0,0.0,-1.6997,0.0,0.0,0.0,0.0,0.0,0.0,0.0,0.0,0.0,0.0,-2.7889,-2.8846,-3.0372,-3.2258,0.0,0.0,0.0,0.0,-3.181,-3.2437,-3.2018,-3.1839,-3.2437,-3.2467,-3.2258,-3.1689,0.0,0.0,-3.3668,-3.4899,-3.5699,-3.4939,-3.5538,-3.612,-3.665,-3.443,-3.3259,-3.4409,-3.3657,-3.3003,-3.3095,-3.3904,-3.446,-3.2737,0.0,0.0,0.0,0.0,-3.0075,-3.1306,-3.3624,-3.2494,-3.1141,-2.9871,-3.0249,0.0,0.0,0.0,0.0,0.0,0.0,-2.834,-2.96,-3.0821,-3.1669,-3.2311,-3.2911,-3.2882,-3.2282,-3.2188,-3.103,-2.9022,-2.7593,-2.4203,-1.9091,0.0,0.0,0.0,0.0,-2.3018,-2.4628,-2.5154,-2.536,-2.5385,-2.5234,-2.4782,-2.4029,-2.3678,-2.3075,-2.2121,-2.1393,-2.0539,-1.9484,-1.765,0.0,0.0,0.0,0.0,0.0,0.0,0.0,0.0,0.0,0.0,0.0,0.0,0.0,0.0,0.0,0.0,0.0,0.0,0.0,-1.7056,-1.7924,-1.9001,0.0,0.0,0.0,0.0,0.0,0.0,0.0,0.0,0.0,-3.1659,-3.1719,-3.2048,0.0,0.0,-3.3215,-3.3215,-3.3455,-3.3544,-3.3245,-3.3455,0.0,-3.3245,-3.2826,-3.2915,-3.4206,-3.5661,-3.6711,-3.7243,-3.7752,-3.8097,-3.8422,-3.8673,-3.8923,-3.8958,-3.6861,-3.5435,-3.5992,-3.5927,-3.5826,-3.6367,-3.6745,-3.6928,-3.7701,-3.4748,-3.3709,-3.3903,-3.4787,-3.4074,-3.5096,-3.7195,-3.6103,-3.4994,-3.3997,-3.4316,-3.2705,-2.9832,-2.9635,0.0,0.0,0.0,-3.1238,-3.2771,-3.2753,-3.3252,-3.412,-3.4434,-3.4405,-3.412,-3.3665,-3.2863,-3.1632,-3.1518,-2.8966,-2.4403,0.0,0.0,-2.4094,-2.5081,-2.6272,-2.7501,-2.7117,-2.6848,-2.6848,-2.6013,-2.5084,-2.4054,-2.4004,-2.3552,-2.2673,-2.2121,-2.1568,-2.0991,-1.9274,-1.7844,0.0,0.0,0.0,0.0,0.0,0.0,0.0,0.0,0.0,0.0,0.0,-1.5052,-1.2987,0.0,0.0,0.0,-1.7208,-1.8942,-1.9959,-2.1365,0.0,0.0,0.0,0.0,0.0,0.0,0.0,-3.0133,-3.1599,-3.2826,-3.3754,-3.3784,-3.3844,-3.4233,-3.4053,-3.3963,-3.4262,0.0,-3.4412,-3.4292,-3.4622,-3.4741,-3.4352,-3.4242,-3.4696,-3.6213,-3.7444,-3.8358,-3.8799,-3.9156,-3.9558,-3.9952,-4.0087,-4.0087,-4.0087,-3.8635,-3.7623,-3.7985,-3.8086,-3.8271,-3.8719,-3.8768,-3.8768,-4.1654,-4.1414,-3.896,-3.8212,-3.8571,-3.7973,-3.8063,-3.8571,-3.8003,-3.7644,-3.7584,-3.7554,-3.6507,-3.4651,-3.3455,0.0,-3.4711,-3.4711,-3.534,-3.6537,-3.5878,-3.5579,-3.5579,-3.5519,-3.5489,-3.5519,-3.4543,-3.4109,-3.4052,-3.3532,-3.2378,-3.0557,-2.9625,-2.908,-2.8963,-2.9233,-3.0038,-3.1219,-2.9679,-2.8837,-2.8716,-2.6729,-2.5159,-2.4104,-2.4054,-2.3753,-2.304,-2.2573,-2.2071,-2.1493,-2.0467,-1.9198,-1.7681,0.0,0.0,0.0,0.0,0.0,0.0,0.0,0.0,0.0,0.0,0.0,0.0,0.0,0.0,0.0,-2.1455,0.0,-2.3849,-2.6123,0.0,0.0,0.0,-2.8158,-2.9116,-3.0761,-3.184,-3.1988,0.0,0.0,-3.4801,-3.525,-3.5639,-3.5639,-3.504,-3.4801,-3.5429,-3.4951,-3.4771,-3.534,-3.5524,-3.5619,-3.5533,-3.6199,-3.6896,-3.7694,-3.8525,-3.8962,-3.9069,-3.9558,-4.0054,-4.0087,-4.0087,-4.0087,-4.0087,-3.9969,-4.0087,-3.9986,-4.002,-4.002,-3.9986,-3.9952,-3.9952,-4.4077,-4.3569,-4.294,-4.1893,-4.0666,-4.0516,-4.0516,-4.0666,-4.0516,-3.9858,-3.8931,-3.8931,-3.8123,-3.6716,-3.6387,-3.6417,-3.6716,-3.6716,-3.6866,-3.7135,-3.6537,-3.6267,-3.6237,-3.5759,-3.5489,-3.5489,-3.5264,-3.5133,-3.5133,-3.4984,-3.4688,-3.4214,-3.3958,-3.2587,-3.0235,-3.0542,-3.1166,-3.1974,-3.0974,-2.9916,-2.8716,-2.7114,-2.5737,-2.4657,-2.4632,-2.3954,-2.2573,-2.2372,-2.2046,-2.1493,-2.0835,-2.0434,-2.056,-1.8125,0.0,0.0,0.0,0.0,0.0,0.0,0.0,0.0,0.0,-2.0587,-1.6786,0.0,-2.2413,0.0,-2.4118,-2.5914,-2.6572,-2.725,0.0,0.0,-3.0133,-3.1091,-3.4233,-3.4592,-3.4921,-3.5908,-3.6567,-3.6896,-3.6746,-3.6866,-3.6956,-3.6926,-3.5968,-3.531,-3.5489,-3.537,-3.531,-3.5524,-3.6006,-3.6322,-3.6446,-3.7467,-3.8381,-3.8635,-3.9262,-3.9799,-3.9799,-3.9952,-4.0087,-4.0087,-4.0087,-4.0087,-4.0087,-4.0087,-4.0087,-4.0087,-4.0087,-4.0087,-4.0087,-4.0087,-4.0087,-4.5095,-4.4766,-4.4736,-4.4107,-4.306,-4.2192,-4.1803,-4.1803,-4.1504,-4.0965,-4.0277,-3.9978,-3.9439,-3.8721,-3.8422,-3.8302,-3.8302,-3.8003,-3.7853,-3.7823,-3.7195,-3.6896,-3.6866,-3.6237,-3.5938,-3.5938,-3.5639,-3.5489,-3.5489,-3.5489,-3.5489,-3.5489,-3.5489,-3.4562,-3.2826,-3.2992,-3.3304,-3.3621,-3.2585,-3.1244,-2.9794,-2.8598,-2.738,-2.5897,-2.5717,-2.4759,-2.2749,-2.2924,-2.2698,-2.187,-2.1288,-2.1353,-2.1979,-2.0025,-1.9364,0.0,0.0,0.0,0.0,0.0,0.0,0.0,0.0,0.0,0.0,0.0,-2.5345,-2.5315,-2.7679,-2.9505,-3.0133,-3.124,-3.2557,-3.3993,-3.3814,-3.4472,-3.6686,-3.6567,-3.6626,-3.7315,-3.7404,-3.7404,-3.7404,-3.7404,-3.7511,-3.7916,-3.7344,-3.6797,-3.6462,-3.6219,-3.6133,-3.6477,-3.6874,-3.7263,-3.7584,-3.8325,-3.9016,-3.9368,-3.9765,-4.0087,-4.0087,-4.0087,-4.0087,-4.0087,-4.0087,-4.0087,-4.0087,-4.0087,-4.0087,-4.0087,-4.0087,-4.0087,-4.0087,-4.0087,-4.0087,-4.5514,-4.5424,-4.5424,-4.5364,-4.5155,-4.3449,-4.2701,-4.2551,-4.1923,-4.1594,-4.1474,-4.0816,-4.0516,-4.0487,-3.9918,-3.9619,-3.9499,-3.8931,-3.8601,-3.8482,-3.7823,-3.7524,-3.7524,-3.6896,-3.6596,-3.6567,-3.5938,-3.5639,-3.5639,-3.5549,-3.5489,-3.5489,-3.5489,-3.5489,-3.5489,-3.5489,-3.5489,-3.5489,-3.3966,-3.2606,-3.1338,-3.0526,-2.9251,-2.7471,-2.7147,-2.5923,-2.356,-2.3908,-2.3679,-2.2694,-2.2235,-2.2323,-2.2898,-2.1971,-2.1908,0.0,-2.2383,0.0,0.0,0.0,0.0,0.0,0.0,0.0,0.0,-2.788,-2.8667,-2.9175,-3.1599,-3.3365,-3.3933,-3.6058,-3.7404,-3.7404,-3.7494,-3.7524,-3.7524,-3.7614,-3.7674,-3.7644,-3.7674,-3.7674,-3.7704,-3.7674,-3.7986,-3.8789,-3.8797,-3.8585,-3.8279,-3.7623,-3.74,-3.8019,-3.8194,-3.861,-3.9062,-3.928,-3.9648,-4.0155,-4.0392,-4.0409,-4.0426,-4.0426,-4.0392,-4.0426,-4.046,-4.0426,-4.0358,-4.0392,-4.0392,-4.046,-4.0493,-4.0392,-4.0155,-4.0087,-4.0087,-4.6621,-4.6142,-4.6112,-4.5813,-4.5274,-4.4885,-4.4436,-4.3898,-4.324,-4.2671,-4.2132,-4.1474,-4.1205,-4.1175,-4.1055,-4.0696,-4.0217,-4.0068,-3.9738,-3.92,-3.8512,-3.8212,-3.8153,-3.7524,-3.7225,-3.7195,-3.6596,-3.6297,-3.6297,-3.5759,-3.5489,-3.5489,-3.5489,-3.5489,-3.5489,0.0,0.0,0.0,-3.3995,-3.3099,-3.2758,-3.1499,-3.0117,-2.8774,-2.8216,0.0,-2.5188,-2.5131,-2.4914,-2.4285,-2.4641,0.0,0.0,0.0,0.0,0.0,0.0,0.0,0.0,0.0,0.0,0.0,-2.8667,-2.8128,-2.8278,-3.127,-3.3006,-3.2677,-3.4951,-3.6537,-3.6656,-3.7105,-3.7404,-3.7404,-3.7883,-3.8212,-3.8242,-3.8691,-3.902,-3.905,-3.902,-3.902,-3.896,-3.905,-3.9345,-4.0127,-3.9889,-4.0006,-4.1184,-4.0112,-3.9454,-3.9574,-4.004,-4.0568,-4.0721,-4.1197,-4.1298,-4.1238,-4.1508,-4.1779,-4.1813,-4.1813,-4.1847,-4.1813,-4.188,-4.1847,-4.1847,-4.188,-4.1779,-4.1847,-4.1847,-4.1508,-4.0358,-4.0087,-4.0087,-4.71,0.0,-4.68,-4.6591,0.0,-4.5933,-4.5603,-4.5244,-4.4257,-4.3449,-4.2791,-4.2162,-4.1863,-4.1863,-4.1534,-4.1205,-4.0876,-4.0905,-4.0516,-3.9888,-3.9559,-3.92,-3.8871,-3.8212,-3.7913,-3.7853,-3.7255,-3.6956,-3.6926,-3.6297,-3.5998,-3.5968,-3.5669,-3.5489,-3.5489,-3.5489,-3.5489,-3.5489,-3.4741,-3.4339,-3.4309,-3.3303,-3.2076,-3.0813,-3.0035,0.0,0.0,0.0,0.0,0.0,0.0,0.0,0.0,0.0,0.0,-2.8465,-2.8517,-2.8816,-2.9445,-2.9505,-3.0372,-3.2287,-3.2796,-3.2557,-3.1569,-3.3933,-3.5459,-3.5459,-3.6956,-3.7883,-3.7913,-3.8212,-3.8392,-3.8422,-3.8691,-3.8901,-3.8931,-3.92,-3.9409,-3.9439,-3.9439,-3.9553,-3.999,-4.006,-4.0554,-4.1723,-4.1693,-4.1908,-4.2899,-4.1774,-4.0678,-4.1082,-4.1455,-4.1741,-4.1741,-4.2016,-4.2219,-4.188,-4.2049,-4.2252,-4.2286,-4.2286,-4.2286,-4.2286,-4.2286,-4.2286,-4.2286,-4.2286,-4.2286,-4.2286,-4.2286,-4.2241,-4.1681,-4.1393,-4.117,-4.7309,-4.7309,-4.7309,-4.7309,-4.7249,-4.6741,-4.6441,-4.6232,0.0,0.0,0.0,-4.294,-4.2641,-4.2521,-4.1953,-4.1654,-4.1564,-4.1564,-4.1205,-4.0576,-4.0576,-4.0217,-3.9589,-3.902,-3.8691,-3.8542,-3.7883,-3.7584,-3.7554,-3.6956,-3.6596,-3.6447,-3.5938,-3.5639,-3.5519,-3.5489,-3.5489,-3.5489,-3.5489,-3.5489,-3.5489,-3.4951,-3.407,-3.282,-3.2024,-3.0787,-2.9096,-2.8947,-2.8556,-2.7626,-2.7712,-2.8197,-2.9201,-2.9404,-3.0366,-3.2288,-3.2617,-3.2976,-3.3604,-3.3664,-3.3993,-3.4771,-3.5848,-3.6028,-3.4891,-3.6058,-3.7015,-3.7524,-3.8182,-3.8631,-3.8751,-3.926,-3.9649,-3.9738,-3.9768,-3.9768,-3.9768,-3.9768,-3.9828,-3.9768,-3.9828,-4.01,-4.0986,-4.1124,-4.1708,-4.3222,-4.3629,-4.392,-4.4394,-4.3103,-4.2132,-4.261,-4.2787,-4.2726,-4.2523,-4.2692,-4.2625,-4.2557,-4.2625,-4.2692,-4.2692,-4.2692,-4.2692,-4.2828,-4.2692,-4.276,-4.2726,-4.2794,-4.2746,-4.2819,-4.2799,-4.2925,-4.3573,-4.3356,-4.2875,-4.7309,-4.7309,-4.7309,-4.7309,-4.7309,-4.7219,-4.686,-4.6262,-4.5484,-4.4796,-4.4167,-4.4077,-4.3718,-4.321,-4.309,-4.2761,-4.2222,-4.2222,-4.1863,-4.1265,-4.1235,-4.0905,-4.0277,-4.0157,-3.9828,-3.926,-3.8571,-3.8272,-3.8182,-3.7584,-3.7015,-3.6537,-3.6387,-3.6058,-3.5549,-3.5489,-3.5489,-3.5489,-3.5489,-3.5489,-3.5489,-3.54,-3.4976,-3.4226,-3.357,-3.2794,-3.1931,-3.1841,-3.1842,-3.1664,-3.2228,-3.2347,-3.202,-3.2467,-3.2676,-3.2557,-3.3036,-3.3634,-3.4292,-3.4322,-3.4891,-3.6058,-3.6387,-3.6417,-3.6267,-3.7404,-3.8153,-3.8272,-3.8871,-3.9499,-4.0038,-4.0187,-4.0457,-4.0965,-4.1085,-4.1115,-4.1055,-4.1025,-4.1025,-4.0995,-4.1115,-4.1472,-4.2262,-4.2474,-4.3205,-4.472,-4.509,-4.5275,-4.5303,-4.4733,-4.4204,-4.4248,-4.4248,-4.3978,-4.347,-4.3842,-4.3842,-4.3369,-4.3775,-4.4079,-4.4045,-4.4045,-4.4045,-4.4181,-4.4135,-4.4169,-4.4202,-4.4248,-4.4409,-4.468,-4.4502,-4.4643,-4.5572,-4.5376,-4.4798,-4.7309,-4.7309,-4.7309,-4.7309,-4.7309,-4.7309,-4.713,-4.683,-4.6531,-4.5813,-4.4885,-4.4855,-4.4496,-4.3898,-4.3868,-4.3509,-4.288,-4.291,-4.2551,-4.1923,-4.1893,-4.1564,-4.0935,-4.0576,-4.0247,-3.9918,-3.926,-3.8931,-3.8871,-3.8272,-3.7793,-3.7524,-3.7165,-3.6656,-3.6088,-3.6028,-3.5878,-3.5519,-3.5489,-3.5489,-3.5489,-3.5489,-3.534,-3.504,-3.4382,-3.3903,-3.3574,-3.3245,-3.3036,-3.3036,-3.3335,-3.3514,-3.3604,-3.3873,-3.4053,-3.4143,-3.4412,-3.4711,-3.5011,-3.537,-3.5968,-3.6896,-3.7315,-3.7524,-3.7524,-3.8063,-3.8691,-3.9409,-3.9768,-4.0217,-4.0846,-4.0935,-4.1055,-4.1354,-4.1384,-4.1384,-4.1384,-4.1384,-4.1384,-4.146,-4.1849,-4.2551,-4.3409,-4.3958,-4.4691,-4.5963,-4.6179,-4.6227,-4.6287,-4.6007,-4.5466,-4.4756,-4.4553,-4.4451,-4.4147,-4.4316,-4.4384,-4.4079,-4.435,-4.4553,-4.4553,-4.4587,-4.4643,-4.4609,-4.4886,-4.4906,-4.4754,-4.5161,-4.5494,-4.5425,-4.5648,-4.5965,-4.6646,-4.6955,-4.6624,-4.7309,-4.7309,-4.7309,-4.7309,-4.7309,-4.7309,-4.7309,-4.7309,-4.7309,-4.6711,-4.5813,-4.5603,-4.5155,-4.4556,-4.4377,-4.4047,-4.3599,-4.3389,-4.306,-4.2611,-4.2581,-4.2222,-4.1624,-4.1085,-4.0786,-4.0576,-3.9948,-3.9649,-3.9559,-3.896,-3.8542,-3.8332,-3.7734,-3.7165,-3.6716,-3.6686,-3.6387,-3.5759,-3.5729,-3.5669,-3.5519,-3.5489,-3.5489,-3.5459,-3.4981,-3.4711,-3.4681,-3.4203,-3.3963,-3.3933,-3.3933,-3.4173,-3.4681,-3.4711,-3.4951,-3.5459,-3.5639,-3.5789,-3.5968,-3.6387,-3.6956,-3.7584,-3.8093,-3.8512,-3.8811,-3.8841,-3.926,-4.0217,-4.0367,-4.0696,-4.1444,-4.1594,-4.1654,-4.1773,-4.1833,-4.1893,-4.1833,-4.2032,-4.2183,-4.2259,-4.2983,-4.3913,-4.4777,-4.5506,-4.6308,-4.7087,-4.7293,-4.7259,-4.7124,-4.7056,-4.6481,-4.5534,-4.5094,-4.5128,-4.506,-4.4925,-4.4959,-4.5026,-4.4959,-4.5026,-4.5151,-4.5241,-4.5341,-4.5521,-4.5959,-4.6204,-4.5853,-4.6307,-4.6843,-4.678,-4.6914,-4.7193,-4.7859,-4.8489,-4.836,-4.7309,-4.7309,-4.7309,-4.7309,-4.7309,-4.7309,-4.7309,-4.7309,-4.7309,-4.7279,-4.701,-4.6501,-4.5843,-4.5185,-4.4586,-4.4317,-4.4167,-4.3599,-4.3299,-4.324,-4.324,-4.291,-4.2282,-4.2192,-4.1863,-4.1265,-4.0636,-4.0307,-4.0277,-3.9649,-3.899,-3.8392,-3.7734,-3.7404,-3.7315,-3.7345,-3.7015,-3.6417,-3.6417,-3.6118,-3.5549,-3.5489,-3.5489,-3.5489,-3.5429,-3.54,-3.537,-3.534,-3.531,-3.531,-3.528,-3.534,-3.54,-3.54,-3.5429,-3.5549,-3.6088,-3.6626,-3.7165,-3.7285,-3.7614,-3.8212,-3.8392,-3.8931,-4.0081,-4.0187,-4.0217,-4.0531,-4.0531,-4.0995,-4.2073,-4.2359,-4.2617,-4.3193,-4.3157,-4.315,-4.3265,-4.3945,-4.4476,-4.4476,-4.5142,-4.6191,-4.6879,-4.721,-4.7699,-4.8422,-4.8511,-4.8342,-4.7936,-4.78,-4.7597,-4.6819,-4.6583,-4.6549,-4.6413,-4.6007,-4.593,-4.6336,-4.6065,-4.6045,-4.6453,-4.7017,-4.7484,-4.7176,-4.7943,-4.8226,-4.8247,-4.8635,-4.8758,-4.8697,-4.8722,-4.8806,-4.9469,-4.9956,-4.9724,-4.7878,-4.7848,-4.7459,-4.7309,-4.7309,-4.7309,-4.7309,-4.7309,-4.7309,-4.7309,-4.7279,-4.701,-4.6531,-4.5903,-4.5603,-4.5274,-4.4855,-4.4227,-4.3898,-4.3868,-4.3509,-4.321,-4.291,-4.2521,-4.2192,-4.1923,-4.1294,-4.0995,-4.0876,-4.0307,-3.9649,-3.905,-3.8721,-3.8392,-3.8033,-3.8003,-3.7674,-3.7045,-3.7015,-3.6896,-3.6567,-3.5878,-3.5489,-3.5489,-3.5489,-3.5489,-3.5489,-3.5489,-3.5489,-3.5489,-3.5489,-3.5669,-3.6058,-3.6088,-3.6237,-3.6596,-3.6866,-3.7315,-3.7943,-3.8003,-3.8272,-3.896,-3.9349,-4.0046,-4.1117,-4.1617,-4.2202,-4.29,-4.2223,-4.2182,-4.3579,-4.3808,-4.4127,-4.4868,-4.5048,-4.4974,-4.5048,-4.5342,-4.5634,-4.5706,-4.6454,-4.7172,-4.7605,-4.8096,-4.8576,-4.8923,-4.9018,-4.8849,-4.8578,-4.8578,-4.8443,-4.8206,-4.8105,-4.7665,-4.7056,-4.6583,-4.669,-4.7158,-4.7133,-4.7189,-4.7873,-4.8173,-4.8448,-4.8467,-4.9137,-4.9329,-4.8813,-4.9585,-5.0069,-5.0141,-5.0148,-5.0105,-5.0356,-5.0602,-5.0358,-4.9524,-4.9316,-4.845,-4.7946,-4.7679,-4.7366,-4.7309,-4.7309,-4.7309,-4.7309,-4.7309,-4.7624,-4.7267,-4.6591,-4.6411,-4.6052,-4.5514,-4.4885,-4.4466,-4.4287,-4.3808,-4.3509,-4.3299,-4.288,-4.2641,-4.2521,-4.1953,-4.1564,-4.1354,-4.0935,-4.0337,-3.9768,-3.9679,-3.9349,-3.8751,-3.8661,-3.8332,-3.7734,-3.7674,-3.7584,-3.7315,-3.6507,-3.6028,-3.6028,-3.6028,-3.6028,-3.6028,-3.6028,-3.6028,-3.6028,-3.6028,-3.6237,-3.6686,-3.6746,-3.7151,-3.7896,-3.8054,-3.8425,-3.9337,-3.9589,-3.9925,-4.0375,-4.1015,-4.1832,-4.2583,-4.32,-4.4047,-4.5069,-4.4226,-4.4062,-4.488,-4.5153,-4.5488,-4.6103,-4.6173,-4.6173,-4.6173,-4.6384,-4.6592,-4.6662,-4.7373,-4.7998,-4.8096,-4.8576,-4.9018,-4.9018,-4.9018,-4.9018,-4.9018,-4.8984,-4.8984,-4.9018,-4.9135,-4.8787,-4.7623,-4.7452,-4.7672,-4.8135,-4.8444,-4.8697,-4.9366,-4.9572,-4.9768,-5.0245,-5.0479,-5.0669,-5.0741,-5.1158,-5.1307,-5.1019,-5.1061,-5.1381,-5.1564,-5.1499,-5.1499,-5.2445,-5.2076,-5.0548,-4.9399,-4.8677,-4.7764,-4.7396,-4.7538,-4.7396,-4.7366,-4.7624,-4.8377,-4.821,-4.7332,-4.6846,-4.6322,-4.6172,-4.5574,-4.4945,-4.4466,-4.4317,-4.3928,-4.3359,-4.3299,-4.3269,-4.315,-4.2611,-4.2013,-4.1444,-4.143,-4.0995,-4.0397,-4.0484,-4.0111,-3.9643,-3.9595,-3.9092,-3.8692,-3.8572,-3.8202,-3.7593,-3.7443,-3.7451,-3.7451,-3.7315,-3.7225,-3.7255,-3.7285,-3.7285,-3.7315,-3.7225,-3.7315,-3.7375,-3.7443,-3.8152,-3.9411,-3.9637,-4.0278,-4.1595,-4.233,-4.2712,-4.2905,-4.3377,-4.4218,-4.4765,-4.4989,-4.541,-4.6115,-4.6147,-4.6173,-4.6237,-4.6333,-4.634,-4.648,-4.6378,-4.648,-4.641,-4.74,-4.7539,-4.777,-4.8489,-4.9005,-4.8996,-4.8923,-4.9154,-4.9187,-4.9086,-4.9154,-4.9221,-4.9154,-4.9209,-4.9297,-4.9555,-4.9711,-4.9052,-4.8884,-4.9145,-4.9602,-4.9959,-5.011,-5.088,-5.1472,-5.1658,-5.1907,-5.2207,-5.2498,-5.284,-5.292,-5.2815,-5.2621,-5.2547,-5.2747,-5.2491,-5.2931,-5.2858,-5.2973,-5.2525,-5.1391,-5.0787,-5.0454,-4.9676,-4.9247,-4.9327,-4.9327,-4.9327,-4.9327,-4.9694,-4.9615,-4.9215,-4.9077,-4.8173,-4.6946,-4.6262,-4.5813,-4.5544,-4.5155,-4.4586,-4.4018,-4.3958,-4.3718,-4.3329,-4.309,-4.2641,-4.2226,-4.2636,-4.2567,-4.213,-4.2576,-4.2698,-4.2416,-4.2009,-4.1664,-4.1413,-4.0939,-4.0595,-4.031,-4.0344,-4.0344,-4.0216,-3.8409,-3.7404,-3.7404,-3.7404,-3.7404,-3.7404,-3.7404,-3.7858,-3.8831,-3.9796,-4.057,-4.1148,-4.1625,-4.2105,-4.2685,-4.3359,-4.3842,-4.3875,-4.4417,-4.5269,-4.5961,-4.6518,-4.7111,-4.7803,-4.8463,-4.8663,-4.8564,-4.823,-4.8062,-4.8597,-4.9094,-4.926,-4.946,-4.9692,-4.9921,-4.9986,-5.0278,-5.0405,-5.0338,-5.0405,-5.0405,-5.0439,-5.0405,-5.0371,-5.043,-5.0373,-5.042,-5.0435,-5.0571,-5.0608,-5.039,-5.0325,-5.0506,-5.1028,-5.1441,-5.1658,-5.2253,-5.2417,-5.2571,-5.2535,-5.3066,-5.3146,-5.3109,-5.3109,-5.3225,-5.3225,-5.3225,-5.3225,-5.3188,-5.3225,-5.3225,-5.4587,-5.3857,-5.3026,-5.2462,-5.1932,-5.1096,-5.0621,-5.0429,-5.0397,-5.0397,-5.0474,-5.0703,-5.0703,-5.0474,-5.0703,-5.0009,-4.8346,-4.7834,-4.7497,-4.7252,-4.6793,-4.6321,-4.5738,-4.5646,-4.5231,-4.4618,-4.4343,-4.4006,-4.3714,-4.4289,-4.4203,-4.3647,-4.4209,-4.442,-4.4163,-4.3714,-4.3423,-4.3327,-4.2975,-4.2685,-4.2751,-4.2751,-4.2751,-4.2427,-4.0645,-3.9358,-3.8923,-3.8861,-3.8861,-3.8861,-3.8861,-3.9504,-4.0723,-4.1787,-4.2623,-4.3137,-4.3622,-4.4009,-4.4331,-4.4983,-4.5375,-4.5408,-4.6028,-4.6717,-4.7364,-4.7797,-4.842,-4.9232,-4.9763,-5.0135,-5.0312,-5.0091,-5.0058,-5.0447,-5.0913,-5.1217,-5.1217,-5.1153,-5.1119,-5.1085,-5.1051,-5.1183,-5.1217,-5.1217,-5.1183,-5.1217,-5.1376,-5.1595,-5.1589,-5.182,-5.1961,-5.1948,-5.2236,-5.2355,-5.2442,-5.2559,-5.183,-5.2102,-5.2361,-5.2798,-5.2937,-5.3103,-5.3225,-5.3225,-5.3225,-5.3225,-5.3225,-5.3225,-5.3225,-5.3225,-5.3225,-5.3225,-5.3225,-5.3225,-5.3225,-5.7369,-5.6511,-5.5713,-5.4369,-5.3165,-5.2118,-5.116,-5.0755,-5.0659,-5.0703,-5.093,-5.1557,-5.1484,-5.093,-5.1557,-5.1336,-5.055,-5.0333,-4.9904,-4.9209,-4.919,-4.8807,-4.8137,-4.8031,-4.7681,-4.7012,-4.6486,-4.6134,-4.5961,-4.6039,-4.5795,-4.5314,-4.5323,-4.5336,-4.4359,-4.4591,-4.4361,-4.4395,-4.4332,-4.4266,-4.4196,-4.4234,-4.43,-4.4266,-4.4005,-4.3329,-4.2045,-4.1949,-4.1788,-4.1885,-4.1885,-4.2333,-4.2911,-4.3267,-4.388,-4.5072,-4.5428,-4.5901,-4.6641,-4.7282,-4.7625,-4.7726,-4.8422,-4.8601,-4.8664,-4.8894,-4.9294,-4.983,-5.0202,-5.0507,-5.1217,-5.1727,-5.1796,-5.1386,-5.1386,-5.1522,-5.142,-5.1319,-5.1285,-5.142,-5.1488,-5.1285,-5.1285,-5.1583,-5.1715,-5.1936,-5.2303,-5.2691,-5.2785,-5.3212,-5.3458,-5.3638,-5.3806,-5.3953,-5.4484,-5.4937,-5.3816,-5.3007,-5.3134,-5.3323,-5.314,-5.3225,-5.3225,-5.3225,-5.3225,-5.3225,-5.3225,-5.3225,-5.3225,-5.3225,-5.3225,-5.3225,-5.3225,-5.3225,-5.3225,-5.7746,-5.7476,-5.6679,-5.6063,-5.5492,-5.4233,-5.349,-5.3257,-5.279,-5.2557,-5.259,-5.287,-5.28,-5.2661,-5.287,-5.28,-5.2557,-5.2487,-5.1678,-5.0305,-5.0121,-4.9812,-4.9235,-4.9138,-4.8679,-4.8006,-4.7301,-4.6981,-4.7027,-4.716,-4.7041,-4.7011,-4.7472,-4.7694,-4.7331,-4.7028,-4.6762,-4.6695,-4.6229,-4.5996,-4.5963,-4.5996,-4.5996,-4.5963,-4.5963,-4.5729,-4.5269,-4.4171,-4.3554,-4.3554,-4.3488,-4.3847,-4.4624,-4.5289,-4.5885,-4.6394,-4.6898,-4.7228,-4.7571,-4.8206,-4.8646,-4.8714,-4.8917,-4.8984,-4.9086,-4.9492,-4.9864,-5.0236,-5.0947,-5.1758,-5.2029,-5.2672,-5.2739,-5.2063,-5.2469,-5.2706,-5.2672,-5.2706,-5.2807,-5.2807,-5.2807,-5.3003,-5.3352,-5.3507,-5.3556,-5.3982,-5.4396,-5.457,-5.4684,-5.4812,-5.502,-5.5035,-5.5329,-5.5395,-5.567,-5.5789,-5.5195,-5.4301,-5.4195,-5.3995,-5.3702,-5.3555,-5.3482,-5.3482,-5.3445,-5.3408,-5.3371,-5.3408,-5.3518,-5.3408,-5.3445,-5.3371,-5.3261,-5.3371,-5.3592,-5.7881,-5.7848,-5.7408,-5.7036,-5.6731,-5.575,-5.5243,-5.4938,-5.4228,-5.3923,-5.389,-5.3619,-5.3518,-5.3518,-5.3518,-5.3518,-5.3518,-5.3518,-5.28,-5.1704,-5.1557,-5.1296,-5.091,-5.0615,-5.032,-4.9796,-4.9108,-4.8711,-4.8748,-4.8861,-4.8827,-4.8757,-4.914,-4.9159,-4.9018,-4.8578,-4.8308,-4.824,-4.7868,-4.7631,-4.7631,-4.7597,-4.7631,-4.7631,-4.7631,-4.7597,-4.7537,-4.651,-4.5701,-4.5275,-4.5177,-4.5563,-4.6329,-4.6952,-4.7327,-4.7665,-4.8003,-4.8342,-4.8376,-4.8714,-4.9154,-4.9323,-4.939,-4.956,-4.983,-5.0338,-5.0574,-5.1048,-5.1691,-5.2435,-5.2773,-5.3145,-5.3247,-5.2841,-5.3145,-5.3484,-5.3518,-5.3518,-5.3484,-5.3483,-5.3649,-5.4106,-5.4482,-5.4939,-5.5144,-5.5667,-5.5948,-5.6114,-5.6206,-5.6356,-5.6428,-5.6515,-5.6609,-5.6612,-5.6557,-5.6492,-5.6381,-5.5786,-5.5236,-5.4876,-5.4546,-5.4473,-5.4436,-5.4473,-5.4473,-5.4509,-5.4509,-5.4399,-5.4399,-5.4106,-5.3959,-5.4252,-5.4436,-5.4363,-5.4473,-5.7915,-5.7881,-5.7881,-5.7476,-5.6934,-5.6731,-5.6292,-5.5716,-5.4972,-5.46,-5.4431,-5.3923,-5.3585,-5.3518,-5.3518,-5.3518,-5.3518,-5.3518,-5.3416,-5.328,-5.3212,-5.3111,-5.2908,-5.2404,-5.2102,-5.2001,-5.1393,-5.1155,-5.0892,-5.0854,-5.0879,-5.0139,-5.0071,-4.9864,-4.9424,-4.9154,-4.9221,-4.9221,-4.9154,-4.9086,-4.9018,-4.9018,-4.9018,-4.8984,-4.8984,-4.8984,-4.8889,-4.8697,-4.8219,-4.7098,-4.6911,-4.7214,-4.7774,-4.797,-4.8274,-4.8781,-4.8984,-4.9052,-4.9052,-4.9289,-4.956,-5.0067,-5.0168,-5.0405,-5.0913,-5.115,-5.1454,-5.1995,-5.2334,-5.2706,-5.3281,-5.3484,-5.345,-5.3484,-5.3484,-5.3518,-5.3518,-5.3518,-5.3551,-5.3717,-5.4136,-5.4695,-5.4878,-5.5437,-5.578,-5.6114,-5.658,-5.6876,-5.7029,-5.7304,-5.7784,-5.7813,-5.7547,-5.7437,-5.7226,-5.7226,-5.7116,-5.6859,-5.6308,-5.5831,-5.5317,-5.517,-5.5133,-5.5207,-5.539,-5.5464,-5.539,-5.517,-5.5097,-5.5023,-5.5133,-5.5537,-5.5464,-5.517,-5.5133,-5.8389,-5.7915,-5.7881,-5.778,-5.7543,-5.707,-5.6731,-5.6427,-5.575,-5.5141,-5.4668,-5.4397,-5.4025,-5.3551,-5.3518,-5.3518,-5.3518,-5.3518,-5.3518,-5.3518,-5.3518,-5.3518,-5.3518,-5.3315,-5.3179,-5.3044,-5.2401,-5.2029,-5.1961,-5.1589,-5.1183,-5.0947,-5.0913,-5.0811,-5.0642,-5.0541,-5.0642,-5.0642,-5.0608,-5.0304,-4.9864,-4.9796,-4.9796,-4.9796,-4.9796,-4.9796,-4.9796,-4.9796,-4.9424,-4.8545,-4.8409,-4.8477,-4.8714,-4.8781,-4.8917,-4.912,-4.956,-4.9796,-4.9898,-5.027,-5.071,-5.0879,-5.0913,-5.1014,-5.1183,-5.1725,-5.2063,-5.2401,-5.2773,-5.3247,-5.3484,-5.3484,-5.3518,-5.3518,-5.3618,-5.3618,-5.3551,-5.3518,-5.3651,-5.42,-5.4544,-5.5179,-5.5928,-5.6367,-5.6773,-5.718,-5.7413,-5.7631,-5.7642,-5.7726,-5.7997,-5.7997,-5.785,-5.7923,-5.7886,-5.7886,-5.785,-5.774,-5.7299,-5.6785,-5.6161,-5.5611,-5.5537,-5.5537,-5.5868,-5.6014,-5.5757,-5.55,-5.5611,-5.5941,-5.5868,-5.5978,-5.5757,-5.55,-5.5611,-5.9032,-5.8389,-5.8355,-5.8186,-5.7881,-5.7442,-5.7239,-5.7103,-5.6494,-5.5953,-5.5513,-5.5175,-5.4668,-5.3991,-5.3957,-5.3788,-5.3551,-5.3518,-5.3518,-5.3518,-5.3518,-5.3518,-5.3518,-5.3518,-5.3518,-5.345,-5.3044,-5.2841,-5.2739,-5.2367,-5.2029,-5.1725,-5.1657,-5.1522,-5.115,-5.1217,-5.1251,-5.1217,-5.1217,-5.098,-5.0608,-5.0574,-5.0574,-5.0574,-5.0574,-5.0574,-5.0574,-5.0574,-5.0236,-4.9695,-4.9729,-4.9932,-4.9932,-4.9932,-4.9932,-4.9965,-5.0371,-5.0574,-5.0642,-5.1014,-5.1352,-5.1589,-5.1691,-5.186,-5.2164,-5.2604,-5.2807,-5.2909,-5.3281,-5.345,-5.3551,-5.3783,-5.3946,-5.4042,-5.4235,-5.4299,-5.4011,-5.4011,-5.4328,-5.4878,-5.5379,-5.5816,-5.6861,-5.7152,-5.7534,-5.7821,-5.7867,-5.7914,-5.7914,-5.7997,-5.7997,-5.7997,-5.7997,-5.7997,-5.7997,-5.7997,-5.7997,-5.7923,-5.785,-5.7409,-5.7042,-5.6345,-5.6492,-5.6528,-5.6565,-5.6528,-5.6418,-5.6418,-5.6748,-5.6895,-5.6638,-5.6528,-5.6492,-5.6235,-5.6308,-5.9776,-5.9099,-5.9032,-5.8626,-5.8084,-5.7915,-5.7814,-5.7746,-5.7171,-5.6833,-5.6562,-5.6089,-5.5412,-5.4735,-5.4499,-5.4228,-5.3653,-5.3551,-5.3518,-5.3518,-5.3518,-5.3518,-5.3518,-5.3518,-5.3518,-5.3484,-5.3518,-5.345,-5.3348,-5.3348,-5.3078,-5.2604,-5.2435,-5.2131,-5.1826,-5.1623,-5.1488,-5.1623,-5.1725,-5.1589,-5.1386,-5.1319,-5.1319,-5.1319,-5.1319,-5.1319,-5.1319,-5.1319,-5.1014,-5.0371,-5.0913,-5.1048,-5.1116,-5.115,-5.115,-5.1116,-5.1183,-5.1319,-5.1386,-5.1522,-5.1792,-5.2334,-5.2435,-5.2706,-5.3179,-5.3348,-5.3415,-5.3547,-5.3584,-5.3783,-5.4011,-5.4391,-5.4634,-5.4757,-5.5262,-5.532,-5.4999,-5.4757,-5.4964,-5.5724,-5.6474,-5.6809,-5.7166,-5.7498,-5.7997,-5.7914,-5.7997,-5.7997,-5.7997,-5.7997,-5.7997,-5.7997,-5.7997,-5.7997,-5.7997,-5.7997,-5.7997,-5.796,-5.796,-5.7776,-5.7776,-5.7483,-5.7703,-5.774,-5.7373,-5.7336,-5.7519,-5.7666,-5.7776,-5.7703,-5.7336,-5.7593,-5.7813,-5.7409,-5.7299,-6.0588,-5.981,-5.9235,-5.893,-5.8693,-5.8152,-5.7881,-5.7881,-5.7712,-5.7306,-5.6867,-5.663,-5.6156,-5.5446,-5.4972,-5.4499,-5.4262,-5.389,-5.3518,-5.3518,-5.3518,-5.3518,-5.3484,-5.3551,-5.3484,-5.3518,-5.3518,-5.3518,-5.3518,-5.3484,-5.3416,-5.3247,-5.3112,-5.3145,-5.2976,-5.2807,-5.301,-5.301,-5.2976,-5.257,-5.2131,-5.2063,-5.2097,-5.2063,-5.2063,-5.2063,-5.2063,-5.2063,-5.1995,-5.1792,-5.1488,-5.142,-5.1386,-5.1352,-5.1386,-5.1522,-5.1826,-5.2063,-5.2164,-5.257,-5.3044,-5.3112,-5.3145,-5.3315,-5.3416,-5.3551,-5.3815,-5.4136,-5.4391,-5.4606,-5.4999,-5.532,-5.5437,-5.5552,-5.5724,-5.6004,-5.6204,-5.5836,-5.5836,-5.6421,-5.6825,-5.7116,-5.7642,-5.7774,-5.7997,-5.7997,-5.7997,-5.7997,-5.7997,-5.7997,-5.7997,-5.7997,-5.7997,-5.8006,-5.8194,-5.8282,-5.8332,-5.8332,-5.8289,-5.8245,-5.8282,-5.815,-5.8238,-5.8105,-5.7923,-5.7997,-5.7997,-5.796,-5.7886,-5.796,-5.7997,-5.7997,-5.7997,-5.7997,-5.7997,-6.1366,-6.0622,-6.025,-5.9844,-5.9438,-5.8761,-5.8423,-5.8355,-5.8017,-5.7679,-5.7374,-5.7306,-5.69,-5.6224,-5.5818,-5.548,-5.511,-5.4734,-5.4544,-5.4523,-5.4544,-5.4328,-5.4042,-5.3946,-5.3881,-5.3618,-5.3518,-5.3518,-5.3518,-5.3518,-5.3518,-5.3518,-5.3518,-5.345,-5.3518,-5.3585,-5.345,-5.345,-5.3518,-5.3281,-5.2942,-5.2875,-5.2875,-5.2875,-5.2875,-5.2875,-5.2875,-5.2875,-5.2875,-5.2773,-5.2469,-5.2266,-5.2266,-5.2266,-5.2266,-5.2367,-5.2604,-5.2841,-5.301,-5.3213,-5.3484,-5.3518,-5.3518,-5.3717,-5.3881,-5.3977,-5.4356,-5.4878,-5.5144,-5.532,-5.5631,-5.6114,-5.6204,-5.6367,-5.658,-5.6978,-5.7166,-5.6721,-5.6527,-5.7166,-5.7449,-5.7631,-5.7867,-5.7997,-5.8042,-5.8042,-5.8006,-5.8006,-5.7997,-5.7997,-5.7997,-5.7997,-5.7997,-5.8097,-5.8375,-5.8591,-5.8796,-5.8874,-5.8874,-5.8874,-5.8874,-5.8676,-5.8549,-5.8375,-5.815,-5.796,-5.7997,-5.7997,-5.8051,-5.8042,-5.8042,-5.7997,-5.8006,-5.8097,-5.8051,-6.2042,-6.1467,-6.1332,-6.0892,-6.0216,-5.9505,-5.9099,-5.8896,-5.8468,-5.8345,-5.8137,-5.8209,-5.8083,-5.7464,-5.726,-5.6781,-5.6268,-5.6111,-5.6108,-5.6141,-5.5847,-5.5518,-5.5122,-5.4834,-5.4544,-5.3849,-5.3783,-5.3783,-5.3946,-5.3815,-5.4106,-5.3881,-5.3881,-5.4042,-5.3946,-5.3849,-5.4011,-5.4042,-5.4042,-5.4042,-5.3909,-5.3909,-5.3844,-5.3681,-5.3449,-5.3382,-5.3382,-5.3382,-5.3517,-5.3685,-5.3551,-5.3551,-5.3618,-5.3484,-5.3518,-5.345,-5.3382,-5.3482,-5.3613,-5.3715,-5.3783,-5.3783,-5.3915,-5.4171,-5.4606,-5.4818,-5.5144,-5.5667,-5.6004,-5.6169,-5.6114,-5.6632,-5.7015,-5.7116,-5.7642,-5.7914,-5.7867,-5.7449,-5.7449,-5.7726,-5.7821,-5.7867,-5.7914,-5.7997,-5.8042,-5.8097,-5.8097,-5.8142,-5.8142,-5.8231,-5.8289,-5.8418,-5.8508,-5.8549,-5.8796,-5.8913,-5.9139,-5.9248,-5.9319,-5.9319,-5.9319,-5.9102,-5.8874,-5.8591,-5.8375,-5.8289,-5.8332,-5.8503,-5.8461,-5.8231,-5.8282,-5.8508,-5.8461,-5.8238,-5.8238,-6.2313,-6.2144,-6.1569,-6.1197,-6.0994,-6.025,-5.9648,-5.918,-5.9734,-5.953,-5.908,-5.9639,-5.9762,-5.958,-5.9108,-5.8475,-5.7886,-5.7776,-5.7777,-5.7654,-5.7228,-5.6737,-5.6516,-5.6082,-5.5613,-5.5203,-5.4922,-5.4965,-5.5119,-5.532,-5.5059,-5.5262,-5.5203,-5.5203,-5.5144,-5.532,-5.5119,-5.5024,-5.5059,-5.5119,-5.5119,-5.5084,-5.4878,-5.4454,-5.3977,-5.3717,-5.3618,-5.3618,-5.3783,-5.4264,-5.3849,-5.3946,-5.4171,-5.3946,-5.3685,-5.3618,-5.3751,-5.3946,-5.4328,-5.4419,-5.4757,-5.5179,-5.5238,-5.5297,-5.5495,-5.5623,-5.6162,-5.6795,-5.7347,-5.7619,-5.7594,-5.785,-5.7799,-5.7894,-5.805,-5.818,-5.8097,-5.8134,-5.8087,-5.8428,-5.8272,-5.8051,-5.8105,-5.8238,-5.8418,-5.8508,-5.8591,-5.8676,-5.8835,-5.8951,-5.9028,-5.9102,-5.9212,-5.9212,-5.9284,-5.9319,-5.9458,-5.9526,-5.9592,-5.9592,-5.9559,-5.9424,-5.9212,-5.9176,-5.9065,-5.899,-5.9028,-5.9028,-5.899,-5.8835,-5.899,-5.9102,-5.8951,-5.8756,-5.8951,-6.2415,-6.2425,-6.248,-6.2535,-6.2513,-6.2191,-6.1883,-6.1502,-6.1142,-6.0779,-6.0458,-6.0423,-6.0397,-6.0326,-6.0078,-5.9681,-5.9459,-5.9337,-5.9346,-5.9168,-5.8878,-5.8448,-5.814,-5.7691,-5.762,-5.7529,-5.7214,-5.6396,-5.5794,-5.5667,-5.5816,-5.5667,-5.5724,-5.5724,-5.5724,-5.5667,-5.5724,-5.5724,-5.578,-5.578,-5.5724,-5.5724,-5.5437,-5.5144,-5.4878,-5.4668,-5.4606,-5.4606,-5.4757,-5.5059,-5.4852,-5.4878,-5.4939,-5.4852,-5.4454,-5.4235,-5.4391,-5.473,-5.5084,-5.5144,-5.532,-5.561,-5.5724,-5.5948,-5.6311,-5.6779,-5.7441,-5.8405,-5.8921,-5.9245,-5.9271,-5.9171,-5.9245,-5.9245,-5.9208,-5.9171,-5.9265,-5.9456,-5.9472,-5.9375,-5.898,-5.8725,-5.8424,-5.8632,-5.8835,-5.8951,-5.9103,-5.9361,-5.9647,-5.9639,-5.9782,-5.9592,-5.9625,-5.9722,-5.9792,-5.9885,-5.9885,-5.9916,-5.9946,-5.9946,-5.9977,-5.9946,-6.0074,-6.0132,-5.9977,-5.9592,-5.9389,-5.9248,-5.9354,-5.9424,-5.9389,-5.9389,-5.9354,-5.9389,-5.9492,-6.2659,-6.2736,-6.3574,-6.3971,-6.4008,-6.4031,-6.3972,-6.3683,-6.2781,-6.2266,-6.1981,-6.1557,-6.126,-6.1152,-6.1033,-6.087,-6.0829,-6.0919,-6.0893,-6.0797,-6.0567,-6.0222,-5.9932,-5.9595,-5.9377,-5.918,-5.9216,-5.8519,-5.7424,-5.7065,-5.6687,-5.6689,-5.6473,-5.6276,-5.6313,-5.6385,-5.6169,-5.6169,-5.6169,-5.6169,-5.6169,-5.6004,-5.5948,-5.5893,-5.578,-5.561,-5.5495,-5.5495,-5.5667,-5.578,-5.578,-5.5724,-5.5893,-5.609,-5.5914,-5.5472,-5.5565,-5.5724,-5.5984,-5.6197,-5.6415,-5.6779,-5.6652,-5.7083,-5.7526,-5.8362,-5.9037,-6.0139,-6.0346,-6.0236,-6.0162,-6.0309,-6.0309,-6.0272,-6.0272,-6.0441,-6.049,-6.0648,-6.0799,-6.0513,-5.9883,-5.9775,-5.9851,-5.9851,-6.0229,-6.0516,-6.0694,-6.0823,-6.1012,-6.0555,-6.0433,-6.0099,-6.0006,-6.0189,-6.0311,-6.0456,-6.0456,-6.0456,-6.0456,-6.0456,-6.0533,-6.0647,-6.0671,-6.0597,-6.0338,-5.9977,-5.976,-5.9696,-5.9885,-5.9946,-5.9792,-5.976,-5.9916,-5.9946,-5.9977,-6.3501,-6.3647,-6.4495,-6.4866,-6.4866,-6.4923,-6.4534,-6.4095,-6.4495,-6.4302,-6.3711,-6.3621,-6.3507,-6.3252,-6.2668,-6.2479,-6.242,-6.2311,-6.2251,-6.2144,-6.1704,-6.1398,-6.1153,-6.0579,-6.0481,-6.0468,-6.0371,-6.0164,-5.9589,-5.9502,-5.9237,-5.8713,-5.8482,-5.8446,-5.7813,-5.7764,-5.7726,-5.7763,-5.7715,-5.7679,-5.7498,-5.7065,-5.6773,-5.6616,-5.6259,-5.5984,-5.6111,-5.6201,-5.6347,-5.6848,-5.6221,-5.6185,-5.6724,-5.7493,-5.7745,-5.7299,-5.6723,-5.6039,-5.6867,-5.7493,-5.8027,-5.8478,-5.9078,-5.97,-5.9774,-5.981,-6.0164,-6.0261,-6.0493,-6.0639,-6.0713,-6.0577,-6.0456,-6.0662,-6.095,-6.1069,-6.1224,-6.2055,-6.222,-6.237,-6.1981,-6.1833,-6.1833,-6.176,-6.1757,-6.2026,-6.2277,-6.2319,-6.224,-6.1715,-6.1409,-6.1141,-6.095,-6.1095,-6.0891,-6.1041,-6.0911,-6.0896,-6.0819,-6.0819,-6.0781,-6.0781,-6.0781,-6.0671,-6.0482,-6.0456,-6.0338,-6.0338,-6.0572,-6.0482,-6.0283,-6.043,-6.0647,-6.0622,-6.0456,-6.6029,-6.5161,-6.564,-6.5779,-6.5842,-6.6307,-6.6365,-6.6062,-6.5912,-6.5696,-6.5314,-6.4924,-6.453,-6.4053,-6.3209,-6.2805,-6.2805,-6.2842,-6.2805,-6.2805,-6.2438,-6.2254,-6.2218,-6.1961,-6.1777,-6.1667,-6.1741,-6.1801,-6.1557,-6.0823,-6.0162,-5.9979,-5.9905,-5.9711,-5.9208,-5.9318,-5.9391,-5.9234,-5.8904,-5.8474,-5.806,-5.7726,-5.7534,-5.7534,-5.7202,-5.7232,-5.7505,-5.7717,-5.8072,-5.8651,-5.8471,-5.8507,-5.8833,-5.9224,-5.9356,-5.932,-5.8827,-5.8595,-5.8906,-5.9211,-5.9505,-5.9761,-6.0272,-6.0444,-6.0896,-6.108,-6.1337,-6.1777,-6.1777,-6.1741,-6.1765,-6.204,-6.2179,-6.2197,-6.2116,-6.2454,-6.278,-6.3238,-6.3748,-6.3905,-6.4016,-6.3764,-6.3497,-6.3146,-6.2955,-6.2997,-6.3034,-6.3039,-6.3002,-6.2734,-6.2529,-6.24,-6.2246,-6.2156,-6.1848,-6.1666,-6.1281,-6.1166,-6.0858,-6.0858,-6.0819,-6.0781,-6.0781,-6.0781,-6.0671,-6.0671,-6.0781,-6.0757,-6.071,-6.0734,-6.0781,-6.0781,-6.0781,-6.0757,-6.0647,-6.8677,-6.749,-6.715,-6.7026,-6.7048,-6.7506,-6.765,-6.7577,-6.7063,-6.6806,-6.6586,-6.5962,-6.5154,-6.4457,-6.3833,-6.3503,-6.3172,-6.3135,-6.2952,-6.2879,-6.2805,-6.2768,-6.2695,-6.2695,-6.2695,-6.2805,-6.2585,-6.2585,-6.2328,-6.1741,-6.1043,-6.0713,-6.0713,-6.0493,-6.0382,-6.0236,-6.0199,-6.0126,-5.9722,-5.9245,-5.8841,-5.8694,-5.8647,-5.8611,-5.8657,-5.8877,-5.9391,-5.9454,-5.9821,-6.0078,-6.0103,-5.9981,-6.0103,-6.0359,-6.0543,-6.0652,-6.0554,-6.0823,-6.0799,-6.0799,-6.075,-6.075,-6.1006,-6.1447,-6.1777,-6.1924,-6.2034,-6.2585,-6.2622,-6.2708,-6.3025,-6.3334,-6.3363,-6.3547,-6.3871,-6.4257,-6.4554,-6.4685,-6.48,-6.4891,-6.5033,-6.5344,-6.496,-6.4437,-6.4155,-6.4026,-6.3897,-6.382,-6.3705,-6.3666,-6.3397,-6.3205,-6.3012,-6.2858,-6.2627,-6.2281,-6.1858,-6.155,-6.1281,-6.1166,-6.1281,-6.1012,-6.0781,-6.0781,-6.0935,-6.0781,-6.0781,-6.0781,-6.0781,-6.0781,-6.0781,-6.0781,-6.0781,-6.0781,-6.0781,-7.106,-7.082,-6.9338,-6.8678,-6.8605,-6.8017,-6.7687,-6.7687,-6.7614,-6.754,-6.7393,-6.6733,-6.5888,-6.5301,-6.4971,-6.453,-6.398,-6.398,-6.3649,-6.3172,-6.2842,-6.3025,-6.3025,-6.2989,-6.2879,-6.2805,-6.2805,-6.2805,-6.2768,-6.2548,-6.1998,-6.163,-6.152,-6.1043,-6.0823,-6.0823,-6.0676,-6.0639,-6.0382,-6.0272,-6.0052,-6.0015,-6.0015,-6.0052,-6.0162,-6.0272,-6.0346,-6.0309,-6.0493,-6.0676,-6.0786,-6.075,-6.0933,-6.1263,-6.1484,-6.1594,-6.2144,-6.2401,-6.2401,-6.1887,-6.1557,-6.1704,-6.1998,-6.2365,-6.2475,-6.2658,-6.2805,-6.2842,-6.3015,-6.3258,-6.3428,-6.3674,-6.4431,-6.4784,-6.5234,-6.5445,-6.5612,-6.5525,-6.5656,-6.5793,-6.591,-6.609,-6.5859,-6.5205,-6.5013,-6.4897,-6.4936,-6.482,-6.4628,-6.4474,-6.4089,-6.382,-6.3551,-6.3397,-6.332,-6.3051,-6.2858,-6.2551,-6.2204,-6.205,-6.205,-6.1627,-6.1358,-6.132,-6.1473,-6.1127,-6.0896,-6.1127,-6.1166,-6.0896,-6.0781,-6.0781,-6.0781,-6.0781,-6.0781,-7.2055,-7.1945,-7.0844,-6.9816,-6.8862,-6.8054,-6.7687,-6.7687,-6.7687,-6.7687,-6.765,-6.688,-6.6329,-6.5999,-6.5448,-6.5154,-6.4861,-6.4824,-6.4567,-6.4457,-6.4347,-6.4053,-6.3833,-6.3503,-6.3392,-6.2989,-6.2879,-6.2805,-6.2805,-6.2989,-6.2732,-6.2401,-6.2438,-6.2218,-6.1961,-6.1704,-6.152,-6.119,-6.108,-6.097,-6.0419,-6.0419,-6.0419,-6.0419,-6.0419,-6.0713,-6.1006,-6.1117,-6.141,-6.1704,-6.1814,-6.1777,-6.1741,-6.2144,-6.2328,-6.2438,-6.3135,-6.3539,-6.3466,-6.2879,-6.2365,-6.2365,-6.2622,-6.2879,-6.3038,-6.2879,-6.2842,-6.3015,-6.3685,-6.4242,-6.4369,-6.5382,-6.6327,-6.6425,-6.6516,-6.6667,-6.6719,-6.6634,-6.6538,-6.6692,-6.6551,-6.6474,-6.6205,-6.582,-6.5782,-6.5782,-6.582,-6.5782,-6.5474,-6.5243,-6.4859,-6.4666,-6.4474,-6.4282,-6.4166,-6.4051,-6.3935,-6.3551,-6.3166,-6.2974,-6.2858,-6.2781,-6.2551,-6.2358,-6.2204,-6.2166,-6.205,-6.182,-6.155,-6.1166,-6.0935,-6.0781,-6.0781,-6.0896,-6.1089,-7.2532,-7.2422,-7.1651,-7.0513,-6.9229,-6.8385,-6.7907,-6.7687,-6.7687,-6.7687,-6.765,-6.7063,-6.6843,-6.6659,-6.6366,-6.5852,-6.5742,-6.5632,-6.5485,-6.5301,-6.5081,-6.4934,-6.464,-6.4383,-6.42,-6.3613,-6.3576,-6.3649,-6.3723,-6.3576,-6.3649,-6.3686,-6.3539,-6.3392,-6.2732,-6.2768,-6.2511,-6.2108,-6.1887,-6.1741,-6.119,-6.119,-6.1227,-6.1263,-6.13,-6.1484,-6.1851,-6.1998,-6.2181,-6.2511,-6.2695,-6.2732,-6.2879,-6.3025,-6.3172,-6.3466,-6.3906,-6.442,-6.4273,-6.4016,-6.3576,-6.3686,-6.3686,-6.375,-6.3714,-6.3763,-6.4177,-6.4382,-6.5067,-6.5507,-6.567,-6.6706,-6.7343,-6.7355,-6.7582,-6.7763,-6.7801,-6.7752,-6.7626,-6.759,-6.7398,-6.7321,-6.7205,-6.6898,-6.6397,-6.6244,-6.5897,-6.5897,-6.5782,-6.5628,-6.5628,-6.5551,-6.5513,-6.532,-6.5128,-6.4936,-6.4782,-6.4628,-6.4243,-6.382,-6.3705,-6.3628,-6.3397,-6.2974,-6.2935,-6.3205,-6.3051,-6.2627,-6.2012,-6.1396,-6.132,-6.132,-6.1512,-6.1666,-6.1858,-7.2532,-7.2422,-7.1651,-7.0881,-7.0,-6.9229,-6.8458,-6.7834,-6.7724,-6.7687,-6.7687,-6.754,-6.754,-6.7504,-6.7283,-6.6953,-6.6549,-6.6439,-6.6219,-6.5778,-6.5778,-6.5485,-6.5301,-6.5228,-6.5118,-6.5228,-6.4971,-6.4824,-6.5007,-6.4824,-6.4934,-6.4971,-6.4714,-6.4347,-6.2989,-6.2842,-6.2842,-6.2842,-6.2879,-6.2842,-6.2658,-6.2585,-6.2585,-6.2365,-6.2328,-6.2438,-6.2732,-6.2805,-6.2989,-6.3246,-6.3282,-6.3282,-6.3282,-6.3796,-6.4016,-6.4127,-6.4824,-6.5264,-6.5301,-6.5264,-6.5191,-6.4985,-6.4779,-6.5066,-6.5691,-6.5911,-6.5821,-6.5816,-6.6632,-6.7013,-6.7376,-6.7725,-6.8204,-6.8541,-6.8767,-6.8898,-6.8936,-6.8975,-6.8859,-6.8513,-6.8398,-6.8359,-6.8321,-6.8052,-6.7282,-6.6744,-6.6128,-6.5936,-6.5974,-6.5897,-6.5897,-6.5897,-6.5897,-6.5782,-6.5551,-6.5705,-6.5667,-6.5513,-6.5243,-6.4782,-6.4436,-6.4243,-6.3935,-6.3551,-6.3743,-6.4128,-6.3782,-6.332,-6.2743,-6.2281,-6.2127,-6.2127,-6.2281,-6.2397,-6.2512,-7.2532,-7.2496,-7.2202,-7.1615,-7.0844,-7.0036,-6.9229,-6.8495,-6.7944,-6.7687,-6.7687,-6.7687,-6.7687,-6.7687,-6.765,-6.7504,-6.732,-6.7283,-6.699,-6.688,-6.6769,-6.6512,-6.6256,-6.6035,-6.5852,-6.5448,-6.5338,-6.5448,-6.5264,-6.5485,-6.5375,-6.5301,-6.5521,-6.5044,-6.464,-6.4457,-6.4494,-6.4494,-6.442,-6.4237,-6.3723,-6.3649,-6.3429,-6.2952,-6.2952,-6.3172,-6.3613,-6.3649,-6.3833,-6.42,-6.4237,-6.4273,-6.431,-6.4787,-6.4861,-6.5044,-6.5668,-6.6366,-6.6696,-6.6806,-6.6292,-6.5934,-6.578,-6.6044,-6.6135,-6.6453,-6.6663,-6.7165,-6.7878,-6.824,-6.8455,-6.9421,-6.9942,-7.0046,-7.0244,-7.0206,-7.0244,-7.0206,-7.009,-6.9552,-6.9244,-6.8898,-6.8744,-6.8898,-6.8321,-6.7782,-6.7244,-6.6474,-6.6282,-6.6051,-6.5936,-6.5897,-6.5897,-6.5897,-6.5897,-6.5897,-6.5897,-6.5705,-6.5667,-6.559,-6.5243,-6.4897,-6.4936,-6.4782,-6.4897,-6.5013,-6.4666,-6.4282,-6.3705,-6.3281,-6.3205,-6.3012,-6.3012,-6.3051,-6.3012,-7.2532,-7.2532,-7.2532,-7.2202,-7.1651,-7.0844,-7.0073,-6.9302,-6.8752,-6.8385,-6.8164,-6.8128,-6.7944,-6.776,-6.7687,-6.7687,-6.7687,-6.7687,-6.7687,-6.7687,-6.765,-6.7283,-6.7026,-6.688,-6.6696,-6.6182,-6.6109,-6.6219,-6.6292,-6.6182,-6.6256,-6.6292,-6.6109,-6.6219,-6.5999,-6.5705,-6.5191,-6.5118,-6.5044,-6.4934,-6.4604,-6.4457,-6.4273,-6.3943,-6.3833,-6.398,-6.4347,-6.4604,-6.4751,-6.5191,-6.5375,-6.5375,-6.5375,-6.5558,-6.5668,-6.5925,-6.6662,-6.734,-6.7811,-6.8197,-6.7662,-6.7104,-6.6909,-6.7098,-6.7363,-6.8035,-6.8258,-6.8659,-6.9126,-6.9413,-6.9774,-7.0832,-7.0948,-7.1052,-7.1014,-7.0975,-7.086,-7.0783,-7.0706,-7.0206,-6.9975,-6.959,-6.9321,-6.936,-6.9321,-6.8859,-6.8398,-6.759,-6.6859,-6.6667,-6.6436,-6.632,-6.6205,-6.6205,-6.609,-6.5897,-6.5897,-6.5897,-6.5897,-6.5897,-6.582,-6.5474,-6.5743,-6.5897,-6.5628,-6.5474,-6.559,-6.5282,-6.4705,-6.4436,-6.4436,-6.4205,-6.3858,-6.3858,-6.3935,-7.2532,-7.2532,-7.2532,-7.2496,-7.2349,-7.1651,-7.0881,-7.0146,-7.0036,-6.9596,-6.8972,-6.8935,-6.8641,-6.7981,-6.7871,-6.7944,-6.7944,-6.7907,-6.7834,-6.776,-6.776,-6.7614,-6.7577,-6.7504,-6.7357,-6.7504,-6.743,-6.7136,-6.7577,-6.7283,-6.732,-6.7467,-6.7247,-6.7247,-6.6916,-6.6402,-6.5852,-6.5852,-6.5852,-6.5668,-6.5411,-6.5338,-6.5154,-6.4934,-6.4897,-6.5044,-6.5264,-6.5375,-6.5448,-6.5595,-6.5558,-6.5521,-6.5705,-6.6145,-6.6366,-6.6868,-6.7851,-6.8219,-6.8567,-6.8928,-6.9336,-6.8955,-6.8928,-6.931,-6.9436,-6.9531,-6.9693,-7.0072,-7.0527,-7.07,-7.1052,-7.1206,-7.136,-7.136,-7.1321,-7.1245,-7.1129,-7.1052,-7.0975,-7.0783,-7.0706,-7.0514,-7.0398,-7.0398,-7.0014,-6.986,-6.9436,-6.9206,-6.8475,-6.7859,-6.759,-6.7128,-6.6936,-6.6628,-6.6436,-6.6167,-6.5897,-6.5897,-6.5897,-6.5897,-6.5897,-6.5936,-6.5897,-6.5897,-6.5897,-6.5859,-6.582,-6.582,-6.5705,-6.5551,-6.5243,-6.5128,-6.4705,-6.5051,-6.5243,-7.2532,-7.2532,-7.2532,-7.2532,-7.2459,-7.2239,-7.1688,-7.0954,-7.0403,-6.9926,-6.9743,-6.9743,-6.9522,-6.9412,-6.9412,-6.9339,-6.9155,-6.8898,-6.8641,-6.8421,-6.8164,-6.7834,-6.776,-6.7834,-6.7724,-6.7724,-6.776,-6.7797,-6.7687,-6.7687,-6.7687,-6.765,-6.7687,-6.7687,-6.7504,-6.721,-6.699,-6.6843,-6.6769,-6.6512,-6.6256,-6.6145,-6.5925,-6.5632,-6.5558,-6.5742,-6.6035,-6.6145,-6.6329,-6.6806,-6.6916,-6.699,-6.7026,-6.7263,-6.7426,-6.7926,-6.8352,-6.8651,-6.9091,-6.9796,-7.0419,-7.0875,-7.1029,-7.0649,-7.0586,-7.0585,-7.0911,-7.1266,-7.1629,-7.1783,-7.1937,-7.2091,-7.2206,-7.2283,-7.2245,-7.2129,-7.1975,-7.1822,-7.1668,-7.1168,-7.1091,-7.0898,-7.0898,-7.0821,-7.0475,-7.0514,-7.0437,-7.0244,-6.9937,-6.9244,-6.8629,-6.8129,-6.7744,-6.7436,-6.6859,-6.6513,-6.6128,-6.5897,-6.609,-6.6244,-6.6205,-6.6205,-6.5974,-6.6013,-6.6205,-6.609,-6.5859,-6.5897,-6.5897,-6.5897,-6.5667,-6.5628,-6.5667,-6.5782,-6.5897,-7.2532,-7.2532,-7.2532,-7.2532,-7.2532,-7.2496,-7.2202,-7.1725,-7.1248,-7.0917,-7.0587,-7.0587,-7.0403,-7.0036,-7.0,-7.0,-6.9963,-6.9596,-6.9376,-6.9229,-6.8825,-6.8825,-6.8678,-6.8605,-6.8752,-6.8568,-6.8311,-6.8274,-6.8091,-6.7797,-6.7687,-6.7687,-6.7687,-6.7687,-6.7614,-6.7577,-6.7614,-6.7577,-6.754,-6.7357,-6.7136,-6.6916,-6.6623,-6.6292,-6.6182,-6.6549,-6.6932,-6.7006,-6.7337,-6.7614,-6.7687,-6.7863,-6.7996,-6.8173,-6.8714,-6.9184,-6.9675,-7.0146,-7.0725,-7.1405,-7.1884,-7.2248,-7.269,-7.2346,-7.2065,-7.1986,-7.2073,-7.2245,-7.2514,-7.2745,-7.2937,-7.3129,-7.3283,-7.3437,-7.3322,-7.3206,-7.2976,-7.2745,-7.2206,-7.1552,-7.1245,-7.0975,-7.0898,-7.0898,-7.0898,-7.0783,-7.0744,-7.0667,-7.0514,-7.0167,-6.9552,-6.9013,-6.859,-6.8244,-6.7628,-6.7167,-6.7013,-6.6974,-6.7167,-6.7205,-6.6898,-6.6898,-6.709,-6.6898,-6.6667,-6.6551,-6.6474,-6.6013,-6.5897,-6.5974,-6.609,-6.5974,-6.5897,-6.582,-6.5897,-7.2532,-7.2532,-7.2532,-7.2532,-7.2532,-7.2532,-7.2496,-7.2532,-7.2386,-7.2092,-7.1505,-7.1394,-7.1027,-7.0734,-7.066,-7.0587,-7.055,-7.0367,-7.0183,-7.0146,-6.9816,-6.9706,-6.9779,-7.0036,-6.9633,-6.9669,-6.9486,-6.8972,-6.8788,-6.8568,-6.8274,-6.7871,-6.8054,-6.8201,-6.8311,-6.8274,-6.8311,-6.8385,-6.8238,-6.8054,-6.7687,-6.7614,-6.7687,-6.7577,-6.7667,-6.7814,-6.7867,-6.7957,-6.7941,-6.8031,-6.8188,-6.8581,-6.8931,-6.9341,-6.9976,-7.0491,-7.1029,-7.1555,-7.2223,-7.2914,-7.3261,-7.3505,-7.3668,-7.3726,-7.3649,-7.3034,-7.287,-7.3014,-7.3245,-7.3514,-7.3707,-7.4091,-7.4322,-7.4361,-7.4322,-7.4053,-7.3745,-7.3399,-7.286,-7.2245,-7.1706,-7.1437,-7.1245,-7.1283,-7.0898,-7.0898,-7.0898,-7.0898,-7.0821,-7.0667,-7.0321,-6.9744,-6.9321,-6.8898,-6.859,-6.8205,-6.8167,-6.8167,-6.8205,-6.809,-6.7705,-6.7936,-6.8321,-6.7898,-6.7398,-6.7321,-6.7128,-6.6821,-6.6628,-6.6628,-6.6628,-6.632,-6.6205,-6.632,-6.6244,-7.2532,-7.2532,-7.2532,-7.2532,-7.2532,-7.2532,-7.2532,-7.2532,-7.2532,-7.2386,-7.2239,-7.2165,-7.2092,-7.1762,-7.1725,-7.1725,-7.1688,-7.1174,-7.1064,-7.0807,-7.055,-7.0477,-7.022,-7.0403,-7.0257,-7.0073,-6.9889,-6.9779,-6.9596,-6.9486,-6.9449,-6.9449,-6.9376,-6.9265,-6.9265,-6.9265,-6.9265,-6.9229,-6.9192,-6.8733,-6.8125,-6.7814,-6.7687,-6.7961,-6.8181,-6.8882,-6.9221,-6.9843,-7.0331,-7.0721,-7.0811,-7.0943,-7.1073,-7.1124,-7.152,-7.2015,-7.2307,-7.2778,-7.3392,-7.4043,-7.437,-7.4668,-7.4861,-7.5207,-7.5014,-7.4091,-7.3668,-7.3822,-7.3976,-7.4245,-7.4514,-7.4938,-7.5245,-7.5245,-7.5245,-7.4861,-7.4476,-7.3976,-7.3514,-7.2976,-7.236,-7.2014,-7.1783,-7.1475,-7.1052,-7.0898,-7.0898,-7.0898,-7.0898,-7.0821,-7.0783,-7.0321,-6.986,-6.9475,-6.9283,-6.9167,-6.9052,-6.8821,-6.8744,-6.859,-6.8513,-6.8744,-6.8975,-6.8552,-6.8167,-6.809,-6.809,-6.8013,-6.7821,-6.7513,-6.7398,-6.7205,-6.7436,-6.7628,-6.7282,-7.2532,-7.2532,-7.2532,-7.2532,-7.2532,-7.2532,-7.2532,-7.2532,-7.2532,-7.2532,-7.2532,-7.2532,-7.2532,-7.2532,-7.2532,-7.2532,-7.2422,-7.2055,-7.1872,-7.1651,-7.1394,-7.1358,-7.1174,-7.112,-7.1284,-7.1138,-7.0734,-7.0513,-7.0349,-7.0073,-7.0,-7.0146,-7.0146,-7.0239,-7.0202,-7.011,-7.0202,-7.0073,-7.0202,-6.9814,-6.9052,-6.8947,-6.8999,-6.9221,-6.9591,-7.0202,-7.0574,-7.1141,-7.1394,-7.1811,-7.1857,-7.2015,-7.2092,-7.2315,-7.2834,-7.3308,-7.3629,-7.3814,-7.4456,-7.4899,-7.5207,-7.5438,-7.5553,-7.5745,-7.5745,-7.4938,-7.4899,-7.5014,-7.5053,-7.5284,-7.5284,-7.5592,-7.5668,-7.5668,-7.5668,-7.5476,-7.5091,-7.4668,-7.4322,-7.3976,-7.3399,-7.286,-7.2706,-7.2668,-7.2206,-7.1591,-7.1514,-7.1129,-7.1091,-7.1014,-7.0975,-7.0821,-7.0321,-7.0206,-7.0206,-7.0052,-6.986,-6.9629,-6.9321,-6.9552,-6.9706,-6.9629,-6.9552,-6.936,-6.9167,-6.8975,-6.8975,-6.8859,-6.8513,-6.8052,-6.8129,-6.8205,-6.8513,-6.8783,-6.859,-7.2532,-7.2532,-7.2532,-7.2532,-7.2532,-7.2532,-7.2532,-7.2532,-7.2532,-7.2532,-7.2532,-7.2532,-7.2532,-7.2532,-7.2532,-7.2532,-7.2459,-7.2349,-7.2422,-7.2422,-7.2386,-7.2129,-7.2186,-7.2426,-7.2466,-7.2445,-7.2129,-7.1451,-7.0937,-7.0937,-7.0937,-7.0515,-7.0478,-7.057,-7.0533,-7.0642,-7.1041,-7.122,-7.1324,-7.1241,-7.0916,-7.0665,-7.056,-7.0809,-7.1237,-7.1561,-7.1874,-7.2195,-7.2195,-7.2623,-7.3112,-7.3257,-7.3471,-7.3789,-7.4152,-7.4619,-7.4734,-7.511,-7.5592,-7.5707,-7.5861,-7.5938,-7.5976,-7.5976,-7.5976,-7.5938,-7.5861,-7.5861,-7.5938,-7.5938,-7.5938,-7.5938,-7.5976,-7.5976,-7.5976,-7.5976,-7.5592,-7.5284,-7.5053,-7.4822,-7.4322,-7.3745,-7.3668,-7.363,-7.3168,-7.2591,-7.2168,-7.1745,-7.1437,-7.136,-7.1321,-7.1091,-7.0706,-7.0706,-7.0821,-7.0667,-7.0398,-7.0398,-7.0206,-7.0629,-7.0821,-7.0437,-7.0321,-7.0475,-7.0283,-6.9898,-6.9667,-6.9513,-6.909,-6.8821,-6.909,-6.936,-6.936,-6.9629,-6.9744,-7.2532,-7.2532,-7.2532,-7.2532,-7.2532,-7.2532,-7.2532,-7.2532,-7.2532,-7.2532,-7.2532,-7.2532,-7.2532,-7.2532,-7.2532,-7.2532,-7.2532,-7.2532,-7.2532,-7.2496,-7.261,-7.2553,-7.2686,-7.3104,-7.3492,-7.3538,-7.3474,-7.3266,-7.236,-7.2481,-7.2479,-7.206,-7.2526,-7.2681,-7.2769,-7.2895,-7.3035,-7.2997,-7.2997,-7.3183,-7.2791,-7.2295,-7.1341,-7.1636,-7.2278,-7.2881,-7.346,-7.4142,-7.4698,-7.5053,-7.5072,-7.5027,-7.505,-7.508,-7.5332,-7.5399,-7.5553,-7.5668,-7.5938,-7.5976,-7.5976,-7.5976,-7.5976,-7.5976,-7.5976,-7.5976,-7.5938,-7.5938,-7.5976,-7.5976,-7.5976,-7.5976,-7.5976,-7.5976,-7.5976,-7.5976,-7.5822,-7.5745,-7.5668,-7.5361,-7.5014,-7.4668,-7.4476,-7.4245,-7.3745,-7.3322,-7.3245,-7.2783,-7.2129,-7.1898,-7.1745,-7.1475,-7.1206,-7.0898,-7.0898,-7.086,-7.0706,-7.086,-7.0898,-7.0898,-7.0898,-7.0898,-7.086,-7.0821,-7.086,-7.0591,-7.0398,-7.009,-7.0206,-7.0052,-7.036,-7.0514,-7.0398,-7.0283,-7.0321]}]]